     2              OBSERVATION DATA    GPS                 RINEX VERSION / TYPE
teqc 2000Feb29 Duncan Agnew 20020605 22:40:52UTC            PGM / RUN BY / DATE
                                                            COMMENT
L2: 1 -> 1; 150 -> 5; 250 -> 9                              COMMENT
L2: 1 -> 1; 150 -> 5; 250 -> 9                              COMMENT
L2: 1 -> 1; 150 -> 5; 250 -> 9                              COMMENT
L2: 1 -> 1; 150 -> 5; 250 -> 9                              COMMENT
L2: 1 -> 1; 150 -> 5; 250 -> 9                              COMMENT
Original Marker Name: AMBO                                  COMMENT
Campaign Name: Post-Hector                                  COMMENT
4-Character Station Name: AMBO                              COMMENT
6-Character Antenna Code: DMRCHT                            COMMENT
Vertical Measurement Point: BCR                             COMMENT
Vertical Offset to Rinex Ref. Point: 0.0348                 COMMENT
Radial Measurement Point: ECF                               COMMENT
Radial Offset to Rinex Ref. Point: 0.1897                   COMMENT
Antenna Height from Field Measurement: 0.9250 m             COMMENT
Additional Antenna Identification Info.:                    COMMENT
Turborogue and Ashtech Choke Ring                           COMMENT
Original XYZ: -2283909.4400 -4736626.9000 3597759.1700      COMMENT
New XYZ position is based on association with SCEC monument COMMENT
E1F2L3W6+0011. Position of that monument is believed to be  COMMENT
valid to within 1 m horizontally; vertical accuracy         COMMENT
should be no worse than 3-times this value.                 COMMENT
                                                            COMMENT
Revised Rinex header created by UCSD GPS archive for        COMMENT
GSAC on 11-Jul-2003 (2003:192) 17:04:40 GMT                 COMMENT
For assistance contact dagnew@ucsd.edu                      COMMENT
or anderson@python.ucsd.edu                                 COMMENT
                                                            COMMENT
AMBOY 1934                                                  MARKER NAME
HYU UNIV CALIF LOS ANGELES                                  OBSERVER / AGENCY
107 ASHTECH Z-XII3 1L00                                     REC # / TYPE / VERS
782 DORNE-MARGOL. TYPE T                                    ANT # / TYPE
 -2283905.2633 -4736613.0349  3597742.5363                  APPROX POSITION XYZ
        0.8705        0.0000        0.0000                  ANTENNA: DELTA H/E/N
     1     1     0                                          WAVELENGTH FACT L1/2
     7    C1    L1    L2    P1    P2    S1    S2            # / TYPES OF OBSERV
     0                                                      INTERVAL
  2002     5    27     0     0   30.000000                  TIME OF FIRST OBS
  2002     5    27     6     3   60.000000                  TIME OF LAST OBS
                                                            END OF HEADER
 02  5 27  0  0 30.0000000  0  7G21G18G14G31G25G 3G11
  21898908.186      307884.41749    240844.16147  21898907.781    21898918.642
       238.000         195.000
  24544091.322     2567815.51149   1991225.42845  24544091.220    24544105.961
       208.000         148.000
  20806746.865      334538.57449    290727.28248  20806746.558    20806754.614
       243.000         216.000
  24004424.993     1654391.98549   1286600.16245  24004425.464    24004439.114
       218.000         161.000
  22217565.493    -5346393.90249  -4145281.22347  22217564.998    22217576.370
       235.000         192.000
  24745395.298     3078002.17249   2390573.64345  24745394.798    24745413.034
       206.000         142.000
  23456002.138    -5604839.55949  -4342276.02646  23456001.392    23456013.246
       225.000         172.000
 02  5 27  0  1  0.0000000  0  7G21G18G14G31G25G 3G11
  21902422.306      326350.90749    255233.59047  21902421.892    21902432.102
       239.000         194.000
  24555879.462     2629757.73449   2039491.93045  24555879.728    24555892.793
       211.000         148.000
  20811114.716      357491.21749    308612.45948  20811114.245    20811122.329
       243.000         216.000
  24013649.431     1702866.33149   1324372.23645  24013649.279    24013663.011
       218.000         160.000
  22200077.650    -5438290.17549  -4216888.57247  22200077.665    22200089.203
       235.000         192.000
  24758687.182     3147856.72549   2445005.48445  24758686.224    24758708.478
       207.000         145.000
  23437462.978    -5702263.07049  -4418190.35446  23437461.941    23437472.728
       225.000         170.000
 02  5 27  0  1 30.0000000  0  7G21G18G14G31G25G 3G11
  21905995.497      345126.87649    269864.17347  21905994.722    21906005.584
       238.000         194.000
  24567704.099     2691899.30349   2087913.76745  24567703.304    24567718.234
       209.000         148.000
  20815562.563      380863.39249    326824.54248  20815561.941    20815569.824
       244.000         216.000
  24022943.842     1751714.17549   1362435.37745  24022943.448    24022958.958
       217.000         160.000
  22182670.368    -5529766.71949  -4288168.84847  22182670.114    22182681.326
       236.000         191.000
  24771994.095     3217773.60949   2499485.89945  24771993.658    24772014.557
       209.000         146.000
  23418996.693    -5799305.17349  -4493807.48446  23418996.239    23419008.365
       226.000         172.000
 02  5 27  0  2  0.0000000  0  7G21G18G14G31G25G 3G11
  21909630.756      364230.86049    284750.35147  21909630.314    21909640.943
       238.000         193.000
  24579571.321     2754257.80549   2136504.61845  24579571.174    24579584.928
       210.000         148.000
  20820092.871      404670.57749    345375.59448  20820092.238    20820100.290
       244.000         216.000
  24032314.098     1800950.03349   1400800.88045  24032312.624    24032329.790
       216.000         161.000
  22165347.073    -5620803.47049  -4359106.42847  22165346.400    22165357.343
       236.000         192.000
  24785315.026     3287767.55849   2554026.30745  24785313.906    24785332.456
       210.000         146.000
  23400606.973    -5895946.05349  -4569111.97546  23400606.037    23400616.662
       225.000         171.000
 02  5 27  0  2 30.0000000  0  7G21G18G14G31G25G 3G11
  21913326.461      383651.01749    299882.89347  21913325.737    21913336.055
       238.000         193.000
  24591476.579     2816821.15549   2185255.08945  24591475.235    24591489.547
       209.000         143.000
  20824703.302      428898.88149    364254.78948  20824702.773    20824710.554
       244.000         215.000
  24041754.747     1850558.88249   1439456.99145  24041753.589    24041769.253
       219.000         162.000
  22148104.857    -5711410.09049  -4429708.85147  22148104.246    22148115.349
       236.000         193.000
  24798645.991     3357823.79949   2608615.29645  24798645.897    24798665.566
       207.000         147.000
  23382290.935    -5992195.24249  -4644111.24746  23382290.190    23382302.091
       224.000         169.000
 02  5 27  0  3  0.0000000  0  7G21G18G14G31G25G 3G11
  21917075.597      403351.60449    315233.94947  21917074.547    21917084.879
       238.000         193.000
  24603414.882     2879553.08249   2234136.94545  24603413.567    24603428.306
       213.000         144.000
  20829386.590      453510.03749    383432.30748  20829386.125    20829393.801
       244.000         215.000
  24051258.913     1900501.36949   1478373.06545  24051257.277    24051273.495
       219.000         161.000
  22130938.014    -5801620.67049  -4500002.66047  22130937.703    22130949.128
       236.000         193.000
  24811981.657     3427903.17549   2663222.26245  24811983.669    24812002.231
       207.000         146.000
  23364043.734    -6088086.95949  -4718831.99246  23364043.207    23364053.661
       222.000         168.000
 02  5 27  0  3 30.0000000  0  7G21G18G14G31G25G 3G11
  21920884.017      423366.27449    330829.74947  21920883.365    21920893.663
       238.000         193.000
  24615390.358     2942486.33249   2283175.64445  24615390.530    24615404.769
       211.000         144.000
  20834148.727      478535.09949    402932.34648  20834148.007    20834155.941
       244.000         215.000
  24060831.030     1950807.48549   1517572.50245  24060829.709    24060846.074
       217.000         159.000
  22113853.585    -5891399.72949  -4569960.22547  22113853.182    22113864.319
       236.000         194.000
  24825325.659     3498035.81849   2717870.79045  24825326.810    24825346.742
       204.000         142.000
  23345870.401    -6183585.98749  -4793246.72446  23345869.721    23345880.305
       223.000         167.000
 02  5 27  0  4  0.0000000  0  7G21G18G14G31G25G 3G11
  21924747.120      443666.01649    346647.67347  21924746.634    21924756.967
       238.000         193.000
  24627398.578     3005591.19349   2332348.16645  24627398.034    24627413.988
       208.000         141.000
  20838983.550      503942.29149    422730.15148  20838982.961    20838990.819
       244.000         215.000
  24070467.524     2001444.43749   1557029.74545  24070466.826    24070482.162
       215.000         160.000
  22096846.167    -5980775.13449  -4639603.25047  22096845.860    22096856.648
       237.000         194.000
  24838674.743     3568189.25349   2772535.46945  24838675.888    24838695.968
       200.000         139.000
  23327766.615    -6278719.59949  -4867376.70546  23327766.225    23327778.006
       222.000         168.000
 02  5 27  0  4 30.0000000  0  7G21G18G14G31G25G 3G11
  21928663.847      464250.04949    362687.12847  21928663.185    21928673.713
       237.000         193.000
  24639439.697     3068866.12349   2381653.17045  24639439.226    24639453.541
       211.000         145.000
  20843890.436      529728.34649    442823.16748  20843889.742    20843897.664
       244.000         215.000
  24080165.383     2052407.86549   1596741.38645  24080164.974    24080181.262
       217.000         160.000
  22079915.075    -6069745.94249  -4708931.00947  22079914.844    22079926.067
       237.000         194.000
  24852026.486     3638359.18949   2827213.02845  24852027.278    24852048.395
       198.000         136.000
  23309732.364    -6373487.03949  -4941221.38046  23309732.002    23309743.805
       220.000         166.000
 02  5 27  0  5  0.0000000  0  7G21G18G14G31G25G 3G11
  21932635.158      485117.42949    378947.37347  21932634.502    21932645.619
       237.000         193.000
  24651512.150     3132309.78849   2431089.65745  24651511.925    24651525.651
       207.000         136.000
  20848868.595      555889.93849    463208.81148  20848868.170    20848876.100
       243.000         215.000
  24089925.205     2103693.18949   1636703.84145  24089924.177    24089939.233
       218.000         161.000
  22063061.208    -6158311.49149  -4777942.98547  22063060.863    22063072.595
       236.000         195.000
  24865383.507     3708541.37349   2881900.12645  24865383.485    24865403.634
       199.000         139.000
  23291768.794    -6467887.47049  -5014780.05346  23291769.192    23291779.350
       223.000         168.000
 02  5 27  0  5 30.0000000  0  7G21G18G14G31G25G 3G11
  21936660.178      506269.31149    395429.30947  21936659.616    21936670.450
       237.000         193.000
  24663618.528     3195921.89249   2480657.43645  24663618.001    24663632.045
       215.000         145.000
  20853918.245      582424.87749    483885.37148  20853917.754    20853925.596
       243.000         215.000
  24099744.601     2155297.29849   1676914.68145  24099744.096    24099759.660
       215.000         157.000
  22046285.800    -6246469.06549  -4846637.05247  22046285.385    22046296.306
       237.000         196.000
  24878743.336     3778732.78349   2936594.42545  24878743.005    24878763.832
       205.000         140.000
  23273875.700    -6561918.53949  -5088050.92546  23273875.285    23273886.048
       224.000         170.000
 02  5 27  0  6  0.0000000  0  7G21G18G14G31G25G 3G11
  21940740.685      527714.12149    412139.50047  21940740.173    21940751.093
       237.000         192.000
  24675756.447     3259710.56049   2530362.74945  24675754.717    24675770.858
       209.000         143.000
  20859039.993      609339.63949    504857.89748  20859039.498    20859047.367
       243.000         214.000
  24109626.438     2207225.41249   1717378.00945  24109626.519    24109642.026
       215.000         156.000
  22029589.478    -6334208.29849  -4915005.13847  22029588.968    22029600.388
       238.000         196.000
  24892105.120     3848938.92649   2991300.19045  24892103.547    24892124.027
       208.000         143.000
  23256054.424    -6655569.75249  -5161025.80146  23256055.067    23256064.927
       225.000         171.000
 02  5 27  0  6 30.0000000  0  7G21G18G14G31G25G 3G11
  21944874.647      549436.01449    429065.59247  21944873.494    21944885.034
       236.000         192.000
  24687925.784     3323659.09049   2580192.63045  24687924.718    24687938.658
       215.000         147.000
  20864230.104      636615.69749    526111.96148  20864229.656    20864237.859
       243.000         214.000
  24119565.906     2259457.92049   1758078.52145  24119565.230    24119581.685
       215.000         157.000
  22012969.740    -6421544.15349  -4983058.91147  22012969.534    22012980.577
       238.000         195.000
  24905463.657     3919140.62249   3046002.46845  24905462.851    24905483.837
       209.000         142.000
  23238303.293    -6748855.23649  -5233715.68146  23238302.846    23238313.067
       227.000         172.000
 02  5 27  0  7  0.0000000  0  7G21G18G14G31G25G 3G11
  21949061.662      571440.79149    446212.11847  21949061.348    21949072.069
       237.000         192.000
  24700125.905     3387773.06549   2630151.51245  24700126.043    24700142.826
       211.000         148.000
  20869489.967      664256.59949    547650.31648  20869489.504    20869497.815
       243.000         214.000
  24129564.161     2311997.34649   1799018.18745  24129563.810    24129579.115
       216.000         157.000
  21996428.715    -6508468.52249  -5050792.04647  21996428.355    21996438.803
       239.000         196.000
  24918823.375     3989340.66249   3100703.49645  24918822.278    24918842.669
       207.000         142.000
  23220621.783    -6841767.41549  -5306114.66446  23220621.228    23220632.286
       226.000         172.000
 02  5 27  0  7 30.0000000  0  7G21G18G14G31G25G 3G11
  21953303.328      593728.48349    463579.09747  21953302.663    21953313.125
       236.000         192.000
  24712357.648     3452051.06349   2680238.08845  24712357.511    24712372.068
       214.000         149.000
  20874819.050      692259.25449    569470.55748  20874818.432    20874826.628
       243.000         214.000
  24139619.817     2364839.43849   1840193.70045  24139617.711    24139634.598
       214.000         157.000
  21979965.943    -6594980.09949  -5118203.53047  21979965.320    21979976.689
       238.000         197.000
  24932177.937     4059534.96549   3155400.04345  24932177.952    24932200.135
       202.000         140.000
  23203012.935    -6934304.90949  -5378221.70346  23203012.851    23203022.259
       227.000         172.000
 02  5 27  0  8  0.0000000  0  7G21G18G14G31G25G 3G11
  21957595.340      616285.20749    481155.71647  21957595.022    21957605.660
       236.000         191.000
  24724618.952     3516478.09749   2730440.86845  24724617.663    24724631.583
       213.000         146.000
  20880213.437      720607.02849    591559.71448  20880212.742    20880221.087
       242.000         214.000
  24149729.136     2417966.43749   1881591.22945  24149729.153    24149744.192
       214.000         154.000
  21963579.261    -6681091.83649  -5185303.44447  21963579.160    21963589.464
       238.000         196.000
  24945528.409     4129706.11249   3210078.54945  24945529.250    24945551.500
       198.000         134.000
  23185472.464    -7026480.26549  -5450046.55646  23185471.850    23185481.963
       227.000         171.000
 02  5 27  0  8 30.0000000  0  7G21G18G14G31G25G 3G11
  21961939.942      639114.54549    498944.75347  21961939.408    21961950.175
       237.000         192.000
  24736907.443     3581058.20949   2780762.85345  24736908.105    24736918.803
       205.000         140.000
  20885673.787      749301.70349    613919.18648  20885673.229    20885681.540
       243.000         214.000
  24159894.714     2471379.00249   1923211.23845  24159894.213    24159908.719
       216.000         155.000
  21947269.638    -6766797.42349  -5252086.88747  21947269.192    21947280.631
       238.000         197.000
  24958879.726     4199854.88149   3264739.60745  24958877.397    24958899.330
       200.000         137.000
  23168001.606    -7118287.62049  -5521584.65646  23168001.283    23168011.598
       225.000         171.000
 02  5 27  0  9  0.0000000  0  7G21G18G14G31G25G 3G11
  21966334.921      662209.64549    516940.88547  21966334.362    21966345.199
       236.000         191.000
  24749223.496     3645782.62049   2831197.32445  24749223.625    24749239.050
       206.000         140.000
  20891198.361      778333.07649    636541.01548  20891197.893    20891206.017
       243.000         214.000
  24170111.103     2525065.77449   1965044.88145  24170109.351    24170125.382
       214.000         155.000
  21931036.480    -6852103.17749  -5318558.77247  21931036.480    21931047.334
       238.000         197.000
  24972221.400     4269970.46349   3319374.83045  24972220.856    24972242.886
       204.000         139.000
  23150599.934    -7209732.83449  -5592840.56246  23150599.316    23150610.702
       225.000         172.000
 02  5 27  0  9 30.0000000  0  7G21G18G14G31G25G 3G11
  21970779.733      685568.15149    535142.26947  21970779.368    21970790.124
       236.000         191.000
  24761568.489     3710649.31849   2881742.62645  24761567.503    24761581.878
       209.000         145.000
  20896786.268      807696.97349    659421.95548  20896785.682    20896793.787
       243.000         214.000
  24180377.252     2579021.44649   2007088.12145  24180376.548    24180393.448
       211.000         155.000
  21914879.900    -6937009.11649  -5384719.11347  21914879.567    21914889.884
       239.000         197.000
  24985561.082     4340047.80149   3373980.23345  24985558.340    24985578.674
       207.000         140.000
  23133267.579    -7300815.89449  -5663814.25546  23133267.641    23133278.379
       225.000         173.000
 02  5 27  0 10  0.0000000  0  7G21G18G14G31G25G 3G11
  21975279.328      709212.86449    553566.67247  21975278.802    21975289.348
       236.000         191.000
  24773942.364     3775679.84249   2932415.64745  24773943.287    24773957.240
       203.000         141.000
  20902441.121      837413.40949    682577.59948  20902440.484    20902448.586
       243.000         214.000
  24190699.489     2633264.88249   2049355.59445  24190698.763    24190715.503
       213.000         154.000
  21898803.362    -7021490.92949  -5450548.96547  21898802.789    21898813.298
       239.000         198.000
  24998895.549     4410106.05549   3428570.74845  24998894.334    24998911.330
       211.000         142.000
  23116008.806    -7391512.49049  -5734486.83846  23116007.416    23116018.908
       225.000         172.000
 02  5 27  0 10 30.0000000  0  6G21G18G14G31G25G11
  21979831.225      733132.45849    572205.26447  21979830.605    21979841.302
       236.000         191.000
  24786346.622     3840862.48449   2983207.14245  24786347.595    24786360.882
       209.000         146.000
  20908160.284      867468.42149    705997.06648  20908159.920    20908167.967
       243.000         214.000
  24201074.533     2687781.13049   2091835.60445  24201074.298    24201089.537
       214.000         154.000
  21882805.599    -7105558.48649  -5516056.02147  21882805.087    21882816.312
       238.000         198.000
  23098820.825    -7481832.44749  -5804865.91746  23098819.941    23098831.651
       226.000         173.000
 02  5 27  0 11  0.0000000  0  6G21G18G14G31G25G11
  21984434.147      757321.87649    591054.11947  21984433.673    21984444.586
       236.000         191.000
  24798779.502     3906191.31849   3034112.60545  24798779.142    24798793.109
       209.000         150.000
  20913942.745      897854.57249    729674.56748  20913942.215    20913950.464
       243.000         214.000
  24211499.178     2742561.58049   2134521.44445  24211497.883    24211513.654
       212.000         152.000
  21866885.944    -7189215.66649  -5581243.30247  21866885.566    21866896.149
       238.000         198.000
  23081704.298    -7571778.75149  -5874953.82446  23081703.719    23081714.618
       225.000         173.000
 02  5 27  0 11 30.0000000  0  6G21G18G14G31G25G11
  21989091.741      781797.20049    610125.75647  21989091.355    21989102.027
       236.000         190.000
  24811241.228     3971682.09149   3085144.13245  24811239.691    24811256.129
       200.000         137.000
  20919790.565      928585.40449    753620.64648  20919790.023    20919798.060
       243.000         214.000
  24221974.904     2797618.59749   2177422.83445  24221974.752    24221992.037
       210.000         151.000
  21851048.067    -7272444.73849  -5646096.99647  21851047.457    21851057.977
       239.000         198.000
  23064662.531    -7661333.85249  -5944736.90746  23064662.704    23064673.181
       225.000         174.000
 02  5 27  0 12  0.0000000  0  6G21G18G14G31G25G11
  21993801.101      806544.78649    629409.55147  21993800.467    21993811.597
       236.000         190.000
  24823732.376     4037319.71449   3136290.19845  24823732.211    24823745.393
       208.000         142.000
  20925700.911      959644.70949    777822.68148  20925700.325    20925708.527
       243.000         213.000
  24232501.953     2852934.70249   2220526.12545  24232501.258    24232517.882
       210.000         152.000
  21835288.697    -7355257.82949  -5710626.55447  21835288.585    21835299.072
       238.000         198.000
  23047693.414    -7750509.91249  -6014224.61846  23047692.883    23047703.341
       226.000         175.000
 02  5 27  0 12 30.0000000  0  6G21G18G14G31G25G11
  21998561.947      831562.38049    648903.73847  21998561.398    21998572.293
       236.000         190.000
  24836252.003     4103101.58149   3187548.67645  24836249.089    24836264.525
       197.000         141.000
  20931672.904      991027.47849    802276.76748  20931672.315    20931680.524
       243.000         213.000
  24243075.846     2908504.03549   2263826.72545  24243075.700    24243093.204
       210.000         149.000
  21819609.029    -7437655.43249  -5774832.34847  21819608.685    21819619.298
       239.000         198.000
  23030795.788    -7839307.54249  -6083417.46846  23030795.565    23030805.770
       226.000         174.000
 02  5 27  0 13  0.0000000  0  6G21G18G14G31G25G11
  22003375.332      856856.96749    668613.77447  22003374.967    22003385.414
       235.000         190.000
  24848797.430     4169033.66949   3238924.01945  24848797.068    24848810.982
       200.000         140.000
  20937707.334     1022737.93449    826986.19048  20937706.773    20937715.030
       243.000         213.000
  24253699.967     2964329.38749   2307326.80045  24253699.220    24253715.313
       209.000         144.000
  21804010.378    -7519629.56049  -5838708.16847  21804009.485    21804020.185
       239.000         199.000
  23013971.117    -7927718.41949  -6152308.93246  23013970.384    23013980.758
       226.000         172.000
 02  5 27  0 13 30.0000000  0  5G21G14G31G25G11
  22008241.813      882432.11949    688542.43447  22008241.217    22008252.484
       235.000         189.000
  20943804.172     1054777.54449    851952.10448  20943803.616    20943811.772
       243.000         213.000
  24264372.730     3020411.11949   2351026.65245  24264372.376    24264388.301
       211.000         148.000
  21788492.473    -7601174.69249  -5902249.70147  21788492.046    21788502.418
       240.000         200.000
  22997221.893    -8015737.02649  -6220894.73146  22997221.633    22997232.684
       228.000         173.000
 02  5 27  0 14  0.0000000  0  5G21G14G31G25G11
  22013162.701      908289.32849    708690.87647  22013162.237    22013172.889
       235.000         189.000
  20949963.608     1087145.22149    877173.65348  20949962.954    20949971.264
       243.000         213.000
  24275093.878     3076747.21449   2394924.72245  24275092.905    24275109.791
       214.000         152.000
  21773056.754    -7682287.89749  -5965454.67847  21773056.593    21773066.940
       239.000         200.000
  22980547.775    -8103360.03949  -6289172.27346  22980547.311    22980557.582
       229.000         175.000
 02  5 27  0 14 30.0000000  0  5G21G14G31G25G11
  22018136.647      934427.75949    729058.45347  22018136.150    22018147.142
       236.000         190.000
  20956184.749     1119837.63449    902648.24948  20956184.323    20956192.538
       243.000         213.000
  24285860.663     3133332.96449   2439017.36145  24285859.935    24285877.904
       208.000         150.000
  21757703.762    -7762969.13949  -6028323.05847  21757703.558    21757713.903
       240.000         200.000
  22963949.028    -8190586.72649  -6357140.99946  22963949.123    22963958.057
       229.000         176.000
 02  5 27  0 15  0.0000000  0  5G21G14G31G25G11
  22023168.348      960869.84749    749662.64747  22023168.183    22023178.985
       235.000         190.000
  20962471.598     1152874.63249    928391.35348  20962470.848    20962479.153
       244.000         213.000
  24296680.072     3190187.05749   2483319.10045  24296680.519    24296695.944
       209.000         146.000
  21742437.347    -7843194.31449  -6090836.06047  21742436.775    21742447.087
       240.000         200.000
  22947430.161    -8277393.09449  -6424782.20146  22947429.795    22947440.142
       227.000         176.000
 02  5 27  0 15 30.0000000  0  5G21G14G31G25G11
  22028252.944      987588.55349    770482.38647  22028252.159    22028263.291
       236.000         190.000
  20968817.996     1186226.50249    954379.81348  20968817.639    20968825.875
       243.000         213.000
  24307544.187     3247278.56649   2527805.80845  24307543.721    24307559.954
       211.000         146.000
  21727252.452    -7922989.09249  -6153013.68547  21727252.112    21727262.474
       239.000         200.000
  22930986.212    -8363804.66249  -6492115.76046  22930986.121    22930996.690
       229.000         176.000
 02  5 27  0 16  0.0000000  0  5G21G14G31G25G11
  22033390.232     1014586.03949    791519.35547  22033389.587    22033400.661
       236.000         190.000
  20975224.721     1219892.96249    980613.40647  20975224.269    20975232.415
       243.000         212.000
  24318454.532     3304606.28049   2572476.55845  24318453.531    24318468.934
       211.000         148.000
  21712150.865    -8002349.60649  -6214852.93247  21712150.573    21712161.071
       240.000         201.000
  22914618.721    -8449817.50549  -6559138.63546  22914618.788    22914628.772
       229.000         176.000
 02  5 27  0 16 30.0000000  0  5G21G14G31G25G11
  22038585.117     1041883.13149    812789.78347  22038584.464    22038594.952
       236.000         189.000
  20981694.709     1253892.48849   1007106.53847  20981694.114    20981702.452
       243.000         212.000
  24329411.192     3362187.26449   2617344.72945  24329410.932    24329427.873
       211.000         149.000
  21697135.967    -8081253.59149  -6276336.43247  21697135.895    21697145.400
       241.000         201.000
  22898331.127    -8535408.99649  -6625833.21446  22898330.731    22898341.379
       229.000         176.000
 02  5 27  0 17  0.0000000  0  5G21G14G31G25G11
  22043839.620     1069498.69549    834308.38247  22043839.274    22043850.328
       234.000         189.000
  20988231.000     1288241.62449   1033872.08847  20988230.470    20988238.557
       242.000         212.000
  24340420.352     3420037.04549   2662422.31045  24340419.700    24340435.920
       210.000         148.000
  21682211.779    -8159680.57149  -6337448.24847  21682211.411    21682221.422
       240.000         202.000
  22882127.217    -8620558.68149  -6692183.51246  22882126.764    22882136.672
       227.000         176.000
 02  5 27  0 17 30.0000000  0  5G21G14G31G25G11
  22049154.156     1097423.96449    856068.29547  22049153.461    22049164.212
       236.000         189.000
  20994831.624     1322928.61149   1060900.90547  20994831.065    20994839.259
       242.000         212.000
  24351477.669     3478142.46649   2707699.07945  24351476.597    24351492.444
       211.000         146.000
  21667376.539    -8237638.48749  -6398194.55847  21667376.269    21667386.343
       240.000         202.000
  22866005.935    -8705274.10449  -6758195.42646  22866006.258    22866016.260
       227.000         176.000
 02  5 27  0 18  0.0000000  0  5G21G14G31G25G11
  22054521.639     1125630.70549    878047.54247  22054521.071    22054532.028
       235.000         189.000
  21001491.176     1357923.15749   1088169.38047  21001490.446    21001498.591
       243.000         212.000
  24362577.018     3536472.17349   2753150.66145  24362576.876    24362591.988
       209.000         148.000
  21652625.729    -8315153.70449  -6458595.91147  21652625.548    21652635.862
       240.000         202.000
  22849963.483    -8789581.39449  -6823889.33046  22849962.275    22849973.413
       227.000         178.000
 02  5 27  0 18 30.0000000  0  5G21G14G31G25G11
  22059943.221     1154122.35449    900248.79847  22059942.709    22059953.323
       234.000         189.000
  21008208.880     1393225.49449   1115677.68547  21008208.398    21008216.501
       243.000         212.000
  24373718.853     3595025.53149   2798776.52045  24373717.694    24373734.756
       212.000         150.000
  21637960.330    -8392221.96149  -6518648.99247  21637960.033    21637969.985
       241.000         202.000
  22833998.724    -8873475.97249  -6889261.64046  22833998.463    22834008.719
       228.000         178.000
 02  5 27  0 19  0.0000000  0  5G21G14G31G25G11
  22065420.575     1182903.76749    922675.84247  22065419.865    22065430.680
       235.000         189.000
  21014985.821     1428838.90449   1143428.39747  21014985.246    21014993.287
       243.000         212.000
  24384904.158     3653803.87949   2844577.65845  24384903.544    24384919.928
       212.000         147.000
  21623380.702    -8468836.63049  -6578348.61747  21623380.257    21623390.628
       240.000         202.000
  22818113.973    -8956951.07049  -6954307.08746  22818113.212    22818123.317
       228.000         178.000
 02  5 27  0 19 30.0000000  0  5G21G14G31G25G11
  22070948.171     1211954.54549    945312.77947  22070947.915    22070959.080
       233.000         189.000
  21021817.645     1464739.90649   1171403.20047  21021817.140    21021825.111
       243.000         212.000
  24396128.000     3712782.80149   2890535.09945  24396126.066    24396145.445
       212.000         147.000
  21608884.169    -8545016.87549  -6637709.74347  21608884.053    21608893.839
       241.000         202.000
  22802305.168    -9040025.75249  -7019040.51646  22802304.839    22802314.469
       228.000         178.000
 02  5 27  0 20  0.0000000  0  5G21G14G31G25G11
  22076528.106     1241275.37649    968160.14247  22076527.280    22076538.437
       234.000         188.000
  21028703.741     1500927.23749   1199601.12047  21028703.276    21028711.435
       243.000         212.000
  24407388.975     3771960.12549   2936647.12745  24407387.851    24407404.394
       213.000         147.000
  21594470.630    -8620760.13949  -6696730.35947  21594470.693    21594480.343
       241.000         202.000
  22786573.033    -9122697.32949  -7083459.84046  22786573.173    22786583.489
       228.000         179.000
 02  5 27  0 20 30.0000000  0  5G21G14G31G25G11
  22082160.951     1270876.06749    991225.57547  22082160.360    22082171.207
       234.000         188.000
  21035645.649     1537407.46549   1228027.27747  21035645.137    21035653.584
       243.000         211.000
  24418688.902     3831341.27349   2982917.99545  24418689.510    24418706.869
       213.000         147.000
  21580142.285    -8696056.13949  -6755402.46047  21580141.696    21580151.715
       241.000         203.000
  22770920.233    -9204954.78749  -7147556.47546  22770919.939    22770929.854
       229.000         179.000
 02  5 27  0 21  0.0000000  0  5G21G14G31G25G11
  22087845.447     1300748.07549   1014502.42847  22087844.625    22087856.004
       234.000         188.000
  21042641.532     1574170.50049   1256673.79647  21042641.134    21042649.086
       243.000         211.000
  24430025.177     3890914.61549   3029338.63145  24430024.638    24430041.259
       214.000         149.000
  21565897.324    -8770911.46749  -6813731.19147  21565897.110    21565907.261
       241.000         203.000
  22755344.611    -9286804.17449  -7211335.13346  22755343.810    22755354.416
       229.000         180.000
 02  5 27  0 21 30.0000000  0  5G21G14G31G25G11
  22093582.011     1330893.50849   1037992.34347  22093581.391    22093592.468
       234.000         188.000
  21049690.987     1611215.71349   1285540.19147  21049690.491    21049698.592
       243.000         211.000
  24441399.751     3950678.43249   3075907.64545  24441399.234    24441416.061
       218.000         152.000
  21551737.217    -8845322.83649  -6871713.97847  21551736.953    21551747.058
       241.000         203.000
  22739847.293    -9368242.10349  -7274793.18446  22739847.305    22739857.037
       231.000         179.000
 02  5 27  0 22  0.0000000  0  5G21G14G31G25G11
  22099374.624     1361333.82449   1061712.02647  22099373.544    22099385.171
       234.000         188.000
  21056797.519     1648562.02149   1314641.21547  21056796.980    21056805.569
       243.000         211.000
  24452811.927     4010650.58849   3122639.01145  24452810.987    24452826.430
       214.000         150.000
  21537666.270    -8919267.45249  -6929333.05947  21537665.885    21537675.960
       241.000         204.000
  22724433.045    -9449245.58249  -7337912.67846  22724432.518    22724442.157
       230.000         180.000
 02  5 27  0 22 30.0000000  0  5G21G14G31G25G11
  22105223.915     1392072.14849   1085663.92846  22105223.294    22105234.443
       233.000         187.000
  21063962.010     1686209.96749   1343977.27347  21063961.545    21063969.572
       243.000         211.000
  24464263.182     4070830.21149   3169532.08545  24464263.546    24464280.913
       211.000         150.000
  21523684.644    -8992741.26349  -6986585.27847  21523684.193    21523694.004
       241.000         204.000
  22709102.211    -9529810.19949  -7400690.21446  22709101.684    22709111.257
       231.000         180.000
 02  5 27  0 23  0.0000000  0  5G21G14G31G25G11
  22111127.294     1423093.41549   1109836.29947  22111127.057    22111137.437
       234.000         188.000
  21071180.111     1724142.17149   1373534.83047  21071179.533    21071187.943
       243.000         211.000
  24475751.923     4131198.68349   3216572.24745  24475750.335    24475767.649
       218.000         151.000
  21509789.913    -9065757.94149  -7043481.29447  21509789.674    21509799.431
       242.000         204.000
  22693851.956    -9609949.39049  -7463136.24046  22693851.653    22693861.679
       230.000         181.000
 02  5 27  0 23 30.0000000  0  5G21G14G31G25G11
  22117075.037     1454351.67849   1134193.34847  22117074.861    22117085.970
       234.000         188.000
  21078443.137     1762309.95349   1403275.96047  21078442.766    21078451.114
       243.000         211.000
  24487265.910     4191706.35749   3263720.89445  24487265.034    24487283.014
       216.000         154.000
  21495973.678    -9138362.30949  -7100056.02747  21495973.283    21495983.130
       242.000         204.000
  22678674.190    -9689707.70149  -7525285.45946  22678673.837    22678683.668
       231.000         182.000
 02  5 27  0 24  0.0000000  0  5G21G14G31G25G11
  22123071.069     1485858.46449   1158744.03446  22123070.478    22123081.768
       234.000         187.000
  21085753.294     1800722.61549   1433207.90447  21085752.609    21085760.706
       243.000         210.000
  24498807.298     4252361.04649   3310984.11745  24498806.377    24498824.671
       214.000         153.000
  21482238.016    -9210541.37149  -7156299.35747  21482237.838    21482247.721
       242.000         204.000
  22663571.879    -9769071.76449  -7587127.47946  22663571.353    22663581.202
       232.000         182.000
 02  5 27  0 24 30.0000000  0  5G21G14G31G25G11
  22129128.371     1517687.80649   1183546.06946  22129127.593    22129138.216
       233.000         187.000
  21093122.933     1839452.09549   1463386.71847  21093122.238    21093130.622
       242.000         210.000
  24510391.852     4313233.63049   3358417.12645  24510390.416    24510406.650
       216.000         152.000
  21468598.154    -9282219.51549  -7212152.35947  21468597.883    21468607.811
       241.000         204.000
  22648558.951    -9847965.75649  -7648603.20946  22648558.194    22648568.117
       232.000         183.000
 02  5 27  0 25  0.0000000  0  5G21G14G31G25G11
  22135222.644     1549715.71949   1208502.83546  22135222.324    22135233.303
       233.000         186.000
  21100528.932     1878371.79049   1493713.74847  21100528.548    21100536.614
       243.000         210.000
  24521992.413     4374196.39549   3405920.37545  24521991.121    24522008.558
       214.000         150.000
  21455030.251    -9353519.58049  -7267710.75947  21455030.169    21455039.950
       242.000         205.000
  22633611.609    -9926512.08849  -7709808.03246  22633610.940    22633621.722
       231.000         183.000
 02  5 27  0 25 30.0000000  0  5G21G14G31G25G11
  22141367.703     1582008.59349   1233666.06746  22141367.125    22141378.886
       232.000         186.000
  21107984.009     1917545.75449   1524238.91147  21107983.374    21107991.247
       243.000         210.000
  24533622.268     4435311.98149   3453542.71745  24533622.160    24533640.376
       216.000         155.000
  21441547.166    -9424374.20149  -7322922.05647  21441546.665    21441556.593
       242.000         206.000
  22618743.546   -10004643.15549  -7770689.26546  22618743.177    22618753.438
       231.000         182.000
 02  5 27  0 26  0.0000000  0  5G21G14G31G25G11
  22147562.379     1614561.84149   1259032.18946  22147561.867    22147573.497
       233.000         186.000
  21115485.148     1956966.83749   1554956.64147  21115484.557    21115493.076
       242.000         209.000
  24545280.573     4496572.07649   3501277.68545  24545279.929    24545296.605
       216.000         156.000
  21428148.082    -9494786.82049  -7377788.93647  21428147.701    21428157.569
       242.000         206.000
  22603954.409   -10082361.69549  -7831249.05746  22603953.634    22603964.006
       231.000         183.000
 02  5 27  0 26 30.0000000  0  5G21G14G31G25G11
  22153812.373     1647404.28649   1284623.65046  22153811.975    22153822.639
       233.000         185.000
  21123038.876     1996661.75949   1585887.74547  21123038.505    21123046.582
       243.000         209.000
  24556970.285     4558002.02249   3549144.98345  24556968.954    24556987.392
       214.000         155.000
  21414838.738    -9564726.99949  -7432287.68447  21414838.493    21414848.198
       243.000         206.000
  22589249.564   -10159637.37849  -7891463.75846  22589249.546    22589258.932
       232.000         183.000
 02  5 27  0 27  0.0000000  0  5G21G14G31G25G11
  22160114.200     1680521.41949   1310429.14546  22160114.042    22160124.985
       234.000         185.000
  21130641.569     2036613.59849   1617019.04247  21130641.171    21130649.129
       242.000         209.000
  24568688.610     4619583.56549   3597130.40245  24568687.805    24568704.853
       213.000         152.000
  21401616.662    -9634208.41049  -7486428.95447  21401616.309    21401626.161
       243.000         206.000
  22574625.661   -10236483.24049  -7951343.55146  22574625.574    22574635.454
       231.000         182.000
 02  5 27  0 27 30.0000000  0  5G21G14G31G25G11
  22166465.243     1713895.47449   1336434.84946  22166464.531    22166475.758
       233.000         185.000
  21138288.735     2076802.10449   1648334.76047  21138288.282    21138296.928
       242.000         209.000
  24580432.116     4681295.51049   3645217.43345  24580430.902    24580448.537
       211.000         152.000
  21388478.824    -9703247.80649  -7540225.79547  21388478.765    21388488.480
       242.000         206.000
  22560081.379   -10312915.20149  -8010900.82546  22560080.902    22560090.745
       231.000         182.000
 02  5 27  0 28  0.0000000  0  5G21G14G31G25G11
  22172864.997     1747527.75549   1362641.76646  22172864.760    22172875.915
       232.000         185.000
  21145981.644     2117226.32049   1679834.14747  21145981.435    21145989.349
       242.000         210.000
  24592199.359     4743135.69149   3693404.39145  24592199.038    24592217.630
       212.000         153.000
  21375425.645    -9771842.05049  -7593675.76847  21375425.606    21375434.976
       243.000         206.000
  22545615.984   -10388930.55049  -8070133.46146  22545616.288    22545625.161
       231.000         181.000
 02  5 27  0 28 30.0000000  0  5G21G14G31G25G11
  22179315.567     1781423.74349   1389054.16846  22179315.136    22179326.480
       233.000         185.000
  21153719.953     2157890.05049   1711520.16747  21153719.129    21153727.266
       243.000         209.000
  24603992.489     4805106.34949   3741693.03245  24603992.380    24604009.855
       213.000         154.000
  21362459.081    -9839984.22949  -7646773.47247  21362458.747    21362467.921
       244.000         207.000
  22531231.205   -10464521.71049  -8129035.56146  22531230.743    22531240.852
       230.000         182.000
 02  5 27  0 29  0.0000000  0  5G21G14G31G25G11
  22185814.305     1815573.93249   1415664.64546  22185813.629    22185824.950
       232.000         184.000
  21161500.901     2198780.81449   1743383.09747  21161500.371    21161508.668
       243.000         209.000
  24615809.068     4867194.06149   3790072.84045  24615808.064    24615825.494
       214.000         154.000
  21349576.266    -9907683.01949  -7699525.68347  21349576.048    21349585.142
       243.000         207.000
  22516925.617   -10539697.19149  -8187613.76046  22516924.920    22516935.572
       229.000         181.000
 02  5 27  0 29 30.0000000  0  5G21G14G31G25G11
  22192367.149     1850011.97849   1442499.43246  22192366.811    22192378.278
       231.000         184.000
  21169331.478     2239929.65649   1775447.13047  21169330.956    21169338.792
       243.000         210.000
  24627651.995     4929428.48949   3838566.99045  24627651.448    24627668.023
       212.000         153.000
  21336784.163    -9974903.99149  -7751905.57547  21336783.941    21336793.630
       243.000         207.000
  22502706.012   -10614422.15949  -8245840.92046  22502705.867    22502714.920
       230.000         181.000
 02  5 27  0 30  0.0000000  0  5G21G14G31G25G11
  22198970.887     1884712.20449   1469538.50946  22198970.112    22198981.786
       231.000         184.000
  21177205.597     2281308.85049   1807690.65847  21177204.986    21177213.006
       243.000         209.000
  24639517.228     4991780.58049   3887152.87445  24639516.691    24639532.883
       212.000         150.000
  21324078.683   -10041671.75949  -7803932.32147  21324078.612    21324088.025
       243.000         207.000
  22488567.694   -10688720.37249  -8303735.55246  22488566.848    22488576.641
       232.000         182.000
 02  5 27  0 30 30.0000000  0  5G21G14G31G25G11
  22205627.299     1919691.23249   1496794.83746  22205626.918    22205637.644
       230.000         183.000
  21185126.249     2322933.05249   1840125.10647  21185125.811    21185133.845
       242.000         209.000
  24651407.417     5054263.85649   3935840.90745  24651406.925    24651422.381
       209.000         149.000
  21311462.900   -10107968.23549  -7855591.82247  21311462.679    21311471.980
       243.000         207.000
  22474513.800   -10762573.35749  -8361283.25046  22474512.988    22474523.047
       232.000         183.000
 02  5 27  0 31  0.0000000  0  5G21G14G31G25G11
  22212332.017     1954928.04249   1524252.03546  22212331.460    22212343.070
       230.000         183.000
  21193089.302     2364778.81149   1872732.19547  21193088.808    21193097.299
       242.000         209.000
  24663315.860     5116853.48849   3984611.83245  24663315.770    24663335.699
       205.000         149.000
  21298932.784   -10173813.20549  -7906899.50147  21298932.540    21298942.105
       243.000         207.000
  22460540.838   -10836000.74349  -8418499.30646  22460540.428    22460549.503
       232.000         183.000
 02  5 27  0 31 30.0000000  0  5G21G14G31G25G11
  22219092.635     1990451.50149   1551932.59546  22219091.988    22219103.068
       231.000         183.000
  21201099.524     2406873.00849   1905532.86947  21201099.102    21201107.182
       242.000         208.000
  24675251.705     5179574.94349   4033485.49445  24675251.841    24675269.946
       205.000         149.000
  21286494.651   -10239176.42349  -7957831.79047  21286494.458    21286503.894
       243.000         208.000
  22446654.852   -10908972.04549  -8475359.98146  22446654.926    22446663.838
       231.000         182.000
 02  5 27  0 32  0.0000000  0  5G21G14G31G25G11
  22225907.000     2026259.78749   1579835.09646  22225906.311    22225917.517
       230.000         183.000
  21209156.329     2449211.16849   1938523.64647  21209155.879    21209163.821
       242.000         208.000
  24687213.101     5242422.78249   4082457.63245  24687211.665    24687230.916
       208.000         149.000
  21274147.891   -10304059.09749  -8008389.62647  21274147.521    21274157.059
       243.000         208.000
  22432855.572   -10981487.71349  -8531865.61846  22432855.436    22432864.406
       231.000         182.000
 02  5 27  0 32 30.0000000  0  5G21G14G31G25G11
  22232773.906     2062348.08049   1607955.78246  22232773.754    22232785.337
       230.000         183.000
  21217257.973     2491786.01449   1971698.85447  21217257.474    21217265.761
       242.000         208.000
  24699193.270     5305388.40749   4131521.53245  24699193.404    24699212.701
       201.000         145.000
  21261891.638   -10368465.17649  -8058576.09247  21261891.375    21261900.814
       243.000         208.000
  22419142.144   -11053551.17849  -8588018.88646  22419141.758    22419151.146
       232.000         183.000
 02  5 27  0 33  0.0000000  0  5G21G14G31G25G11
  22239687.667     2098680.69249   1636266.85546  22239687.424    22239698.787
       230.000         183.000
  21225397.459     2534559.91249   2005029.17847  21225396.813    21225405.192
       242.000         207.000
  24711191.960     5368432.87149   4180646.87945  24711192.001    24711210.324
       202.000         143.000
  21249719.698   -10432429.31849  -8108418.19047  21249719.133    21249728.465
       243.000         208.000
  22405508.544   -11125196.64749  -8643846.43946  22405508.229    22405517.385
       232.000         184.000
 02  5 27  0 33 30.0000000  0  5G21G14G31G25G11
  22246655.452     2135291.96749   1664795.05646  22246654.718    22246665.436
       231.000         183.000
  21233581.144     2577564.75149   2038539.44247  21233580.418    21233588.417
       242.000         207.000
  24723208.762     5431586.91849   4229857.62045  24723207.805    24723226.981
       204.000         144.000
  21237638.500   -10495915.75849  -8157888.05647  21237638.295    21237647.622
       243.000         209.000
  22391961.103   -11196388.09449  -8699320.21746  22391960.636    22391970.143
       232.000         185.000
 02  5 27  0 34  0.0000000  0  5G21G14G31G25G11
  22253673.896     2172176.67149   1693536.32746  22253673.365    22253684.304
       230.000         182.000
  21241807.356     2620793.54549   2072224.21747  21241806.916    21241814.920
       242.000         207.000
  24735246.037     5494842.09949   4279147.15245  24735244.513    24735264.717
       202.000         143.000
  21225647.402   -10558928.42949  -8206988.75047  21225647.233    21225656.621
       243.000         208.000
  22378499.674   -11267128.86149  -8754442.81146  22378498.896    22378508.783
       233.000         184.000
 02  5 27  0 34 30.0000000  0  5G21G14G31G25G11
  22260741.894     2209322.21549   1722480.85746  22260741.580    22260753.366
       229.000         182.000
  21250073.261     2664230.75049   2106071.39147  21250072.664    21250081.090
       242.000         208.000
  24747299.654     5558181.80149   4328502.53845  24747300.669    24747317.089
       205.000         143.000
  21213744.277   -10621479.36349  -8255729.65547  21213743.963    21213753.271
       243.000         208.000
  22365121.772   -11337430.97149  -8809223.60046  22365121.103    22365130.759
       233.000         185.000
 02  5 27  0 35  0.0000000  0  5G21G14G31G25G11
  22267859.698     2246721.53449   1751623.12946  22267858.903    22267869.686
       230.000         181.000
  21258376.784     2707867.40049   2140073.97547  21258376.186    21258384.353
       241.000         207.000
  24759367.162     5621595.73049   4377915.74945  24759366.277    24759386.135
       204.000         145.000
  21201927.823   -10683574.28149  -8304115.21947  21201927.878    21201936.945
       243.000         209.000
  22351826.034   -11407299.54449  -8863666.57346  22351825.169    22351834.902
       234.000         186.000
 02  5 27  0 35 30.0000000  0  5G21G14G31G25G11
  22275028.267     2284395.18249   1780979.17846  22275027.536    22275039.589
       229.000         180.000
  21266722.351     2751722.92149   2174247.10547  21266721.706    21266729.884
       241.000         206.000
  24771452.649     5685101.68649   4427400.71345  24771451.309    24771470.230
       204.000         144.000
  21190202.913   -10745190.94149  -8352128.11447  21190202.610    21190211.777
       244.000         208.000
  22338617.076   -11476711.71049  -8917753.90646  22338616.999    22338626.049
       234.000         186.000
 02  5 27  0 36  0.0000000  0  5G21G14G31G25G11
  22282249.439     2322340.94749   1810547.25446  22282248.933    22282259.916
       229.000         181.000
  21275108.318     2795791.90249   2208586.56847  21275107.756    21275116.251
       241.000         207.000
  24783553.266     5748693.40149   4476952.47545  24783552.158    24783571.657
       202.000         141.000
  21178568.042   -10806331.47749  -8399770.00347  21178567.673    21178577.087
       243.000         209.000
  22325494.826   -11545668.87349  -8971486.69146  22325494.900    22325504.001
       234.000         187.000
 02  5 27  0 36 30.0000000  0  5G21G14G31G25G11
  22289513.963     2360514.33549   1840292.70846  22289513.667    22289524.523
       230.000         181.000
  21283526.046     2840027.56149   2243055.91047  21283525.571    21283533.479
       241.000         206.000
  24795662.165     5812322.69549   4526533.51145  24795661.437    24795679.909
       200.000         141.000
  21167015.342   -10867039.37549  -8447074.77347  21167015.333    21167024.486
       243.000         209.000
  22312451.395   -11614214.31249  -9024898.65946  22312451.366    22312460.010
       235.000         186.000
 02  5 27  0 37  0.0000000  0  5G21G14G31G25G11
  22296831.438     2398970.02649   1870258.14346  22296831.251    22296842.274
       229.000         181.000
  21291985.872     2884483.25749   2277696.70447  21291984.997    21291993.274
       242.000         206.000
  24807788.527     5876041.37449   4576184.22545  24807787.689    24807805.959
       206.000         145.000
  21155556.185   -10927258.39349  -8493998.59847  21155556.074    21155565.258
       244.000         209.000
  22299496.122   -11682291.13149  -9077945.47346  22299495.854    22299505.723
       233.000         186.000
 02  5 27  0 37 30.0000000  0  5G21G14G31G25G11
  22304193.926     2437662.15249   1900407.80346  22304193.224    22304205.496
       228.000         180.000
  21300477.791     2929110.41549   2312471.10847  21300477.335    21300485.849
       242.000         205.000
  24819920.985     5939799.76649   4625865.86145  24819920.189    24819937.958
       206.000         143.000
  21144181.200   -10987034.02549  -8540576.92647  21144180.981    21144190.260
       244.000         209.000
  22286622.009   -11749944.39049  -9130662.23446  22286621.377    22286632.036
       234.000         186.000
 02  5 27  0 38  0.0000000  0  5G21G14G31G25G11
  22311604.126     2476602.41249   1930750.83346  22311603.482    22311615.897
       229.000         181.000
  21309004.627     2973918.36349   2347386.38247  21309004.122    21309012.300
       241.000         206.000
  24832061.073     6003605.89549   4675584.66545  24832061.184    24832078.450
       200.000         139.000
  21132892.838   -11046353.85049  -8586800.07747  21132892.556    21132901.899
       243.000         210.000
  22273832.059   -11817161.02149  -9183038.76546  22273831.795    22273840.271
       234.000         187.000
 02  5 27  0 38 30.0000000  0  5G21G14G31G25G11
  22319062.295     2515792.21149   1961288.29546  22319061.983    22319072.925
       229.000         180.000
  21317565.988     3018906.70449   2382442.21847  21317565.282    21317573.309
       242.000         205.000
  24844213.698     6067458.19849   4725339.56345  24844212.218    24844233.392
       207.000         143.000
  21121692.029   -11105214.89349  -8632665.73847  21121691.620    21121700.858
       244.000         210.000
  22261124.536   -11883937.85249  -9235072.60046  22261124.382    22261133.182
       235.000         187.000
 02  5 27  0 39  0.0000000  0  5G21G14G31G25G11
  22326565.464     2555223.45049   1992013.89346  22326564.975    22326576.162
       229.000         181.000
  21326159.120     3064065.07449   2417630.54647  21326158.448    21326166.858
       242.000         206.000
  24856372.031     6131344.96749   4775121.21645  24856372.222    24856389.049
       210.000         144.000
  21110576.873   -11163624.79649  -8678179.85947  21110576.472    21110585.771
       244.000         210.000
  22248499.228   -11950281.59849  -9286768.96446  22248499.006    22248508.464
       234.000         187.000
 02  5 27  0 39 30.0000000  0  5G21G14G31G25G11
  22334114.272     2594890.59749   2022923.30846  22334113.392    22334125.197
       230.000         180.000
  21334783.650     3109385.82149   2452945.39947  21334782.979    21334791.129
       242.000         206.000
  24868533.632     6195257.13349   4824922.67045  24868532.028    24868553.424
       206.000         141.000
  21099546.753   -11221587.89949  -8723345.82447  21099546.560    21099555.490
       244.000         210.000
  22235956.026   -12016196.61949  -9338131.24847  22235955.797    22235965.200
       235.000         188.000
 02  5 27  0 40  0.0000000  0  5G21G14G31G25G11
  22341708.290     2634798.52249   2054020.34146  22341707.584    22341718.548
       229.000         181.000
  21343439.014     3154872.08449   2488389.22547  21343438.457    21343446.791
       241.000         206.000
  24880699.885     6259196.54149   4874745.39745  24880700.653    24880716.381
       209.000         137.000
  21088602.845   -11279097.98449  -8768158.78647  21088602.721    21088611.649
       244.000         210.000
  22223496.221   -12081675.97449  -9389154.06746  22223495.394    22223504.798
       235.000         187.000
 02  5 27  0 40 30.0000000  0  5G21G14G31G25G11
  22349353.186     2674974.22249   2085326.03146  22349352.427    22349363.897
       228.000         179.000
  21352131.216     3200548.99349   2523981.60247  21352130.689    21352138.708
       241.000         206.000
  24892878.278     6323187.15349   4924607.98345  24892877.036    24892894.843
       210.000         139.000
  21077750.697   -11336127.17649  -8812597.02947  21077750.379    21077759.400
       244.000         211.000
  22211123.692   -12146691.23249  -9439815.23446  22211123.264    22211133.235
       233.000         187.000
 02  5 27  0 41  0.0000000  0  5G21G14G31G25G11
  22357045.772     2715395.02749   2116822.69846  22357044.669    22357055.577
       228.000         179.000
  21360854.611     3246391.41949   2559702.95047  21360854.259    21360862.527
       241.000         205.000
  24905059.571     6387202.45649   4974489.84445  24905058.483    24905078.264
       212.000         142.000
  21066985.419   -11392697.74649  -8856677.90247  21066985.192    21066994.296
       244.000         211.000
  22198835.565   -12211263.99449  -9490131.59246  22198835.675    22198845.010
       234.000         187.000
 02  5 27  0 41 30.0000000  0  5G21G14G31G25G11
  22364783.766     2756061.95749   2148511.14646  22364783.291    22364794.949
       227.000         178.000
  21369609.393     3292397.96449   2595552.18347  21369608.618    21369617.046
       241.000         205.000
  24917245.806     6451239.75949   5024388.82845  24917245.356    24917264.940
       213.000         142.000
  21056307.969   -11448808.14849  -8900400.21447  21056307.633    21056316.897
       245.000         211.000
  22186632.820   -12275392.16849  -9540101.52747  22186632.215    22186641.217
       235.000         188.000
 02  5 27  0 42  0.0000000  0  5G21G14G31G25G11
  22372571.925     2796987.44049   2180401.07446  22372571.105    22372581.762
       228.000         177.000
  21378397.356     3338579.12449   2631537.47347  21378397.045    21378405.333
       241.000         205.000
  24929438.920     6515308.33849   5074312.16445  24929438.955    24929457.102
       212.000         142.000
  21045720.684   -11504444.60049  -8943753.20747  21045720.489    21045729.510
       244.000         211.000
  22174517.066   -12339061.79849  -9589714.15947  22174516.402    22174525.546
       236.000         189.000
 02  5 27  0 42 30.0000000  0  5G21G14G31G25G11
  22380408.296     2838166.90949   2212488.90046  22380407.127    22380419.503
       227.000         176.000
  21387217.405     3384928.56949   2667653.89647  21387216.651    21387225.172
       241.000         204.000
  24941635.794     6579400.43249   5124253.81045  24941634.307    24941653.593
       213.000         140.000
  21035222.829   -11559611.03149  -8986739.95047  21035222.380    21035231.527
       244.000         211.000
  22162487.167   -12402275.86949  -9638971.79547  22162486.871    22162496.318
       235.000         189.000
 02  5 27  0 43  0.0000000  0  4G21G14G25G11
  22388290.514     2879587.26849   2244764.42946  22388289.686    22388301.089
       227.000         177.000
  21396066.847     3431431.69149   2703890.06347  21396066.509    21396074.185
       241.000         204.000
  21024812.024   -11614319.06049  -9029369.50147  21024811.598    21024820.632
       244.000         211.000
  22150542.486   -12465045.52549  -9687883.14047  22150542.256    22150551.881
       236.000         190.000
 02  5 27  0 43 30.0000000  0  5G21G14G25G20G11
  22396220.967     2921259.21749   2277235.99946  22396219.921    22396231.578
       228.000         178.000
  21404947.178     3478097.17849   2740252.75447  21404946.533    21404954.719
       241.000         204.000
  21014490.712   -11668557.58149  -9071633.20147  21014490.427    21014499.249
       244.000         211.000
  24802887.192    -2314145.39559  -1785690.36655  24802886.694    24802900.509
       203.000         140.000
  22138684.663   -12527359.18549  -9736439.17147  22138684.218    22138693.666
       236.000         188.000
 02  5 27  0 44  0.0000000  0  5G21G14G25G20G11
  22404194.827     2963164.34749   2309889.27146  22404194.412    22404205.857
       227.000         178.000
  21413853.906     3524904.55349   2776726.00847  21413853.589    21413861.982
       240.000         204.000
  21004255.505   -11722343.66149  -9113544.35247  21004255.375    21004264.394
       245.000         212.000
  24784311.322    -2411764.35949  -1861756.94945  24784309.999    24784323.877
       207.000         141.000
  22126910.210   -12589233.58449  -9784652.92147  22126910.017    22126919.120
       235.000         188.000
 02  5 27  0 44 30.0000000  0  5G21G14G25G20G11
  22412219.099     3005333.77949   2342748.48946  22412218.527    22412230.020
       227.000         178.000
  21422793.608     3571882.77949   2813332.39047  21422793.143    21422801.767
       240.000         204.000
  20994112.651   -11775645.85049  -9155078.44847  20994112.193    20994121.151
       245.000         212.000
  24765725.490    -2509433.96049  -1937862.96145  24765723.948    24765738.389
       210.000         142.000
  22115225.477   -12650636.46649  -9832499.25747  22115225.048    22115234.762
       236.000         189.000
 02  5 27  0 45  0.0000000  0  5G21G14G25G20G11
  22420293.009     3047762.75749   2375809.95646  22420292.350    22420303.972
       227.000         177.000
  21431764.647     3619024.93049   2850066.50747  21431764.077    21431772.482
       241.000         204.000
  20984060.692   -11828467.90649  -9196238.41347  20984060.489    20984069.419
       245.000         212.000
  24747128.510    -2607158.62249  -2014011.90945  24747128.025    24747142.588
       211.000         143.000
  22103630.203   -12711571.25549  -9879980.84647  22103630.274    22103639.364
       237.000         190.000
 02  5 27  0 45 30.0000000  0  5G21G14G25G20G11
  22428417.519     3090456.45349   2409077.69046  22428416.620    22428429.185
       227.000         178.000
  21440767.503     3666334.29549   2886930.92247  21440766.965    21440775.075
       241.000         203.000
  20974101.383   -11880804.41049  -9237020.02147  20974100.983    20974110.132
       245.000         212.000
  24728522.397    -2704933.11649  -2090199.67745  24728520.910    24728535.853
       212.000         142.000
  22092125.099   -12772031.36449  -9927092.55147  22092124.921    22092133.560
       236.000         190.000
 02  5 27  0 46  0.0000000  0  5G21G14G25G20G11
  22436594.155     3133422.97849   2442558.01946  22436593.280    22436604.840
       226.000         178.000
  21449803.264     3713817.38949   2923930.70447  21449802.680    21449810.845
       241.000         203.000
  20964236.008   -11932646.07449  -9277416.04447  20964235.776    20964244.820
       245.000         212.000
  24709909.087    -2802748.63849  -2166419.38245  24709909.247    24709922.962
       215.000         144.000
  22080711.959   -12832007.18349  -9973826.90247  22080711.634    22080720.487
       237.000         190.000
 02  5 27  0 46 30.0000000  0  5G21G14G25G20G11
  22444821.791     3176660.37349   2476249.42046  22444821.386    22444833.484
       227.000         178.000
  21458870.979     3761470.10049   2961062.66047  21458870.660    21458878.989
       240.000         203.000
  20954464.931   -11983993.96149  -9317427.31147  20954464.608    20954473.567
       245.000         212.000
  24691287.485    -2900606.68449  -2242672.26745  24691286.971    24691299.069
       215.000         141.000
  22069390.548   -12891499.54549 -10020184.53447  22069390.269    22069399.569
       237.000         191.000
 02  5 27  0 47  0.0000000  0  5G21G14G25G20G11
  22453099.341     3220158.76549   2510144.20246  22453098.954    22453110.202
       227.000         176.000
  21467969.111     3809280.70249   2998317.64347  21467968.706    21467977.079
       240.000         202.000
  20944785.828   -12034857.68649  -9357061.30247  20944785.617    20944794.478
       245.000         212.000
  24672655.280    -2998517.18649  -2318966.03745  24672655.810    24672665.451
       213.000         138.000
  22058160.150   -12950517.00749 -10066172.10347  22058159.540    22058168.918
       236.000         191.000
 02  5 27  0 47 30.0000000  0  5G21G14G25G20G11
  22461426.629     3263917.32049   2544241.70246  22461426.167    22461437.236
       226.000         176.000
  21477096.690     3857246.57749   3035693.61847  21477096.145    21477104.482
       240.000         203.000
  20935199.028   -12085237.05149  -9396317.87448  20935198.794    20935207.632
       245.000         213.000
  24654013.321    -3096480.23449  -2395300.69645  24654012.348    24654024.339
       211.000         138.000
  22047019.945   -13009059.01649 -10111789.19747  22047019.556    22047028.747
       237.000         191.000
 02  5 27  0 48  0.0000000  0  5G21G14G25G20G11
  22469802.742     3307936.68749   2578542.44746  22469802.576    22469814.376
       226.000         176.000
  21486253.755     3905366.71349   3073189.80747  21486253.392    21486261.512
       240.000         202.000
  20925704.264   -12135130.34849  -9435195.69447  20925704.126    20925713.172
       245.000         212.000
  24635361.874    -3194494.59349  -2471675.31145  24635362.589    24635374.992
       209.000         139.000
  22035970.390   -13067123.26149 -10157034.01147  22035970.442    22035979.183
       236.000         190.000
 02  5 27  0 48 30.0000000  0  5G21G14G25G20G11
  22478231.800     3352229.31949   2613056.10946  22478231.116    22478242.684
       227.000         175.000
  21495442.407     3953651.82349   3110814.54647  21495442.047    21495449.800
       241.000         203.000
  20916304.949   -12184524.40649  -9473684.50147  20916304.779    20916313.556
       245.000         212.000
  24616703.138    -3292547.27349  -2548079.78945  24616702.092    24616714.344
       207.000         138.000
  22025014.959   -13124695.84849 -10201895.71747  22025014.622    22025023.740
       237.000         191.000
 02  5 27  0 49  0.0000000  0  5G21G14G25G20G11
  22486710.195     3396784.02749   2647773.99246  22486709.146    22486722.149
       227.000         176.000
  21504659.349     4002088.37749   3148557.29747  21504658.709    21504667.116
       241.000         202.000
  20906998.569   -12233430.13649  -9511792.79047  20906998.271    20907006.774
       245.000         212.000
  24598034.511    -3390649.76849  -2624523.05245  24598033.878    24598048.655
       206.000         139.000
  22014150.834   -13181787.30549 -10246382.51947  22014150.482    22014159.268
       236.000         191.000
 02  5 27  0 49 30.0000000  0  5G21G14G25G20G11
  22495233.166     3441576.25149   2682676.94546  22495233.844    22495245.139
       225.000         176.000
  21513900.390     4050650.39049   3186397.80747  21513899.924    21513908.278
       241.000         203.000
  20897780.329   -12281871.18049  -9549538.98548  20897780.354    20897788.810
       245.000         213.000
  24579351.810    -3488825.65349  -2701023.51645  24579350.352    24579364.452
       204.000         139.000
  22003373.461   -13238420.67949 -10290512.35747  22003373.096    22003382.424
       236.000         190.000
 02  5 27  0 50  0.0000000  0  5G21G14G25G20G11
  22503806.720     3486625.37649   2717780.08746  22503805.859    22503817.764
       227.000         176.000
  21523168.932     4099355.46649   3224349.79647  21523168.069    21523176.665
       241.000         202.000
  20888654.686   -12329827.29549  -9586907.31948  20888654.513    20888663.104
       245.000         213.000
  24560659.192    -3587055.16549  -2777565.79745  24560658.818    24560671.208
       202.000         139.000
  21992687.708   -13294575.04849 -10334268.95447  21992687.211    21992696.259
       236.000         191.000
 02  5 27  0 50 30.0000000  0  5G21G14G25G20G11
  22512430.440     3531944.39449   2753093.52346  22512430.499    22512441.647
       226.000         175.000
  21532466.444     4148214.59649   3262421.82447  21532465.820    21532474.284
       241.000         202.000
  20879623.806   -12377284.97249  -9623887.25648  20879623.357    20879632.339
       245.000         213.000
  24541959.256    -3685324.92049  -2854139.36445  24541958.091    24541972.786
       204.000         140.000
  21982095.929   -13350236.25049 -10377641.26447  21982095.492    21982104.194
       237.000         191.000
 02  5 27  0 51  0.0000000  0  5G21G14G25G20G11
  22521105.204     3577527.29049   2788612.59246  22521104.300    22521115.901
       226.000         175.000
  21541791.978     4197220.35649   3300608.11547  21541791.315    21541799.709
       240.000         202.000
  20870686.277   -12424249.33249  -9660482.79448  20870686.114    20870695.131
       244.000         213.000
  24523249.543    -3783640.16749  -2930748.43445  24523248.983    24523264.013
       205.000         140.000
  21971596.844   -13405408.77249 -10420632.77847  21971597.030    21971605.701
       236.000         191.000
 02  5 27  0 51 30.0000000  0  5G21G14G25G20G11
  22529827.028     3623362.84949   2824328.53246  22529826.394    22529838.222
       227.000         176.000
  21551142.551     4246359.61949   3338898.44247  21551142.098    21551150.367
       240.000         201.000
  20861841.066   -12470731.17849  -9696702.34448  20861840.860    20861849.887
       245.000         213.000
  24504529.907    -3882011.55649  -3007401.26845  24504529.194    24504542.440
       208.000         144.000
  21961188.434   -13460102.99549 -10463251.58147  21961188.375    21961197.220
       236.000         191.000
 02  5 27  0 52  0.0000000  0  5G21G14G25G20G11
  22538598.130     3669453.97649   2860243.61746  22538597.389    22538610.131
       226.000         175.000
  21560519.284     4295633.60549   3377293.74547  21560518.979    21560526.826
       240.000         200.000
  20853088.559   -12516727.10449  -9732543.26048  20853088.438    20853096.991
       246.000         213.000
  24485799.899    -3980435.92749  -3084095.37245  24485799.762    24485813.368
       208.000         147.000
  21950872.418   -13514314.63549 -10505494.35747  21950872.404    21950881.179
       236.000         191.000
 02  5 27  0 52 30.0000000  0  5G21G14G25G20G11
  22547422.898     3715831.64249   2896381.98946  22547422.746    22547434.708
       224.000         174.000
  21569926.329     4345071.19249   3415816.53147  21569926.144    21569934.665
       238.000         200.000
  20844434.391   -12562205.58649  -9767980.96748  20844433.970    20844442.583
       246.000         214.000
  24467066.023    -4078882.03249  -3160806.42045  24467065.797    24467078.921
       209.000         150.000
  21940653.861   -13568011.56749 -10547336.04647  21940653.645    21940662.872
       236.000         191.000
 02  5 27  0 53  0.0000000  0  5G21G14G25G20G11
  22556299.499     3762476.25749   2932728.37246  22556299.439    22556310.999
       225.000         174.000
  21579361.469     4394651.20749   3454450.30847  21579361.285    21579369.709
       239.000         200.000
  20835874.747   -12607185.43349  -9803030.12948  20835874.574    20835883.046
       245.000         214.000
  24448324.633    -4177368.59849  -3237549.00445  24448324.105    24448338.286
       208.000         150.000
  21930530.493   -13621212.13049 -10588790.94747  21930530.249    21930538.966
       237.000         191.000
 02  5 27  0 53 30.0000000  0  5G21G14G25G20G11
  22565221.405     3809358.25649   2969259.73046  22565220.634    22565232.293
       225.000         173.000
  21588817.824     4444342.91949   3493171.11747  21588817.341    21588825.443
       239.000         200.000
  20827404.822   -12651695.29749  -9837713.07348  20827404.511    20827412.896
       245.000         213.000
  24429570.240    -4275924.35249  -3314345.49845  24429569.713    24429583.370
       206.000         152.000
  21920496.315   -13673944.02149 -10629880.65447  21920495.737    21920504.265
       238.000         192.000
 02  5 27  0 54  0.0000000  0  5G21G14G25G20G11
  22574184.997     3856465.57549   3005966.65146  22574184.427    22574197.786
       224.000         175.000
  21598292.415     4494131.98549   3531967.78647  21598292.022    21598300.192
       239.000         199.000
  20819021.802   -12695747.21749  -9872039.17448  20819021.386    20819030.365
       245.000         214.000
  24410800.092    -4374561.19849  -3391205.19945  24410799.363    24410813.486
       206.000         152.000
  21910548.452   -13726218.82049 -10670614.17747  21910548.385    21910556.712
       237.000         192.000
 02  5 27  0 54 30.0000000  0  5G21G14G25G20G11
  22583203.678     3903856.03149   3042894.20746  22583203.011    22583215.351
       226.000         175.000
  21607795.656     4544074.82249   3570884.28047  21607795.304    21607803.888
       238.000         199.000
  20810737.241   -12739282.40049  -9905962.62748  20810737.146    20810745.807
       245.000         214.000
  24392026.312    -4473220.24949  -3468082.20445  24392026.266    24392038.703
       208.000         152.000
  21900698.581   -13777977.20349 -10710945.30047  21900698.565    21900707.747
       237.000         192.000
 02  5 27  0 55  0.0000000  0  5G21G14G25G20G11
  22592270.934     3951505.41349   3080023.52146  22592269.997    22592282.272
       225.000         173.000
  21617323.951     4594145.78449   3609900.61147  21617323.454    21617332.254
       238.000         199.000
  20802546.816   -12782324.06549  -9939501.51948  20802546.654    20802555.124
       245.000         214.000
  24373243.371    -4571925.03449  -3544994.85245  24373242.974    24373256.218
       209.000         153.000
  21890943.190   -13829242.07649 -10750891.86347  21890942.949    21890951.806
       237.000         192.000
 02  5 27  0 55 30.0000000  0  5G21G14G25G20G11
  22601384.519     3999398.09349   3117342.42946  22601384.140    22601396.662
       225.000         173.000
  21626873.228     4644327.35149   3649003.13147  21626872.673    21626881.293
       238.000         199.000
  20794447.241   -12824888.41149  -9972668.47348  20794446.833    20794455.158
       246.000         214.000
  24354447.762    -4670691.01549  -3621955.21045  24354447.350    24354460.323
       207.000         152.000
  21881279.051   -13880028.27849 -10790465.43647  21881278.904    21881287.502
       236.000         191.000
 02  5 27  0 56  0.0000000  0  5G21G14G25G20G11
  22610545.614     4047539.58249   3154855.21446  22610544.924    22610557.109
       224.000         172.000
  21636444.349     4694623.69149   3688195.08447  21636443.964    21636452.532
       238.000         199.000
  20786439.150   -12866968.47449 -10005458.06448  20786439.077    20786447.419
       245.000         213.000
  24335642.567    -4769511.38749  -3698957.91445  24335641.876    24335655.929
       206.000         151.000
  21871706.983   -13930328.64649 -10829660.43947  21871706.848    21871715.360
       236.000         193.000
 02  5 27  0 56 30.0000000  0  5G21G14G25G20G11
  22619762.441     4095971.75649   3192594.49646  22619761.322    22619773.951
       224.000         171.000
  21646045.015     4745074.84649   3727507.66947  21646044.171    21646052.727
       239.000         200.000
  20778531.738   -12908522.46149 -10037837.73148  20778531.392    20778540.047
       245.000         214.000
  24316836.225    -4868343.99649  -3775970.16445  24316836.024    24316848.856
       209.000         151.000
  21862236.045   -13980100.50349 -10868443.61647  21862235.479    21862244.443
       237.000         192.000
 02  5 27  0 57  0.0000000  0  5G21G14G25G20G11
  22629019.538     4144621.20749   3230503.09546  22629018.880    22629030.905
       224.000         173.000
  21655660.652     4795606.25049   3766882.78747  21655660.272    21655668.719
       239.000         200.000
  20770710.701   -12949622.67349 -10069863.80648  20770710.408    20770719.065
       245.000         214.000
  24298013.201    -4967261.14949  -3853048.29445  24298012.193    24298024.869
       209.000         149.000
  21852851.532   -14029415.48249 -10906870.78847  21852850.788    21852859.824
       237.000         192.000
 02  5 27  0 57 30.0000000  0  5G21G14G25G20G11
  22638320.950     4193499.42449   3268589.96646  22638320.210    22638332.365
       224.000         172.000
  21665293.723     4846227.69849   3806328.07147  21665293.162    21665301.661
       239.000         200.000
  20762978.302   -12990257.25949 -10101527.05648  20762978.011    20762986.241
       246.000         214.000
  24279175.524    -5066250.70749  -3930182.84245  24279174.047    24279186.854
       207.000         146.000
  21843556.448   -14078261.17649 -10944932.28747  21843555.878    21843564.507
       236.000         192.000
 02  5 27  0 58  0.0000000  0  5G21G14G25G20G11
  22647669.552     4242628.17949   3306872.04746  22647669.614    22647681.502
       222.000         172.000
  21674947.373     4896959.24249   3845859.14247  21674947.055    21674955.342
       239.000         199.000
  20755338.451   -13030404.04249 -10132810.19948  20755338.207    20755346.413
       246.000         214.000
  24260329.028    -5165290.26649  -4007356.35545  24260328.623    24260341.081
       207.000         145.000
  21834354.299   -14126614.78849 -10982610.34747  21834354.256    21834363.401
       236.000         192.000
 02  5 27  0 58 30.0000000  0  5G21G14G25G20G11
  22657060.847     4291977.44349   3345325.93946  22657060.239    22657072.112
       223.000         170.000
  21684616.539     4947769.49849   3885451.54847  21684615.891    21684624.790
       239.000         199.000
  20747785.806   -13070092.43149 -10163736.15248  20747785.706    20747794.106
       245.000         214.000
  24241466.714    -5264409.04949  -4084591.58445  24241466.155    24241477.724
       207.000         146.000
  21825241.364   -14174505.40849 -11019927.63247  21825241.242    21825249.784
       237.000         193.000
 02  5 27  0 59  0.0000000  0  5G21G14G25G20G11
  22666497.260     4341567.84949   3383967.73846  22666497.281    22666509.531
       223.000         170.000
  21694303.975     4998677.65549   3925120.24047  21694303.631    21694311.981
       238.000         199.000
  20740324.769   -13109301.34349 -10194288.48048  20740324.547    20740332.931
       245.000         214.000
  24222593.905    -5363585.36449  -4161871.63345  24222592.526    24222606.196
       208.000         146.000
  21816221.051   -14221910.78349 -11056866.81847  21816220.784    21816228.770
       238.000         193.000
 02  5 27  0 59 30.0000000  0  5G21G14G25G20G11
  22675982.792     4391412.48849   3422807.64046  22675982.030    22675995.169
       223.000         171.000
  21704012.228     5049694.60349   3964873.69947  21704011.729    21704020.044
       238.000         198.000
  20732956.967   -13148017.97949 -10224457.22548  20732956.726    20732965.167
       245.000         214.000
  24203712.480    -5462806.17249  -4239186.35845  24203711.475    24203725.476
       211.000         147.000
  21807294.855   -14268817.57249 -11093417.50047  21807294.331    21807303.120
       238.000         194.000
 02  5 27  1  0  0.0000000  0  5G21G14G25G20G11
  22685516.873     4441513.41249   3461847.23746  22685516.607    22685528.446
       225.000         171.000
  21713741.170     5100821.57249   4004712.88647  21713740.955    21713749.567
       237.000         197.000
  20725683.834   -13186238.84849 -10254239.65748  20725683.686    20725692.099
       246.000         215.000
  24184824.360    -5562067.80349  -4316532.91845  24184823.142    24184835.225
       212.000         152.000
  21798463.565   -14315222.02049 -11129576.74447  21798463.438    21798472.243
       237.000         194.000
 02  5 27  1  0 30.0000000  0  5G21G14G25G20G11
  22695100.483     4491876.67149   3501091.24246  22695099.969    22695112.082
       223.000         171.000
  21723492.043     5152063.09949   4044641.32447  21723491.523    21723499.867
       237.000         196.000
  20718506.108   -13223958.03549 -10283631.16748  20718506.011    20718514.376
       246.000         215.000
  24165928.739    -5661363.48349  -4393906.01445  24165927.931    24165941.383
       214.000         154.000
  21789730.076   -14361116.97449 -11165338.97747  21789729.775    21789738.472
       238.000         193.000
 02  5 27  1  1  0.0000000  0  6G21G14G25G30G20G11
  22704727.520     4542464.53849   3540510.27646  22704726.453    22704739.083
       226.000         170.000
  21733257.157     5203380.11849   4084628.60247  21733256.924    21733265.616
       237.000         196.000
  20711416.576   -13261212.85049 -10312660.82948  20711416.401    20711424.767
       245.000         214.000
  24400210.992    -3598597.69559  -2514956.64255  24400212.498    24400224.497
       202.000         147.000
  24147019.619    -5760730.09449  -4471334.37245  24147019.639    24147031.755
       215.000         155.000
  21781087.119   -14406539.05549 -11200732.74647  21781086.568    21781094.514
       238.000         194.000
 02  5 27  1  1 30.0000000  0  6G21G14G25G30G20G11
  22714402.380     4593306.31849   3580127.14146  22714401.570    22714414.316
       225.000         170.000
  21743042.879     5254800.29649   4124696.25447  21743042.213    21743050.458
       237.000         196.000
  20704421.332   -13297973.30649 -10341305.28248  20704421.159    20704429.310
       246.000         214.000
  24394021.158    -3631129.09649  -2540305.65145  24394021.410    24394035.233
       203.000         142.000
  24128103.106    -5860137.62149  -4548794.61045  24128102.249    24128114.679
       215.000         155.000
  21772539.319   -14451457.96049 -11235734.43547  21772539.091    21772547.278
       238.000         195.000
 02  5 27  1  2  0.0000000  0  6G21G14G25G30G20G11
  22724124.359     4644397.44349   3619938.31946  22724123.120    22724136.295
       224.000         169.000
  21752845.670     5306317.82949   4164839.77147  21752845.169    21752853.702
       237.000         195.000
  20697519.100   -13334243.42649 -10369567.65548  20697519.076    20697527.333
       245.000         214.000
  24387910.987    -3663242.09249  -2565328.62345  24387910.533    24387922.173
       202.000         140.000
  24109178.001    -5959589.49049  -4626289.40745  24109176.705    24109189.789
       218.000         156.000
  21764086.378   -14495877.19449 -11270346.77347  21764086.122    21764094.309
       238.000         194.000
 02  5 27  1  2 30.0000000  0  6G21G14G25G30G20G11
  22733894.879     4695740.83349   3659946.04446  22733895.351    22733906.357
       223.000         169.000
  21762668.148     5357934.13249   4205060.23447  21762667.605    21762675.960
       235.000         195.000
  20690710.929   -13370020.22749 -10397445.62948  20690710.908    20690719.363
       245.000         215.000
  24381876.999    -3694932.07549  -2590022.00945  24381879.502    24381892.026
       202.000         141.000
  24090244.270    -6059081.86549  -4703815.76545  24090243.617    24090256.174
       215.000         154.000
  21755729.073   -14539792.68249 -11304566.58347  21755729.028    21755737.183
       238.000         194.000
 02  5 27  1  3  0.0000000  0  6G21G14G25G30G20G11
  22743712.915     4747334.55949   3700148.85646  22743713.244    22743725.067
       222.000         170.000
  21772508.428     5409646.08249   4245355.23747  21772508.072    21772516.898
       235.000         195.000
  20683996.704   -13405305.10249 -10424940.27448  20683996.425    20684004.913
       247.000         215.000
  24375929.585    -3726199.16649  -2614385.92645  24375930.344    24375943.803
       206.000         146.000
  24071303.799    -6158615.78649  -4781374.51545  24071303.134    24071316.024
       218.000         155.000
  21747468.175   -14583205.25849 -11338394.51047  21747467.711    21747476.237
       237.000         194.000
 02  5 27  1  3 30.0000000  0  6G21G14G25G30G20G11
  22753579.709     4799182.51049   3740549.74846  22753578.701    22753590.458
       222.000         168.000
  21782368.564     5461456.16849   4285726.69647  21782367.619    21782376.100
       238.000         195.000
  20677376.628   -13440093.83849 -10452048.32348  20677376.283    20677384.727
       247.000         215.000
  24370062.600    -3757038.39549  -2638416.40045  24370061.282    24370073.906
       208.000         149.000
  24052356.762    -6258186.47449  -4858961.92245  24052355.778    24052367.576
       218.000         157.000
  21739303.503   -14626110.19049 -11371826.87547  21739303.162    21739312.119
       237.000         194.000
 02  5 27  1  4  0.0000000  0  6G21G14G25G30G20G11
  22763496.877     4851302.01649   3781162.24046  22763497.045    22763509.710
       221.000         168.000
  21792248.727     5513379.99749   4326186.79247  21792248.221    21792256.693
       237.000         195.000
  20670853.961   -13474369.24449 -10478756.38148  20670853.815    20670862.281
       246.000         215.000
  24364276.327    -3787430.86849  -2662098.76645  24364277.516    24364291.649
       206.000         150.000
  24033405.019    -6357775.96349  -4936563.97045  24033404.494    24033416.348
       217.000         157.000
  21731239.159   -14668489.38049 -11404849.56847  21731238.911    21731247.077
       238.000         195.000
 02  5 27  1  4 30.0000000  0  6G21G14G25G30G20G11
  22773463.563     4903675.84549   3821972.91646  22773463.360    22773474.822
       222.000         167.000
  21802147.880     5565399.38849   4366721.34247  21802147.390    21802155.951
       238.000         195.000
  20664426.177   -13508147.78849 -10505077.27548  20664425.974    20664434.319
       247.000         215.000
  24358575.942    -3817391.77149  -2685444.84645  24358577.176    24358589.947
       206.000         150.000
  24014446.524    -6457400.30849  -5014193.18645  24014446.256    24014458.595
       216.000         154.000
  21723271.525   -14710358.84749 -11437475.08147  21723271.063    21723279.642
       238.000         195.000
 02  5 27  1  5  0.0000000  0  6G21G14G25G30G20G11
  22783479.518     4956307.98349   3862984.87146  22783479.295    22783490.633
       221.000         167.000
  21812064.772     5617516.88149   4407332.33847  21812064.517    21812073.379
       235.000         194.000
  20658093.709   -13541425.18049 -10531007.66148  20658093.372    20658101.741
       247.000         215.000
  24352959.911    -3846915.64449  -2708450.38545  24352958.410    24352970.530
       208.000         147.000
  23995482.809    -6557054.25849  -5091845.49745  23995482.555    23995493.674
       212.000         151.000
  21715402.142   -14751713.44949 -11469699.40647  21715401.952    21715409.878
       238.000         195.000
 02  5 27  1  5 30.0000000  0  6G21G14G25G30G20G11
  22793549.940     5009227.33849   3904220.63746  22793549.037    22793561.711
       220.000         166.000
  21822007.079     5669760.88149   4448041.90947  21822006.781    21822015.036
       236.000         194.000
  20651862.119   -13574171.47549 -10556524.20048  20651861.873    20651870.166
       247.000         215.000
  24347427.023    -3875971.39349  -2731091.14645  24347428.467    24347441.606
       203.000         141.000
  23976518.582    -6656707.34149  -5169497.13145  23976517.886    23976529.950
       208.000         147.000
  21707635.854   -14792522.66449 -11501498.74647  21707635.680    21707644.734
       237.000         194.000
 02  5 27  1  6  0.0000000  0  6G21G14G25G30G20G11
  22803666.891     5062393.49049   3945648.70646  22803666.583    22803679.323
       221.000         166.000
  21831964.729     5722089.34149   4488817.29847  21831964.278    21831972.742
       236.000         194.000
  20645724.302   -13606427.03749 -10581658.35148  20645723.971    20645732.160
       247.000         215.000
  24341978.385    -3904598.05749  -2753397.53545  24341979.753    24341994.579
       199.000         141.000
  23957548.430    -6756399.30749  -5247179.05245  23957547.653    23957559.546
       209.000         144.000
  21699966.415   -14832826.41749 -11532904.22447  21699966.115    21699974.726
       237.000         195.000
 02  5 27  1  6 30.0000000  0  6G21G14G25G30G20G11
  22813830.393     5115800.98549   3987264.82946  22813828.881    22813842.582
       220.000         166.000
  21841937.465     5774495.45049   4529653.18347  21841936.895    21841945.219
       236.000         194.000
  20639678.599   -13638197.21349 -10606414.28248  20639678.312    20639686.529
       247.000         215.000
  24336617.353    -3932799.82349  -2775372.84645  24336615.600    24336625.707
       207.000         142.000
  23938569.376    -6856134.53349  -5324894.67145  23938568.838    23938579.818
       202.000         142.000
  21692392.392   -14872629.25949 -11563919.38947  21692392.378    21692400.526
       238.000         195.000
 02  5 27  1  7  0.0000000  0  6G21G14G25G30G20G11
  22824040.535     5169454.47849   4029072.63946  22824039.928    22824052.581
       220.000         167.000
  21851924.764     5826982.35549   4570552.02847  21851924.636    21851933.766
       235.000         194.000
  20633725.831   -13669477.59949 -10630788.56048  20633725.882    20633734.060
       247.000         216.000
  24331329.601    -3960570.57249  -2797012.30045  24331330.333    24331342.349
       208.000         144.000
  23919581.898    -6955907.78449  -5402639.92045  23919582.762    23919595.151
       202.000         141.000
  21684914.522   -14911925.95549 -11594540.14747  21684914.040    21684922.660
       239.000         195.000
 02  5 27  1  7 30.0000000  0  6G21G14G25G30G20G11
  22834299.116     5223364.64449   4071080.46046  22834298.606    22834311.013
       220.000         165.000
  21861930.646     5879559.35349   4611521.07147  21861929.797    21861938.756
       235.000         193.000
  20627868.735   -13700257.57349 -10654772.90548  20627868.546    20627876.801
       247.000         216.000
  24326127.709    -3987898.38749  -2818306.61245  24326129.095    24326142.188
       203.000         147.000
  23900592.010    -7055707.32249  -5480405.63445  23900591.351    23900602.827
       205.000         142.000
  21677534.809   -14950704.83649 -11624757.41947  21677534.633    21677543.199
       238.000         196.000
 02  5 27  1  8  0.0000000  0  6G21G14G25G30G20G11
  22844608.269     5277540.78149   4113295.54146  22844607.825    22844621.149
       219.000         167.000
  21871954.810     5932235.18349   4652567.12847  21871954.051    21871962.069
       236.000         193.000
  20622108.628   -13730526.87849 -10678359.32848  20622108.350    20622116.561
       247.000         216.000
  24321017.364    -4014771.72149  -2839246.78645  24321016.388    24321028.964
       209.000         147.000
  23881598.081    -7155521.84549  -5558183.06445  23881598.096    23881608.744
       208.000         145.000
  21670256.138   -14988955.05249 -11654562.75147  21670255.637    21670264.392
       238.000         196.000
 02  5 27  1  8 30.0000000  0  6G21G14G25G30G20G11
  22854965.562     5331968.24549   4155706.44546  22854965.647    22854978.411
       218.000         165.000
  21881994.180     5984993.92749   4693677.79047  21881993.681    21882001.861
       236.000         193.000
  20616442.768   -13760299.63749 -10701558.83148  20616442.684    20616450.959
       246.000         215.000
  24315986.574    -4041203.78649  -2859843.10245  24315986.008    24315998.979
       209.000         147.000
  23862598.333    -7255365.16349  -5635982.89945  23862598.358    23862608.940
       210.000         148.000
  21663075.040   -15026690.73149 -11683967.14147  21663074.840    21663083.009
       238.000         196.000
 02  5 27  1  9  0.0000000  0  6G21G14G25G30G20G11
  22865374.682     5386665.56249   4198327.62846  22865374.135    22865386.610
       219.000         165.000
  21892052.600     6037852.87749   4734866.54747  21892052.410    21892061.199
       236.000         193.000
  20610875.242   -13789556.89349 -10724356.64748  20610875.051    20610883.369
       247.000         216.000
  24311041.779    -4067174.58149  -2880080.02545  24311043.623    24311055.646
       203.000         144.000
  23843596.067    -7355217.53449  -5713789.78545  23843596.158    23843608.391
       209.000         148.000
  21655996.341   -15063892.00949 -11712955.11847  21655995.704    21656004.347
       239.000         196.000
 02  5 27  1  9 29.9990000  0  6G21G14G25G30G20G11
  22875830.096     5441611.54249   4241142.55346  22875830.372    22875842.714
       218.000         165.000
  21902126.348     6090789.64149   4776115.93847  21902126.151    21902134.438
       236.000         193.000
  20605402.455   -13818317.54149 -10746767.49148  20605402.208    20605410.392
       247.000         216.000
  24306186.821    -4092701.08549  -2899970.73545  24306186.810    24306198.802
       205.000         144.000
  23824590.904    -7455093.90549  -5791615.37945  23824590.389    23824601.741
       214.000         151.000
  21649015.277   -15100576.44249 -11741540.35947  21649014.832    21649022.779
       239.000         196.000
 02  5 27  1  9 59.9990000  0  6G21G14G25G30G20G11
  22886333.966     5496806.36249   4284151.38746  22886333.418    22886345.969
       219.000         166.000
  21912214.565     6143803.15649   4817425.13047  21912213.931    21912223.156
       237.000         193.000
  20600023.099   -13846586.51049 -10768795.21448  20600022.660    20600031.038
       247.000         216.000
  24301413.219    -4117787.28749  -2919518.33545  24301411.998    24301424.745
       207.000         144.000
  23805578.364    -7555003.34049  -5869466.75145  23805578.097    23805589.482
       215.000         153.000
  21642131.670   -15136749.40249 -11769727.05147  21642131.557    21642139.877
       239.000         196.000
 02  5 27  1 10 29.9990000  0  6G21G14G25G30G20G11
  22896886.103     5552255.39449   4327358.31446  22896885.087    22896898.060
       220.000         167.000
  21922318.345     6196898.14249   4858797.81147  21922317.829    21922326.418
       236.000         193.000
  20594738.835   -13874355.07849 -10790433.01148  20594738.658    20594746.961
       247.000         216.000
  24296722.462    -4142422.99449  -2938714.92845  24296723.561    24296736.713
       204.000         144.000
  23786562.148    -7654933.72849  -5947334.41645  23786561.767    23786573.333
       217.000         155.000
  21635347.433   -15172400.98249 -11797507.47247  21635346.952    21635355.750
       239.000         196.000
 02  5 27  1 10 59.9990000  0  6G21G14G25G30G20G11
  22907489.911     5607982.31449   4370781.78446  22907489.565    22907502.701
       219.000         166.000
  21932441.549     6250096.72049   4900251.20747  21932441.187    21932449.729
       236.000         192.000
  20589554.426   -13901600.28349 -10811662.99548  20589553.970    20589562.189
       247.000         216.000
  24292126.432    -4166583.85349  -2957541.51545  24292126.973    24292139.332
       206.000         145.000
  23767546.658    -7754860.64549  -6025199.39945  23767545.965    23767557.383
       219.000         160.000
  21628667.104   -15207507.19349 -11824862.93247  21628666.671    21628675.168
       239.000         196.000
 02  5 27  1 11 29.9990000  0  6G21G14G25G30G20G11
  22918140.107     5663949.92349   4414392.80346  22918140.371    22918153.183
       217.000         167.000
  21942577.229     6303361.06249   4941755.85547  21942576.925    21942585.361
       236.000         193.000
  20584462.208   -13928358.23449 -10832513.29748  20584461.981    20584470.139
       246.000         216.000
  24287612.757    -4190304.86549  -2976025.30345  24287611.998    24287625.055
       208.000         144.000
  23748525.335    -7854819.37349  -6103089.15846  23748524.357    23748536.276
       218.000         163.000
  21622083.067   -15242104.05249 -11851821.49347  21622082.881    21622091.266
       238.000         196.000
 02  5 27  1 11 59.9990000  0  6G21G14G25G30G20G11
  22928840.806     5720181.87449   4458209.80446  22928839.944    22928852.854
       217.000         166.000
  21952730.475     6356713.95349   4983329.51547  21952729.831    21952738.106
       236.000         192.000
  20579467.465   -13954604.95949 -10852965.24548  20579467.385    20579475.460
       247.000         216.000
  24283185.475    -4213560.78149  -2994146.71145  24283186.196    24283201.099
       205.000         145.000
  23729502.182    -7954785.05749  -6180984.32146  23729501.802    23729513.345
       218.000         163.000
  21615601.377   -15276166.71849 -11878363.80247  21615600.787    21615609.301
       238.000         196.000
 02  5 27  1 12 29.9990000  0  6G21G14G25G30G20G11
  22939592.427     5776679.68849   4502233.95246  22939591.629    22939605.196
       218.000         166.000
  21962899.890     6410155.52349   5024972.26747  21962899.462    21962908.179
       236.000         192.000
  20574570.505   -13980339.32949 -10873017.95448  20574570.150    20574578.399
       247.000         216.000
  24278850.549    -4236349.24849  -3011903.89245  24278851.104    24278863.277
       208.000         145.000
  23710478.235    -8054755.11649  -6258882.89346  23710477.556    23710489.847
       218.000         165.000
  21609221.301   -15309693.20249 -11904488.30547  21609220.964    21609229.416
       238.000         196.000
 02  5 27  1 12 59.9990000  0  6G21G14G25G30G20G11
  22950393.992     5833440.20349   4546462.81446  22950392.957    22950406.177
       220.000         167.000
  21973085.174     6463681.36149   5066680.69847  21973084.984    21973093.928
       236.000         192.000
  20569770.083   -14005564.58349 -10892673.95548  20569769.956    20569778.180
       246.000         216.000
  24274603.343    -4258671.91049  -3029298.09945  24274602.860    24274614.089
       209.000         143.000
  23691454.257    -8154731.51449  -6336786.41046  23691452.644    23691464.872
       217.000         165.000
  21602943.169   -15342685.99849 -11930196.94847  21602942.851    21602951.143
       238.000         196.000
 02  5 27  1 13 29.9990000  0  6G21G14G25G30G20G11
  22961241.837     5890444.88249   4590881.92646  22961241.807    22961253.336
       221.000         166.000
  21983283.999     6517272.59349   5108440.06947  21983283.210    21983291.789
       236.000         192.000
  20565063.574   -14030298.37349 -10911946.99048  20565063.443    20565071.334
       247.000         216.000
  24270438.790    -4280545.49749  -3046342.37645  24270440.230    24270452.769
       205.000         143.000
  23672423.996    -8254731.01149  -6414707.91346  23672423.263    23672434.670
       218.000         165.000
  21596763.278   -15375162.16749 -11955503.02947  21596762.741    21596771.074
       239.000         197.000
 02  5 27  1 13 59.9990000  0  6G21G14G25G30G20G11
  22972140.577     5947718.03049   4635510.24146  22972139.650    22972152.205
       219.000         165.000
  21993498.493     6570952.06449   5150268.20547  21993498.007    21993506.759
       236.000         192.000
  20560454.973   -14054517.12949 -10930818.70448  20560454.629    20560462.720
       247.000         216.000
  24266367.279    -4301944.49949  -3063016.87745  24266367.486    24266381.753
       204.000         144.000
  23653394.615    -8354728.30349  -6492627.71245  23653394.138    23653405.770
       217.000         162.000
  21590685.813   -15407097.45549 -11980387.64747  21590685.746    21590694.109
       237.000         196.000
 02  5 27  1 14 29.9990000  0  6G21G14G25G30G20G11
  22983087.869     6005248.03849   4680338.70046  22983087.178    22983099.223
       221.000         166.000
  22003727.732     6624707.27149   5192155.35247  22003727.167    22003736.377
       235.000         192.000
  20555941.977   -14078232.02549 -10949297.80048  20555941.878    20555949.972
       246.000         216.000
  24262385.708    -4322879.26349  -3079329.61745  24262383.861    24262397.201
       206.000         146.000
  23634364.267    -8454733.53349  -6570553.69945  23634363.376    23634375.527
       215.000         161.000
  21584709.352   -15438502.59749 -12004859.16147  21584709.304    21584717.840
       238.000         196.000
 02  5 27  1 14 59.9990000  0  6G21G14G25G30G20G11
  22994086.683     6063048.45749   4725377.88946  22994086.198    22994098.726
       218.000         165.000
  22013973.760     6678551.01749   5234111.48447  22013973.618    22013981.903
       235.000         191.000
  20551527.631   -14101429.53049 -10967373.73648  20551527.456    20551535.555
       247.000         216.000
  24258488.634    -4343334.56949  -3095268.71945  24258490.811    24258504.652
       202.000         146.000
  23615335.452    -8554731.73649  -6648474.22245  23615334.859    23615345.906
       215.000         159.000
  21578837.144   -15469362.76849 -12028906.02647  21578836.819    21578845.416
       238.000         196.000
 02  5 27  1 15 29.9990000  0  6G21G14G25G30G20G11
  23005134.924     6121105.41849   4770616.96046  23005134.845    23005147.962
       220.000         166.000
  22024233.735     6732468.66649   5276125.20747  22024233.369    22024242.760
       234.000         191.000
  20547209.240   -14124122.95949 -10985056.88348  20547208.899    20547216.989
       247.000         216.000
  24254687.938    -4363322.71049  -3110843.84245  24254687.804    24254700.828
       207.000         148.000
  23596305.264    -8654734.89349  -6726398.58645  23596304.325    23596316.287
       216.000         159.000
  21573065.923   -15499691.10949 -12052538.47447  21573065.819    21573073.718
       239.000         196.000
 02  5 27  1 15 59.9990000  0  6G21G14G25G30G20G11
  23016234.115     6179433.18949   4816067.09546  23016234.210    23016247.406
       220.000         165.000
  22034511.033     6786473.41949   5318206.79847  22034510.685    22034518.561
       236.000         189.000
  20542989.326   -14146297.91649 -11002336.02748  20542989.148    20542997.231
       247.000         216.000
  24250977.408    -4382828.26849  -3126042.93745  24250976.165    24250989.077
       214.000         150.000
  23577277.595    -8754727.60449  -6804314.81645  23577275.847    23577288.251
       218.000         159.000
  21567399.019   -15529472.78149 -12075744.95747  21567398.744    21567406.640
       240.000         196.000
 02  5 27  1 16 29.9990000  0  6G21G14G25G30G20G11
  23027382.721     6238015.70249   4861715.70446  23027381.111    23027394.938
       220.000         165.000
  22044801.425     6840547.93249   5360342.75747  22044800.583    22044809.456
       235.000         190.000
  20538864.986   -14167970.81349 -11019223.96048  20538864.945    20538873.033
       246.000         216.000
  24247351.781    -4401866.29149  -3140877.71745  24247352.364    24247364.834
       210.000         148.000
  23558248.316    -8854724.65549  -6882234.45645  23558247.948    23558258.244
       218.000         158.000
  21561832.496   -15558723.50649 -12098537.71147  21561832.287    21561839.991
       239.000         196.000
 02  5 27  1 16 59.9990000  0  6G21G14G25G30G20G11
  23038582.663     6296873.16949   4907578.55446  23038582.541    23038596.012
       220.000         163.000
  22055107.781     6894712.22249   5402548.65347  22055107.610    22055115.968
       234.000         189.000
  20534840.254   -14189120.72649 -11035704.37348  20534839.964    20534848.292
       246.000         216.000
  24243823.298    -4420414.51749  -3155330.80545  24243823.873    24243835.645
       208.000         143.000
  23539222.306    -8954704.01449  -6960140.30745  23539221.857    23539234.076
       217.000         158.000
  21556371.148   -15587421.64149 -12120899.87147  21556370.999    21556379.205
       239.000         196.000
 02  5 27  1 17 29.9990000  0  6G21G14G25G30G20G11
  23049831.705     6355984.21249   4953638.99645  23049830.898    23049842.864
       220.000         162.000
  22065427.748     6948943.72149   5444806.91347  22065427.585    22065436.252
       234.000         189.000
  20530910.800   -14209769.93149 -11051794.62448  20530910.737    20530918.693
       246.000         216.000
  24240382.931    -4438493.62249  -3169418.31645  24240382.632    24240395.649
       207.000         142.000
  23520196.460    -9054685.91149  -7038048.12445  23520195.753    23520207.741
       219.000         158.000
  21551011.300   -15615588.32649 -12142847.92947  21551011.269    21551019.484
       239.000         196.000
 02  5 27  1 17 59.9990000  0  6G21G14G25G30G20G11
  23061126.742     6415343.19549   4999892.65445  23061126.369    23061138.368
       219.000         160.000
  22075759.369     7003235.98049   5487112.52747  22075759.453    22075768.558
       234.000         189.000
  20527075.925   -14229923.55149 -11067498.70248  20527075.597    20527083.638
       246.000         216.000
  24237031.933    -4456107.75049  -3183143.54445  24237029.580    24237042.953
       206.000         140.000
  23501169.422    -9154674.38849  -7115961.10345  23501169.377    23501180.949
       220.000         158.000
  21545751.357   -15643228.55849 -12164385.75447  21545750.841    21545759.735
       238.000         196.000
 02  5 27  1 18 29.9990000  0  6G21G14G25G30G20G11
  23072472.052     6474962.33249   5046349.03445  23072471.693    23072484.144
       218.000         159.000
  22086105.186     7057600.86849   5529474.73047  22086104.292    22086113.192
       234.000         189.000
  20523337.287   -14249569.10049 -11082806.88348  20523337.260    20523345.353
       246.000         216.000
  24233768.162    -4473242.74149  -3196495.43745  24233769.286    24233783.023
       201.000         140.000
  23482143.172    -9254655.24649  -7193868.14645  23482141.920    23482154.248
       219.000         157.000
  21540594.562   -15670328.81149 -12185502.82147  21540594.557    21540602.544
       239.000         197.000
 02  5 27  1 18 59.9990000  0  6G21G14G25G30G20G11
  23083863.914     6534826.40749   5092996.28245  23083862.836    23083876.366
       217.000         159.000
  22096461.447     7112022.07349   5571880.82147  22096460.457    22096469.463
       234.000         188.000
  20519692.604   -14268722.01549 -11097731.19448  20519692.368    20519700.534
       246.000         216.000
  24230598.230    -4489913.19449  -3209485.34145  24230598.291    24230611.388
       205.000         144.000
  23463115.842    -9354642.47649  -7271780.12745  23463115.870    23463126.733
       219.000         155.000
  21535537.435   -15696904.26149 -12206210.95047  21535537.045    21535545.422
       239.000         198.000
 02  5 27  1 19 29.9990000  0  6G21G14G25G30G20G11
  23095305.539     6594955.61249   5139850.10345  23095304.698    23095318.074
       216.000         158.000
  22106830.747     7166519.07449   5614345.96547  22106830.656    22106840.026
       233.000         188.000
  20516145.609   -14287361.72349 -11112255.60348  20516145.285    20516153.616
       247.000         216.000
  24227518.520    -4506097.19349  -3222096.19545  24227517.444    24227530.054
       204.000         147.000
  23444092.459    -9454614.03849  -7349679.88545  23444092.261    23444101.241
       220.000         157.000
  21530584.195   -15722933.80449 -12226493.69647  21530583.685    21530592.841
       239.000         198.000
 02  5 27  1 19 59.9990000  0  6G21G14G25G30G20G11
  23106796.346     6655340.14149   5186902.88545  23106797.087    23106809.574
       217.000         158.000
  22117214.309     7221081.14949   5656861.82147  22117213.571    22117222.227
       233.000         188.000
  20512694.055   -14305498.49949 -11126388.12048  20512693.995    20512702.092
       246.000         216.000
  24224529.652    -4521803.43249  -3234334.81545  24224529.840    24224543.017
       208.000         149.000
  23425069.269    -9554578.36849  -7427574.03045  23425067.311    23425078.548
       219.000         154.000
  21525732.896   -15748426.70549 -12246358.28147  21525732.642    21525740.872
       239.000         197.000
 02  5 27  1 20 29.9990000  0  6G21G14G25G30G20G11
  23118332.555     6715961.11149   5234139.91245  23118332.861    23118345.753
       216.000         158.000
  22127606.356     7275688.89049   5699413.25547  22127605.628    22127614.953
       234.000         188.000
  20509334.852   -14323151.13649 -11140143.38548  20509334.757    20509342.839
       246.000         216.000
  24221629.553    -4537049.50049  -3246214.79045  24221628.154    24221640.832
       207.000         148.000
  23406045.829    -9654552.45949  -7505475.79545  23406044.647    23406055.241
       221.000         156.000
  21520980.203   -15773401.12949 -12265818.85747  21520980.386    21520988.076
       239.000         197.000
 02  5 27  1 20 59.9990000  0  6G21G14G25G30G20G11
  23129919.677     6776852.16249   5281587.39345  23129919.149    23129933.242
       214.000         157.000
  22138012.038     7330375.40849   5742026.07146  22138011.372    22138020.340
       233.000         187.000
  20506074.272   -14340286.03349 -11153495.21748  20506074.228    20506082.210
       246.000         217.000
  24218819.882    -4551800.42549  -3257708.94945  24218820.335    24218833.500
       205.000         146.000
  23387026.022    -9754501.28249  -7583357.83545  23387024.479    23387036.221
       218.000         157.000
  21516333.387   -15797822.52249 -12284848.49747  21516332.858    21516341.386
       239.000         198.000
 02  5 27  1 21 29.9990000  0  6G21G14G25G30G20G11
  23141557.681     6838012.42949   5329244.64145  23141558.210    23141572.110
       214.000         156.000
  22148433.321     7385138.98949   5784698.93947  22148432.344    22148441.899
       233.000         188.000
  20502911.879   -14356904.06349 -11166444.29448  20502911.828    20502919.752
       246.000         216.000
  24216108.394    -4566055.97649  -3268817.14045  24216107.381    24216121.248
       207.000         143.000
  23368010.459    -9854423.83949  -7661219.39945  23368010.548    23368021.425
       217.000         158.000
  21511790.945   -15821691.44749 -12303447.64147  21511790.771    21511799.286
       239.000         197.000
 02  5 27  1 21 59.9990000  0  6G21G14G25G30G20G11
  23153245.784     6899430.34949   5377102.66045  23153244.382    23153258.115
       215.000         156.000
  22158866.712     7439967.00249   5827422.02047  22158866.596    22158875.906
       234.000         188.000
  20499845.769   -14373016.96849 -11178999.76948  20499845.622    20499853.688
       246.000         216.000
  24213487.320    -4579826.51849  -3279547.41745  24213486.382    24213499.540
       203.000         141.000
  23348999.575    -9954330.18649  -7739068.33345  23348998.898    23349008.870
       219.000         159.000
  21507351.962   -15845019.36749 -12321625.21747  21507351.917    21507359.937
       239.000         198.000
 02  5 27  1 22 29.9990000  0  7G21G 1G14G25G30G20G11
  23164984.556     6961115.37049   5425168.80245  23164984.256    23164997.550
       215.000         156.000
  24594953.298    -3298964.16559  -2561165.86355  24594952.615    24594970.320
       215.000         145.000
  22169314.883     7494868.27749   5870202.18347  22169314.341    22169322.991
       234.000         189.000
  20496877.450   -14388615.83649 -11191154.69448  20496877.195    20496885.017
       247.000         216.000
  24210961.906    -4593101.65049  -3289891.63445  24210959.996    24210972.958
       204.000         140.000
  23329991.213   -10054209.49749  -7816896.20245  23329990.965    23330003.724
       213.000         158.000
  21503017.795   -15867796.12049 -12339373.32747  21503017.261    21503025.704
       239.000         198.000
 02  5 27  1 22 59.9990000  0  7G21G 1G14G25G30G20G11
  23176774.241     7023075.20049   5473449.08145  23176773.861    23176787.817
       213.000         155.000
  24578652.905    -3384610.88049  -2627903.18945  24578652.688    24578670.914
       211.000         145.000
  22179776.768     7549850.85949   5913045.71047  22179776.382    22179785.772
       233.000         188.000
  20494008.565   -14403692.10049 -11202902.39748  20494008.301    20494016.239
       247.000         217.000
  24208531.231    -4605871.46849  -3299842.05045  24208531.292    24208546.031
       205.000         142.000
  23310991.633   -10154051.34449  -7894694.85345  23310990.879    23311002.167
       213.000         157.000
  21498789.792   -15890012.54249 -12356684.79747  21498789.534    21498797.956
       239.000         197.000
 02  5 27  1 23 29.9990000  0  7G21G 1G14G25G30G20G11
  23188614.221     7085291.71049   5521929.36945  23188615.010    23188627.425
       214.000         156.000
  24562375.646    -3470148.91849  -2694555.89345  24562375.857    24562391.545
       211.000         144.000
  22190252.290     7604895.99349   5955937.96947  22190251.752    22190259.965
       233.000         188.000
  20491235.476   -14418263.31749 -11214256.55848  20491235.449    20491243.501
       246.000         217.000
  24206193.781    -4618152.79049  -3309411.84045  24206195.290    24206208.796
       205.000         143.000
  23291997.855   -10253871.85549  -7972476.91245  23291997.485    23292007.660
       216.000         159.000
  21494665.845   -15911686.02149 -12373573.20847  21494665.428    21494673.504
       240.000         198.000
 02  5 27  1 23 59.9990000  0  7G21G 1G14G25G30G20G11
  23200499.190     7147745.72449   5570594.72145  23200498.386    23200512.401
       214.000         156.000
  24546115.476    -3555598.17449  -2761139.38245  24546115.827    24546130.850
       209.000         141.000
  22200734.644     7659983.10549   5998862.94947  22200734.171    22200742.533
       233.000         188.000
  20488554.984   -14432349.86449 -11225233.05448  20488554.745    20488562.814
       246.000         216.000
  24203947.544    -4629964.44249  -3318615.67345  24203947.104    24203958.553
       203.000         143.000
  23273001.894   -10353689.59249  -8050256.76245  23273001.643    23273013.633
       215.000         161.000
  21490640.953   -15932836.08349 -12390053.75147  21490640.439    21490648.603
       240.000         198.000
 02  5 27  1 24 29.9990000  0  7G21G 1G14G25G30G20G11
  23212433.912     7210462.45649   5619464.79245  23212433.342    23212446.987
       215.000         157.000
  24529876.288    -3640932.89549  -2827633.64445  24529876.602    24529892.492
       209.000         141.000
  22211230.708     7715136.96449   6041839.92946  22211229.919    22211238.807
       233.000         187.000
  20485971.571   -14445926.45249 -11235812.17748  20485971.266    20485979.150
       247.000         216.000
  24201792.010    -4641279.93249  -3327432.90045  24201792.873    24201807.226
       201.000         142.000
  23254013.358   -10453477.33949  -8128013.27145  23254012.403    23254024.685
       218.000         162.000
  21486720.828   -15953437.03949 -12406106.42747  21486720.456    21486728.783
       240.000         199.000
 02  5 27  1 24 59.9990000  0  7G21G 1G14G25G30G20G11
  23224417.208     7273438.05049   5668536.56445  23224417.045    23224430.930
       215.000         159.000
  24513660.017    -3726156.22549  -2894041.11345  24513658.782    24513675.995
       213.000         143.000
  22221737.565     7770353.47849   6084865.72947  22221737.193    22221746.634
       233.000         188.000
  20483484.215   -14458996.80349 -11245996.83048  20483483.909    20483491.901
       246.000         216.000
  24199733.364    -4652101.70549  -3335865.46145  24199733.282    24199745.702
       205.000         143.000
  23235030.291   -10553236.64949  -8205747.61646  23235029.582    23235039.853
       219.000         165.000
  21482904.258   -15973491.86249 -12421733.54747  21482904.303    21482912.175
       240.000         198.000
 02  5 27  1 25 29.9990000  0  7G21G 1G14G25G30G20G11
  23236451.890     7336674.74949   5717811.79045  23236451.459    23236464.489
       217.000         159.000
  24497463.867    -3811265.40149  -2960359.64245  24497462.067    24497478.304
       214.000         143.000
  22232257.356     7825634.32649   6127941.65046  22232256.850    22232265.707
       233.000         187.000
  20481093.507   -14471558.82049 -11255785.38048  20481093.449    20481101.599
       246.000         216.000
  24197770.447    -4662426.26649  -3343910.56245  24197770.472    24197781.011
       210.000         146.000
  23216051.436   -10652963.62549  -8283456.77246  23216051.138    23216062.525
       219.000         165.000
  21479192.888   -15992997.77549 -12436932.94247  21479192.525    21479200.567
       240.000         198.000
 02  5 27  1 25 59.9990000  0  7G21G 1G14G25G30G20G11
  23248535.500     7400175.90949   5767293.08345  23248534.974    23248548.427
       216.000         160.000
  24481289.757    -3896257.01749  -3026586.54245  24481289.032    24481305.126
       213.000         146.000
  22242789.884     7880982.04649   6171069.68046  22242789.368    22242798.249
       232.000         185.000
  20478800.514   -14483609.36149 -11265175.37948  20478800.290    20478808.351
       247.000         217.000
  24195898.805    -4672249.26249  -3351564.79645  24195899.760    24195912.832
       206.000         147.000
  23197082.151   -10752653.21749  -8361136.81146  23197081.115    23197092.454
       221.000         166.000
  21475585.907   -16011951.27149 -12451701.88447  21475585.552    21475593.854
       239.000         198.000
 02  5 27  1 26 29.9990000  0  7G21G 1G14G25G30G20G11
  23260667.560     7463932.23349   5816973.20045  23260668.008    23260680.478
       216.000         159.000
  24465137.410    -3981139.52349  -3092728.42345  24465136.751    24465151.604
       211.000         147.000
  22253333.007     7936387.54349   6214242.74146  22253332.379    22253340.808
       232.000         185.000
  20476602.820   -14495157.62749 -11274173.99848  20476602.770    20476610.624
       246.000         216.000
  24194124.767    -4681578.61349  -3358834.34645  24194125.367    24194136.762
       211.000         146.000
  23178117.073   -10852312.29049  -8438793.06446  23178116.648    23178127.626
       222.000         167.000
  21472082.586   -16030360.29149 -12466046.56347  21472082.750    21472090.403
       240.000         198.000
 02  5 27  1 26 59.9990000  0  7G21G 1G14G25G30G20G11
  23272844.832     7527920.16049   5866833.79645  23272843.748    23272857.387
       216.000         159.000
  24448999.295    -4065936.41449  -3158803.62945  24448999.795    24449015.105
       208.000         145.000
  22263882.395     7991826.34049   6257441.75246  22263882.035    22263891.698
       232.000         185.000
  20474496.340   -14506227.65249 -11282799.96348  20474496.172    20474504.144
       246.000         216.000
  24192438.895    -4690436.87349  -3365736.80945  24192439.512    24192450.150
       210.000         147.000
  23159154.500   -10951962.96349  -8516442.77646  23159154.239    23159164.764
       223.000         168.000
  21468678.529   -16048248.67749 -12479985.55347  21468678.433    21468686.256
       239.000         198.000
 02  5 27  1 27 29.9990000  0  7G21G 1G14G25G30G20G11
  23285072.730     7592176.64049   5916903.65945  23285072.972    23285085.960
       217.000         159.000
  24432886.843    -4150610.55249  -3224783.14745  24432886.484    24432902.120
       207.000         143.000
  22274446.118     8047334.78649   6300695.03746  22274445.700    22274453.960
       232.000         183.000
  20472487.717   -14516782.55449 -11291024.53148  20472487.663    20472495.364
       246.000         216.000
  24190849.091    -4698786.17249  -3372242.68945  24190850.352    24190863.160
       206.000         147.000
  23140200.458   -11051566.51349  -8594055.78046  23140199.747    23140210.605
       224.000         169.000
  21465380.571   -16065579.06749 -12493489.73547  21465380.604    21465388.568
       240.000         198.000
 02  5 27  1 27 59.9990000  0  7G21G 1G14G25G30G20G11
  23297346.221     7656674.77349   5967161.80945  23297346.045    23297360.162
       217.000         161.000
  24416793.105    -4235188.20849  -3290687.47645  24416792.594    24416807.554
       207.000         142.000
  22285016.415     8102885.70849   6343981.40646  22285016.520    22285025.138
       231.000         184.000
  20470572.362   -14526849.07049 -11298868.54248  20470571.925    20470579.851
       247.000         216.000
  24189354.470    -4706652.24749  -3378372.04445  24189352.437    24189367.234
       204.000         146.000
  23121250.566   -11151147.49149  -8671651.19646  23121249.978    23121260.400
       223.000         169.000
  21462184.066   -16082377.81549 -12506579.66347  21462183.845    21462191.833
       240.000         198.000
 02  5 27  1 28 29.9990000  0  7G21G 1G14G25G30G20G11
  23309665.787     7721414.15049   6017607.93245  23309665.665    23309678.790
       217.000         160.000
  24400716.338    -4319669.21549  -3356516.47145  24400716.781    24400732.476
       206.000         142.000
  22295595.768     8158478.34149   6387300.29646  22295595.256    22295604.454
       231.000         184.000
  20468749.437   -14536427.97049 -11306332.59048  20468749.152    20468757.023
       246.000         216.000
  24187947.112    -4714034.38549  -3384124.31745  24187946.969    24187961.334
       200.000         144.000
  23102305.530   -11250704.61349  -8749228.04946  23102305.045    23102315.362
       222.000         166.000
  21459088.541   -16098644.96649 -12519255.35947  21459088.182    21459096.296
       240.000         198.000
 02  5 27  1 28 59.9990000  0  7G21G 1G14G25G30G20G11
  23322031.917     7786398.94349   6068245.29745  23322031.299    23322044.955
       217.000         159.000
  24384657.957    -4404049.35049  -3422266.92245  24384656.699    24384673.913
       201.000         140.000
  22306183.644     8214115.94849   6430654.22046  22306183.021    22306191.920
       232.000         184.000
  20467019.834   -14545516.02449 -11313414.16848  20467019.705    20467027.680
       246.000         216.000
  24186635.134    -4720927.65349  -3389495.71445  24186636.377    24186649.849
       198.000         142.000
  23083365.705   -11350231.94349  -8826781.66946  23083364.508    23083375.391
       222.000         167.000
  21456094.846   -16114376.23949 -12531513.48447  21456094.623    21456102.855
       240.000         199.000
 02  5 27  1 29 29.9990000  0  7G21G 1G14G25G30G20G11
  23334444.280     7851625.94349   6119071.40045  23334443.879    23334457.445
       216.000         159.000
  24368619.395    -4488331.01249  -3487940.63545  24368618.600    24368634.522
       200.000         142.000
  22316778.456     8269795.57249   6474040.89246  22316778.117    22316787.526
       230.000         183.000
  20465383.249   -14554115.68849 -11320115.17948  20465383.356    20465391.242
       246.000         216.000
  24185420.720    -4727333.75049  -3394487.47245  24185416.788    24185429.936
       202.000         142.000
  23064431.911   -11449730.38849  -8904312.79746  23064431.370    23064442.002
       222.000         167.000
  21453202.927   -16129573.91949 -12543355.82547  21453202.631    21453210.660
       239.000         198.000
 02  5 27  1 29 59.9990000  0  7G21G 1G14G25G30G20G11
  23346905.623     7917111.22749   6170098.76445  23346905.294    23346918.779
       215.000         157.000
  24352601.711    -4572498.14249  -3553525.08345  24352603.223    24352619.094
       206.000         144.000
  22327385.211     8325532.82449   6517472.45946  22327384.986    22327393.984
       230.000         182.000
  20463842.970   -14562211.42349 -11326423.52148  20463842.694    20463850.648
       246.000         216.000
  24184291.028    -4733235.72149  -3399086.39445  24184293.190    24184308.685
       197.000         142.000
  23045506.295   -11549181.98149  -8981807.42446  23045506.421    23045516.028
       220.000         166.000
  21450415.307   -16144221.65349 -12554769.63447  21450415.130    21450423.389
       240.000         198.000
 02  5 27  1 30 29.9990000  0  7G21G 1G14G25G30G20G11
  23359413.995     7982844.12449   6221319.08045  23359413.414    23359427.951
       213.000         157.000
  24336607.040    -4656560.45449  -3619027.86645  24336606.426    24336621.569
       205.000         144.000
  22338000.201     8381316.86749   6560940.48646  22338000.146    22338008.704
       229.000         181.000
  20462396.248   -14569813.41649 -11332347.13348  20462395.985    20462404.020
       246.000         216.000
  24183265.618    -4738642.70449  -3403299.58745  24183265.490    24183276.545
       203.000         143.000
  23026588.646   -11648594.77049  -9059271.84346  23026588.067    23026598.256
       220.000         165.000
  21447730.889   -16158329.42149 -12565762.68847  21447730.676    21447738.876
       240.000         199.000
 02  5 27  1 30 59.9990000  0  7G21G 1G14G25G30G20G11
  23371973.528     8048838.24149   6272742.94245  23371972.859    23371985.627
       214.000         156.000
  24320633.376    -4740504.24049  -3684438.26345  24320633.262    24320647.096
       206.000         145.000
  22348627.731     8437160.73849   6604455.13146  22348626.672    22348635.917
       229.000         181.000
  20461046.000   -14576909.11249 -11337876.22648  20461045.867    20461053.505
       247.000         216.000
  24182333.467    -4743540.62349  -3407116.08245  24182334.073    24182345.059
       205.000         144.000
  23007681.619   -11747953.74849  -9136694.34346  23007680.302    23007690.966
       219.000         167.000
  21445151.455   -16171883.72349 -12576324.47447  21445151.153    21445159.533
       240.000         199.000
 02  5 27  1 31 29.9990000  0  7G21G 1G14G25G30G20G11
  23384579.231     8115085.86549   6324364.33845  23384579.458    23384593.631
       214.000         156.000
  24304679.218    -4824336.71149  -3749761.94145  24304678.967    24304693.112
       205.000         142.000
  22359264.327     8493056.38249   6648010.12846  22359263.917    22359272.020
       230.000         181.000
  20459790.423   -14583506.48349 -11343017.01148  20459790.196    20459798.083
       246.000         216.000
  24181495.955    -4747936.07949  -3410541.05245  24181496.424    24181509.163
       204.000         144.000
  22988782.165   -11847264.44949  -9214079.21346  22988782.065    22988792.100
       217.000         164.000
  21442676.230   -16184892.04249 -12586460.81947  21442676.176    21442683.915
       240.000         198.000
 02  5 27  1 31 59.9990000  0  7G21G 1G14G25G30G20G11
  23397234.905     8181596.22149   6376190.44045  23397236.105    23397249.175
       213.000         154.000
  24288748.337    -4908047.68949  -3814990.95545  24288748.516    24288765.539
       202.000         144.000
  22369911.650     8549013.15349   6691612.75346  22369911.933    22369920.829
       228.000         181.000
  20458631.863   -14589595.42949 -11347761.62448  20458631.468    20458639.304
       246.000         216.000
  24180758.157    -4751818.44449  -3413566.18745  24180757.893    24180769.844
       204.000         142.000
  22969896.447   -11946514.99249  -9291417.20146  22969895.469    22969905.443
       218.000         166.000
  21440306.796   -16197344.10249 -12596163.71647  21440306.431    21440314.578
       240.000         198.000
 02  5 27  1 32 29.9990000  0  7G21G 1G14G25G30G20G11
  23409941.421     8248369.06449   6428221.08745  23409941.609    23409956.033
       211.000         152.000
  24272841.654    -4991637.51549  -3880125.59345  24272841.369    24272858.014
       204.000         148.000
  22380571.823     8605030.15249   6735262.29546  22380571.726    22380580.652
       228.000         180.000
  20457569.576   -14595177.43149 -11352111.22048  20457569.385    20457577.248
       246.000         216.000
  24180114.713    -4755187.24249  -3416191.18245  24180116.660    24180130.292
       200.000         143.000
  22951020.963   -12045703.99249  -9368707.26246  22951021.234    22951031.019
       220.000         166.000
  21438042.561   -16209240.51349 -12605433.64147  21438042.470    21438050.743
       240.000         198.000
 02  5 27  1 32 59.9990000  0  7G21G 1G14G25G30G20G11
  23422696.736     8315390.34449   6480445.33245  23422696.476    23422710.326
       213.000         151.000
  24256955.976    -5075119.68949  -3945176.36845  24256955.431    24256971.745
       207.000         150.000
  22391240.289     8661093.00249   6778947.57846  22391240.191    22391248.719
       230.000         180.000
  20456601.114   -14600266.62549 -11356076.80748  20456600.968    20456608.716
       246.000         217.000
  24179573.666    -4758055.89149  -3418426.45745  24179572.429    24179584.434
       208.000         145.000
  22932155.538   -12144843.41749  -9445958.68946  22932154.689    22932164.898
       220.000         167.000
  21435881.998   -16220594.77049 -12614281.10647  21435881.736    21435889.775
       239.000         198.000
 02  5 27  1 33 29.9990000  0  7G21G 1G14G25G30G20G11
  23435501.657     8382677.13649   6532876.46645  23435500.498    23435514.413
       214.000         152.000
  24241093.729    -5158476.30049  -4010129.27945  24241093.980    24241108.682
       210.000         153.000
  22401921.237     8717219.01249   6822682.07146  22401920.033    22401930.060
       229.000         180.000
  20455729.604   -14604845.94549 -11359645.08448  20455729.470    20455737.315
       246.000         216.000
  24179121.132    -4760405.87449  -3420257.57545  24179123.536    24179136.339
       201.000         146.000
  22913303.011   -12243913.81749  -9523156.34046  22913302.328    22913312.589
       222.000         169.000
  21433827.630   -16231389.49849 -12622692.57847  21433827.553    21433835.786
       239.000         198.000
 02  5 27  1 33 59.9990000  0  7G21G 1G14G25G30G20G11
  23448354.019     8450215.26449   6585503.45045  23448353.686    23448366.751
       212.000         151.000
  24225251.884    -5241721.09449  -4074995.08945  24225252.107    24225268.072
       211.000         157.000
  22412610.100     8773394.09849   6866454.81046  22412609.927    22412619.747
       229.000         181.000
  20454952.353   -14608929.34249 -11362826.92948  20454952.102    20454960.085
       246.000         216.000
  24178773.231    -4762250.21049  -3421694.72445  24178773.598    24178784.312
       205.000         147.000
  22894462.110   -12342926.89049  -9600309.33346  22894461.305    22894471.011
       224.000         171.000
  21431877.529   -16241638.31649 -12630678.66447  21431877.386    21431885.417
       239.000         198.000
 02  5 27  1 34 29.9990000  0  7G21G 1G14G25G30G20G11
  23461255.754     8518021.32449   6638339.20945  23461256.016    23461270.165
       211.000         150.000
  24209435.799    -5324837.27749  -4139760.65445  24209435.590    24209451.142
       210.000         153.000
  22423313.318     8829633.87249   6910277.93146  22423312.235    22423320.533
       229.000         179.000
  20454272.681   -14612501.27149 -11365610.23148  20454272.616    20454280.485
       246.000         216.000
  24178522.467    -4763572.05649  -3422724.68145  24178520.344    24178534.270
       204.000         146.000
  22875634.284   -12441864.37949  -9677403.43746  22875633.395    22875644.045
       223.000         170.000
  21430034.602   -16251324.80449 -12638226.57547  21430034.399    21430042.700
       240.000         199.000
 02  5 27  1 34 59.9990000  0  7G21G 1G14G25G30G20G11
  23474204.892     8586073.07349   6691366.41045  23474204.996    23474219.713
       210.000         147.000
  24193640.225    -5407846.30049  -4204442.72445  24193639.440    24193653.365
       213.000         151.000
  22434022.839     8885916.42149   6954134.40946  22434022.229    22434032.145
       229.000         180.000
  20453686.038   -14615583.88649 -11368012.24648  20453686.040    20453694.085
       246.000         216.000
  24178363.216    -4764392.00649  -3423363.58145  24178365.735    24178377.429
       201.000         146.000
  22856818.003   -12540745.93949  -9754453.94046  22856817.609    22856827.049
       223.000         172.000
  21428294.225   -16260470.73749 -12645353.27347  21428293.856    21428301.800
       240.000         199.000
 02  5 27  1 35 29.9990000  0  7G21G 1G14G25G30G20G11
  23487203.336     8654373.67549   6744587.54745  23487201.976    23487217.754
       211.000         150.000
  24177864.852    -5490744.91449  -4269038.75045  24177864.367    24177878.202
       212.000         152.000
  22444741.961     8942244.14949   6998026.09046  22444741.784    22444750.954
       229.000         180.000
  20453193.075   -14618174.84049 -11370031.14948  20453192.968    20453200.995
       246.000         216.000
  24178306.917    -4764706.68349  -3423608.74845  24178305.658    24178317.130
       203.000         146.000
  22838012.632   -12639566.45149  -9831456.87246  22838012.733    22838023.745
       224.000         172.000
  21426657.249   -16269073.07449 -12652056.39147  21426657.012    21426664.692
       240.000         198.000
 02  5 27  1 35 59.9990000  0  7G21G 1G14G25G30G20G11
  23500245.321     8722909.22249   6797991.73345  23500245.399    23500258.213
       212.000         149.000
  24162107.320    -5573546.33849  -4333559.05645  24162107.106    24162122.625
       215.000         157.000
  22455466.127     8998603.24249   7041942.21846  22455466.040    22455476.048
       228.000         180.000
  20452790.987   -14620287.92949 -11371677.69348  20452790.956    20452798.797
       246.000         217.000
  24178337.762    -4764528.77749  -3423470.09145  24178338.629    24178352.598
       198.000         143.000
  22819217.459   -12738337.52249  -9908421.28946  22819216.557    22819225.966
       223.000         171.000
  21425120.777   -16277145.25449 -12658346.39947  21425120.371    21425128.851
       240.000         198.000
 02  5 27  1 36 29.9990000  0  7G21G 1G14G25G30G20G11
  23513337.520     8791713.09249   6851605.02045  23513337.578    23513351.368
       212.000         149.000
  24146375.513    -5656216.32349  -4397976.95845  24146375.185    24146390.300
       215.000         158.000
  22466204.149     9055027.38349   7085909.02846  22466203.801    22466212.809
       229.000         181.000
  20452486.333   -14621889.73949 -11372925.83748  20452486.207    20452494.001
       246.000         216.000
  24178474.733    -4763823.73249  -3422920.70045  24178472.871    24178485.735
       202.000         144.000
  22800437.706   -12837023.03949  -9985319.03546  22800437.229    22800447.147
       223.000         169.000
  21423691.801   -16284653.36849 -12664196.87647  21423691.738    21423699.753
       240.000         198.000
 02  5 27  1 36 59.9990000  0  7G21G 1G14G25G30G20G11
  23526475.601     8860752.03649   6905401.50345  23526475.503    23526489.322
       213.000         149.000
  24130663.236    -5738787.52849  -4462317.90145  24130662.453    24130678.407
       215.000         158.000
  22476946.732     9111483.49349   7129900.75046  22476946.255    22476956.173
       228.000         180.000
  20452272.123   -14623014.04249 -11373801.89748  20452272.061    20452280.063
       246.000         216.000
  24178699.932    -4762623.77449  -3421985.63245  24178701.629    24178714.006
       199.000         145.000
  22781669.269   -12935653.86649 -10062174.15946  22781668.684    22781678.535
       225.000         171.000
  21422364.460   -16291630.51749 -12669633.61747  21422364.160    21422372.476
       240.000         199.000
 02  5 27  1 37 29.9990000  0  7G21G 1G14G25G30G20G11
  23539664.342     8930054.10849   6959402.96345  23539663.644    23539677.432
       216.000         153.000
  24114973.653    -5821231.90149  -4526560.01345  24114972.933    24114987.181
       211.000         153.000
  22487701.865     9167999.04049   7173938.77246  22487701.296    22487711.330
       228.000         180.000
  20452154.310   -14623633.51649 -11374284.58848  20452154.177    20452161.917
       246.000         216.000
  24179029.332    -4760900.57849  -3420642.88645  24179029.615    24179041.915
       204.000         148.000
  22762916.590   -13034200.12549 -10138963.36346  22762915.573    22762925.858
       225.000         172.000
  21421143.096   -16298048.73949 -12674634.82447  21421142.947    21421151.296
       240.000         199.000
 02  5 27  1 37 59.9990000  0  7G21G 1G14G25G30G20G11
  23552897.120     8999593.16849   7013589.10245  23552896.569    23552911.530
       215.000         152.000
  24099303.607    -5903574.74849  -4590722.99245  24099303.427    24099318.237
       213.000         151.000
  22498462.497     9224547.99449   7218002.84546  22498463.151    22498471.593
       228.000         180.000
  20452127.664   -14623774.04449 -11374394.07048  20452127.479    20452135.285
       246.000         216.000
  24179453.259    -4758679.04149  -3418911.76645  24179452.916    24179464.209
       207.000         149.000
  22744174.821   -13132685.29949 -10215704.95146  22744174.246    22744184.673
       225.000         172.000
  21420023.311   -16303933.74049 -12679220.53447  21420023.101    21420031.169
       240.000         198.000
 02  5 27  1 38 29.9990000  0  7G21G 1G14G25G30G20G11
  23566176.301     9069377.28249   7067966.20145  23566175.333    23566190.235
       213.000         152.000
  24083655.802    -5985807.39349  -4654800.10545  24083655.425    24083668.466
       213.000         149.000
  22509231.766     9281138.44949   7262099.24746  22509230.811    22509240.731
       228.000         179.000
  20452193.445   -14623427.73349 -11374124.19948  20452193.419    20452201.009
       247.000         216.000
  24179968.579    -4755950.25249  -3416785.41445  24179971.347    24179983.474
       209.000         150.000
  22725447.349   -13231099.03549 -10292390.87446  22725447.492    22725456.744
       224.000         172.000
  21419006.145   -16309277.29749 -12683384.34747  21419006.217    21419014.353
       239.000         198.000
 02  5 27  1 38 59.9990000  0  8G21G 1G22G14G25G30G20G11
  23579501.171     9139398.47849   7122528.06245  23579500.750    23579515.925
       215.000         152.000
  24068026.834    -6067937.42349  -4718797.23345  24068026.496    24068040.944
       216.000         152.000
  24416931.115    -3911985.22859  -2527929.44155  24416930.578    24416946.843
       210.000         141.000
  22520006.438     9337762.24549   7306221.63046  22520006.351    22520015.596
       228.000         179.000
  20452350.302   -14622602.98249 -11373481.51748  20452350.104    20452357.973
       245.000         216.000
  24180588.814    -4752721.68249  -3414269.60245  24180586.638    24180597.572
       214.000         152.000
  22706732.483   -13329447.06849 -10369025.60546  22706731.390    22706741.438
       224.000         170.000
  21418090.695   -16314087.49649 -12687132.55147  21418090.534    21418098.648
       240.000         198.000
 02  5 27  1 39 29.9990000  0  8G21G 1G22G14G25G30G20G11
  23592872.919     9209665.00349   7177281.06545  23592872.292    23592886.935
       216.000         154.000
  24052419.613    -6149955.69549  -4782707.30445  24052419.610    24052432.554
       217.000         156.000
  24395878.082    -4022617.85849  -2614136.27345  24395875.002    24395892.150
       210.000         140.000
  22530789.288     9394427.90549   7350376.64146  22530789.066    22530798.848
       227.000         179.000
  20452599.566   -14621292.39649 -11372460.26548  20452599.608    20452607.454
       246.000         216.000
  24181295.642    -4748983.84749  -3411356.96545  24181297.229    24181310.260
       212.000         152.000
  22688031.151   -13427718.42649 -10445600.56046  22688030.274    22688042.414
       222.000         170.000
  21417278.549   -16318355.74849 -12690458.45847  21417278.215    21417286.588
       240.000         198.000
 02  5 27  1 39 59.9990000  0  8G21G 1G22G14G25G30G20G11
  23606290.118     9280171.72749   7232221.25045  23606290.197    23606302.959
       216.000         153.000
  24036831.800    -6231867.19849  -4846534.17045  24036831.101    24036846.558
       216.000         157.000
  24374802.575    -4133369.80649  -2700436.06345  24374800.914    24374816.635
       211.000         140.000
  22541580.291     9451129.91749   7394559.97646  22541580.056    22541589.209
       228.000         179.000
  20452940.713   -14619501.20849 -11371064.51348  20452940.454    20452948.191
       246.000         216.000
  24182104.817    -4744741.58949  -3408051.24745  24182104.435    24182115.686
       211.000         151.000
  22669345.387   -13525916.14249 -10522118.13846  22669344.369    22669355.960
       225.000         171.000
  21416568.277   -16322087.49549 -12693366.30647  21416568.364    21416576.513
       240.000         198.000
 02  5 27  1 40 29.9990000  0  8G21G 1G22G14G25G30G20G11
  23619750.523     9350912.08349   7287343.48045  23619751.448    23619765.489
       214.000         153.000
  24021263.264    -6313677.76349  -4910282.43045  24021262.494    24021278.016
       213.000         153.000
  24353700.745    -4244244.15849  -2786831.24745  24353699.086    24353717.228
       207.000         141.000
  22552375.559     9507861.81449   7438766.59946  22552374.771    22552384.178
       228.000         178.000
  20453371.672   -14617236.55849 -11369299.83248  20453371.371    20453379.248
       246.000         216.000
  24183006.085    -4740000.43449  -3404356.77645  24183005.737    24183018.395
       211.000         149.000
  22650672.053   -13624044.36049 -10598581.56046  22650671.671    22650680.922
       225.000         170.000
  21415959.426   -16325288.93249 -12695860.93347  21415959.146    21415967.622
       240.000         198.000
 02  5 27  1 40 59.9990000  0  8G21G 1G22G14G25G30G20G11
  23633260.073     9421906.82349   7342663.93645  23633260.354    23633275.589
       213.000         152.000
  24005718.116    -6395366.18149  -4973935.52945  24005717.234    24005732.657
       211.000         153.000
  24332582.517    -4355216.53749  -2873302.78845  24332582.615    24332599.588
       206.000         141.000
  22563181.595     9564644.55549   7483012.82946  22563180.787    22563189.793
       228.000         178.000
  20453896.589   -14614477.87849 -11367150.19048  20453896.067    20453904.238
       246.000         216.000
  24184007.576    -4734738.88549  -3400256.84045  24184008.457    24184021.215
       211.000         147.000
  22632016.991   -13722079.99749 -10674972.84546  22632016.495    22632025.448
       225.000         172.000
  21415454.874   -16327939.49349 -12697926.30147  21415454.547    21415462.812
       240.000         198.000
 02  5 27  1 41 29.9990000  0  8G21G 1G22G14G25G30G20G11
  23646815.817     9493133.65149   7398165.21745  23646815.518    23646829.222
       215.000         153.000
  23990193.055    -6476953.53749  -5037509.89545  23990192.709    23990206.108
       214.000         155.000
  24311443.903    -4466305.19049  -2959864.94945  24311443.351    24311461.368
       204.000         142.000
  22573991.829     9621456.32649   7527281.67846  22573992.176    22574000.531
       228.000         177.000
  20454511.270   -14611247.18049 -11364632.74348  20454511.208    20454518.844
       246.000         216.000
  24185104.219    -4728978.14849  -3395767.91045  24185102.892    24185115.656
       206.000         144.000
  22613374.821   -13820042.04349 -10751306.77346  22613374.298    22613384.903
       226.000         172.000
  21415051.202   -16330060.63649 -12699579.14047  21415050.903    21415059.294
       240.000         199.000
 02  5 27  1 41 59.9990000  0  8G21G 1G22G14G25G30G20G11
  23660416.870     9564611.60949   7453862.20045  23660416.318    23660430.224
       214.000         154.000
  23974689.637    -6558420.84449  -5100990.63645  23974689.143    23974703.478
       214.000         152.000
  24290285.493    -4577488.61549  -3046500.95945  24290285.456    24290303.770
       204.000         145.000
  22584811.647     9678315.54249   7571587.51246  22584811.373    22584821.882
       227.000         177.000
  20455219.189   -14607526.76649 -11361733.69748  20455218.933    20455227.047
       246.000         216.000
  24186296.397    -4722698.96949  -3390875.00845  24186298.158    24186311.471
       204.000         143.000
  22594751.139   -13917909.78049 -10827567.21946  22594751.020    22594760.080
       227.000         173.000
  21414751.915   -16331633.92949 -12700805.07947  21414751.652    21414759.527
       239.000         198.000
 02  5 27  1 42 29.9990000  0  8G21G 1G22G14G25G30G20G11
  23674060.613     9636308.09449   7509729.43945  23674059.177    23674073.601
       212.000         154.000
  23959203.680    -6639799.88249  -5164402.61845  23959203.536    23959217.586
       215.000         154.000
  24269103.652    -4688795.45849  -3133233.12345  24269103.280    24269121.710
       202.000         144.000
  22595635.506     9735189.93049   7615905.16546  22595635.116    22595643.917
       228.000         177.000
  20456013.898   -14603349.29149 -11358478.50548  20456013.852    20456021.907
       245.000         216.000
  24187587.750    -4715933.03549  -3385602.79245  24187586.821    24187596.662
       210.000         143.000
  22576139.094   -14015713.12949 -10903777.49346  22576138.789    22576148.680
       225.000         173.000
  21414550.829   -16332691.67549 -12701629.29447  21414550.674    21414558.614
       240.000         198.000
 02  5 27  1 42 59.9990000  0  8G21G 1G22G14G25G30G20G11
  23687746.840     9708231.56249   7565773.57945  23687746.398    23687762.112
       211.000         151.000
  23943735.747    -6721081.43649  -5227738.61345  23943735.756    23943750.805
       214.000         151.000
  24247900.564    -4800213.37449  -3220051.83645  24247901.200    24247920.417
       202.000         145.000
  22606461.848     9792088.55549   7660241.71346  22606461.418    22606470.816
       227.000         176.000
  20456897.583   -14598706.38749 -11354860.64048  20456897.451    20456905.228
       246.000         216.000
  24188968.645    -4708670.78349  -3379943.86345  24188969.844    24188979.856
       209.000         145.000
  22557542.791   -14113440.74649 -10979928.76146  22557541.596    22557551.866
       226.000         174.000
  21414449.350   -16333225.15049 -12702044.99947  21414448.852    21414457.393
       241.000         198.000
 02  5 27  1 43 29.9990000  0  8G21G 1G22G14G25G30G20G11
  23701482.989     9780412.62749   7622018.43245  23701481.339    23701497.615
       209.000         151.000
  23928293.378    -6802234.45249  -5290974.49445  23928292.974    23928306.170
       211.000         151.000
  24226682.198    -4911708.23649  -3306930.51045  24226683.128    24226701.812
       198.000         145.000
  22617300.648     9849042.08549   7704621.03646  22617300.243    22617309.510
       228.000         176.000
  20457875.466   -14593568.03349 -11350856.71348  20457875.282    20457883.195
       246.000         216.000
  24190450.157    -4700881.11249  -3373873.92145  24190449.747    24190462.933
       208.000         146.000
  22538966.597   -14211059.56249 -11055995.24946  22538965.251    22538976.205
       226.000         174.000
  21414453.374   -16333203.88349 -12702028.43247  21414452.752    21414461.417
       240.000         198.000
 02  5 27  1 43 59.9990000  0  7G21G 1G22G14G25G20G11
  23715264.874     9852836.88449   7678452.75145  23715265.610    23715278.534
       208.000         151.000
  23912870.846    -6883272.86749  -5354121.12545  23912871.058    23912886.088
       210.000         147.000
  24205449.911    -5023291.33149  -3393877.92845  24205449.423    24205467.314
       202.000         143.000
  22628146.206     9906035.75949   7749031.63146  22628145.638    22628154.527
       228.000         176.000
  20458944.643   -14587949.10549 -11346478.31148  20458944.447    20458952.337
       246.000         216.000
  22520408.238   -14308581.78849 -11131986.47746  22520407.940    22520417.043
       227.000         175.000
  21414560.005   -16332642.39349 -12701590.91847  21414559.672    21414567.796
       240.000         198.000
 02  5 27  1 44 29.9990000  0  7G21G 1G22G14G25G20G11
  23729086.801     9925471.82349   7735051.23245  23729087.551    23729101.885
       206.000         150.000
  23897466.450    -6964228.52549  -5417203.24545  23897465.147    23897479.185
       213.000         154.000
  24184195.686    -5134991.45449  -3480916.55245  24184194.678    24184211.772
       201.000         143.000
  22638993.193     9963037.46549   7793448.48646  22638993.144    22639002.068
       228.000         177.000
  20460099.006   -14581882.50649 -11341751.08048  20460098.703    20460106.544
       245.000         216.000
  22501862.904   -14406037.15249 -11207925.60346  22501862.088    22501871.884
       226.000         175.000
  21414763.545   -16331573.33149 -12700757.89547  21414763.260    21414771.239
       240.000         198.000
 02  5 27  1 44 59.9990000  0  7G21G 1G22G14G25G20G11
  23742960.420     9998378.13949   7791861.17745  23742960.006    23742974.390
       205.000         148.000
  23882088.756    -7045039.72849  -5480172.80045  23882087.128    23882100.938
       214.000         157.000
  24162930.613    -5246744.08449  -3567996.07045  24162928.835    24162946.155
       205.000         146.000
  22649852.948    10020108.33949   7837919.23946  22649853.436    22649862.515
       226.000         177.000
  20461350.173   -14575307.73849 -11336627.87648  20461350.066    20461357.884
       245.000         216.000
  22483342.775   -14503362.17649 -11283763.17846  22483341.814    22483353.095
       226.000         176.000
  21415074.778   -16329935.66949 -12699481.80347  21415075.031    21415083.368
       239.000         198.000
 02  5 27  1 45 29.9990000  0  7G21G 1G22G14G25G20G11
  23756876.583    10071510.38649   7848847.17945  23756877.532    23756891.765
       205.000         148.000
  23866729.193    -7125751.47849  -5543064.83845  23866729.030    23866742.943
       215.000         156.000
  24141646.296    -5358591.18649  -3655149.20145  24141643.770    24141661.515
       208.000         147.000
  22660717.587    10077202.96849   7882408.51046  22660717.191    22660727.407
       226.000         176.000
  20462689.368   -14568270.64149 -11331144.41448  20462689.057    20462696.986
       246.000         216.000
  22464838.853   -14600599.40749 -11359532.33546  22464838.462    22464848.095
       226.000         177.000
  21415486.500   -16327775.04049 -12697798.20747  21415486.166    21415494.116
       240.000         198.000
 02  5 27  1 45 59.9990000  0  7G21G 1G22G14G25G20G11
  23770842.480    10144892.91949   7906028.19945  23770840.454    23770856.399
       203.000         145.000
  23851393.805    -7206338.70849  -5605859.86745  23851393.586    23851406.295
       214.000         154.000
  24120348.242    -5470504.52049  -3742353.96845  24120347.634    24120365.189
       205.000         148.000
  22671592.473    10134346.09449   7926935.56246  22671591.752    22671600.781
       227.000         177.000
  20464120.762   -14560747.59749 -11325282.29548  20464120.552    20464128.684
       246.000         215.000
  22446356.898   -14697722.30449 -11435212.40946  22446356.292    22446366.090
       227.000         177.000
  21416001.587   -16325067.12349 -12695688.15547  21416001.352    21416009.583
       240.000         198.000
 02  5 27  1 46 29.9990000  0  7G21G 1G22G14G25G20G11
  23784849.276    10218500.84749   7963384.84645  23784847.751    23784863.178
       203.000         145.000
  23836076.495    -7286825.59149  -5668576.67245  23836076.314    23836090.144
       211.000         148.000
  24099035.797    -5582505.32049  -3829626.89045  24099034.327    24099051.858
       208.000         150.000
  22682471.396    10191513.17549   7971481.29546  22682470.999    22682479.714
       228.000         178.000
  20465639.972   -14552763.55649 -11319060.95648  20465639.857    20465647.858
       245.000         216.000
  22427892.537   -14794752.92149 -11510820.57646  22427892.282    22427901.421
       227.000         176.000
  21416616.384   -16321836.69049 -12693170.95147  21416616.140    21416624.391
       240.000         198.000
 02  5 27  1 46 59.9990000  0  7G21G 1G22G14G25G20G11
  23798897.044    10292325.89849   8020910.70145  23798896.202    23798912.475
       204.000         145.000
  23820778.389    -7367220.17749  -5731221.59945  23820778.003    23820791.914
       208.000         145.000
  24077703.648    -5694598.67149  -3916971.92345  24077702.314    24077719.762
       207.000         149.000
  22693352.088    10248695.97149   8016039.26346  22693352.551    22693361.254
       227.000         178.000
  20467245.379   -14544327.84249 -11312487.67048  20467245.318    20467253.105
       246.000         215.000
  22409444.493   -14891697.07749 -11586361.37346  22409444.046    22409454.083
       227.000         176.000
  21417328.640   -16318092.63049 -12690253.52047  21417328.342    21417336.764
       240.000         197.000
 02  5 27  1 47 29.9990000  0  7G21G 1G22G14G25G20G11
  23812991.298    10366383.17649   8078617.51445  23812990.391    23813005.660
       207.000         146.000
  23805499.654    -7447506.00949  -5793781.77045  23805498.876    23805514.557
       209.000         150.000
  24056358.699    -5806764.73349  -4004373.65145  24056357.571    24056375.162
       209.000         150.000
  22704239.644    10305910.50749   8060621.96346  22704239.320    22704248.902
       225.000         176.000
  20468939.497   -14535424.78649 -11305550.21648  20468939.270    20468947.427
       246.000         216.000
  22391016.211   -14988536.20049 -11661820.33446  22391014.870    22391026.067
       227.000         177.000
  21418141.969   -16313819.03849 -12686923.46347  21418141.819    21418150.167
       239.000         198.000
 02  5 27  1 47 59.9990000  0  7G21G 1G22G14G25G20G11
  23827124.489    10440657.06849   8136493.09245  23827123.723    23827138.733
       207.000         146.000
  23790240.298    -7527698.49549  -5856269.21245  23790238.649    23790254.148
       210.000         153.000
  24034998.082    -5919016.36249  -4091842.02545  24034996.683    24035014.255
       209.000         151.000
  22715131.011    10363140.91549   8105217.02546  22715131.041    22715139.384
       227.000         175.000
  20470719.491   -14526071.19749 -11298261.70448  20470719.318    20470727.183
       246.000         215.000
  22372606.079   -15085283.85349 -11737208.01846  22372605.247    22372615.494
       226.000         176.000
  21419053.398   -16309032.17749 -12683193.46247  21419053.006    21419061.209
       240.000         198.000
 02  5 27  1 48 29.9990000  0  7G21G 1G22G14G25G20G11
  23841301.379    10515160.61949   8194547.63645  23841301.436    23841316.435
       208.000         146.000
  23775000.737    -7607783.11549  -5918672.61645  23774999.960    23775013.705
       214.000         156.000
  24013623.737    -6031335.62649  -4179363.11845  24013623.538    24013640.435
       211.000         151.000
  22726026.657    10420401.07649   8149835.28346  22726026.056    22726035.864
       225.000         174.000
  20472587.759   -14516253.60149 -11290611.62648  20472587.528    20472595.552
       246.000         215.000
  22354215.941   -15181923.42449 -11812511.48946  22354215.592    22354225.017
       227.000         178.000
  21420064.163   -16303718.43749 -12679052.90547  21420063.947    21420071.923
       240.000         198.000
 02  5 27  1 48 59.9990000  0  7G21G 1G22G14G25G20G11
  23855523.464    10589895.96949   8252782.82145  23855521.466    23855539.905
       207.000         144.000
  23759781.756    -7687757.84749  -5980990.37445  23759781.276    23759795.458
       213.000         156.000
  23992238.457    -6143717.59149  -4266933.08045  23992237.279    23992254.431
       210.000         152.000
  22736929.253    10477692.85549   8194478.17946  22736928.818    22736938.610
       225.000         174.000
  20474544.595   -14505970.99349 -11282599.19848  20474544.357    20474552.256
       246.000         215.000
  22335847.216   -15278450.75849 -11887727.50346  22335847.078    22335856.476
       227.000         178.000
  21421175.821   -16297876.65249 -12674500.88047  21421175.639    21421184.109
       240.000         197.000
 02  5 27  1 49 29.9990000  0  7G21G 1G22G14G25G20G11
  23869787.249    10664853.07749   8311190.78945  23869786.768    23869802.790
       210.000         145.000
  23744581.772    -7767631.61849  -6043229.45845  23744581.587    23744595.189
       213.000         155.000
  23970837.954    -6256167.96849  -4354556.35245  23970837.842    23970856.160
       208.000         152.000
  22747835.508    10535007.15949   8239138.62646  22747835.480    22747845.601
       225.000         174.000
  20476587.783   -14495233.29949 -11274232.15648  20476587.560    20476595.498
       246.000         215.000
  22317498.701   -15374872.60149 -11962861.31646  22317498.821    22317508.132
       228.000         179.000
  21422385.962   -16291516.23849 -12669544.72747  21422385.824    21422394.497
       240.000         198.000
 02  5 27  1 49 59.9990000  0  7G21G 1G22G14G25G20G11
  23884096.145    10740042.60249   8369779.87445  23884095.587    23884109.941
       212.000         145.000
  23729403.315    -7847393.57749  -6105381.45445  23729403.065    23729417.330
       212.000         156.000
  23949429.386    -6368672.76749  -4442222.03945  23949428.543    23949446.050
       210.000         152.000
  22758749.087    10592354.48949   8283824.79046  22758748.376    22758757.815
       225.000         174.000
  20478719.487   -14484031.05449 -11265503.13448  20478719.253    20478727.016
       246.000         215.000
  22299173.083   -15471176.25649 -12037903.03446  22299172.546    22299182.370
       229.000         180.000
  21423697.174   -16284627.40549 -12664176.81847  21423696.933    21423704.871
       240.000         197.000
 02  5 27  1 50 29.9990000  0  7G21G 1G22G14G25G20G11
  23898447.055    10815455.59749   8428543.08445  23898446.936    23898461.014
       212.000         145.000
  23714244.212    -7927051.43049  -6167452.33345  23714244.413    23714256.162
       209.000         149.000
  23928009.998    -6481236.87349  -4529933.93645  23928008.881    23928026.035
       214.000         153.000
  22769666.071    10649726.63449   8328530.33046  22769665.872    22769675.145
       225.000         173.000
  20480937.977   -14472373.50849 -11256419.33248  20480937.792    20480945.521
       246.000         215.000
  22280868.403   -15567367.31049 -12112857.00646  22280867.618    22280877.933
       228.000         180.000
  21425106.918   -16277219.02249 -12658404.07547  21425106.472    21425114.835
       240.000         198.000
 02  5 27  1 50 59.9990000  0  7G21G 1G22G14G25G20G11
  23912839.395    10891089.90049   8487478.72645  23912839.377    23912854.555
       210.000         144.000
  23699105.890    -8006606.68049  -6229443.24245  23699105.294    23699117.900
       211.000         151.000
  23906578.194    -6593858.43749  -4617690.61645  23906577.075    23906593.108
       214.000         153.000
  22780588.374    10707121.74749   8373253.72646  22780588.487    22780597.905
       224.000         171.000
  20483242.314   -14460263.35049 -11246982.84148  20483242.098    20483249.876
       245.000         215.000
  22262585.326   -15663445.03049 -12187722.67346  22262584.563    22262594.393
       228.000         179.000
  21426615.109   -16269293.26549 -12652228.17447  21426614.510    21426623.493
       240.000         197.000
 02  5 27  1 51 29.9990000  0  7G21G 1G22G14G25G20G11
  23927272.963    10966943.13449   8546584.99845  23927272.736    23927289.221
       207.000         143.000
  23683986.125    -8086060.95349  -6291355.43145  23683986.105    23683999.338
       217.000         155.000
  23885135.000    -6706536.00449  -4705490.93345  23885135.236    23885151.786
       213.000         152.000
  22791513.836    10764537.97649   8417993.60046  22791513.055    22791522.765
       223.000         172.000
  20485632.338   -14447703.08649 -11237195.61948  20485632.139    20485640.072
       245.000         215.000
  22244323.825   -15759408.90649 -12262499.62546  22244322.753    22244332.571
       229.000         180.000
  21428221.379   -16260852.75149 -12645651.16247  21428221.067    21428229.300
       240.000         197.000
 02  5 27  1 51 59.9990000  0  7G21G 1G22G14G25G20G11
  23941746.872    11043000.61049   8605850.40845  23941746.426    23941763.891
       210.000         144.000
  23668883.788    -8165428.05249  -6353199.71145  23668883.453    23668895.483
       219.000         159.000
  23863680.883    -6819280.24749  -4793343.22745  23863680.135    23863696.780
       211.000         150.000
  22802441.535    10821961.37049   8462739.04246  22802441.179    22802449.669
       225.000         173.000
  20488105.138   -14434707.82749 -11227069.44148  20488105.226    20488113.099
       245.000         215.000
  22226081.524   -15855270.69549 -12337197.04246  22226081.372    22226090.864
       229.000         181.000
  21429922.699   -16251912.16349 -12638684.47847  21429922.665    21429930.654
       240.000         197.000
 02  5 27  1 52 29.9990000  0  7G21G 1G22G14G25G20G11
  23956266.533    11119293.89249   8665299.55545  23956264.249    23956281.684
       210.000         145.000
  23653802.929    -8244676.53149  -6414951.54745  23653802.358    23653815.195
       219.000         161.000
  23842220.456    -6932056.71149  -4881220.60745  23842219.794    23842235.346
       211.000         150.000
  22813375.901    10879423.03749   8507514.32146  22813374.924    22813385.714
       224.000         172.000
  20490666.947   -14421247.22949 -11216580.65948  20490666.570    20490674.709
       245.000         215.000
  22207865.156   -15950996.70349 -12411788.65246  22207864.791    22207874.550
       229.000         181.000
  21431725.035   -16242440.95049 -12631304.32847  21431724.499    21431733.062
       240.000         198.000
 02  5 27  1 52 59.9990000  0  7G21G 1G22G14G25G20G11
  23970824.194    11195789.37349   8724906.22945  23970822.756    23970837.615
       213.000         145.000
  23638738.070    -8323838.34549  -6476635.90645  23638738.081    23638750.984
       215.000         158.000
  23820747.967    -7044893.86149  -4969145.27645  23820747.586    23820763.100
       212.000         150.000
  22824312.146    10936890.60149   8552294.18946  22824311.738    22824320.096
       224.000         170.000
  20493310.586   -14407354.79849 -11205755.38748  20493310.308    20493318.252
       245.000         214.000
  22189669.793   -16046616.65949 -12486297.63646  22189669.528    22189678.471
       230.000         182.000
  21433621.740   -16232472.23549 -12623536.50747  21433621.534    21433629.809
       239.000         196.000
 02  5 27  1 53 29.9990000  0  7G21G 1G22G14G25G20G11
  23985423.871    11272519.85049   8784696.02145  23985423.824    23985437.084
       210.000         145.000
  23623696.299    -8402880.21449  -6538226.76545  23623696.473    23623710.258
       214.000         159.000
  23799271.467    -7157755.20349  -5057088.80045  23799270.339    23799286.332
       210.000         148.000
  22835254.972    10994397.60449   8597104.79846  22835254.725    22835263.454
       224.000         172.000
  20496042.182   -14392998.16549 -11194568.39848  20496042.219    20496050.178
       245.000         215.000
  22171500.824   -16142095.06449 -12560696.31446  22171500.365    22171510.164
       231.000         182.000
  21435619.671   -16221973.46949 -12615355.66947  21435619.485    21435627.550
       239.000         197.000
 02  5 27  1 53 59.9990000  0  7G21G 1G22G14G25G20G11
  24000060.718    11349436.49349   8844630.87845  24000058.516    24000075.325
       207.000         142.000
  23608669.334    -8481849.77449  -6599761.33245  23608668.625    23608682.611
       214.000         160.000
  23777779.539    -7270685.41949  -5145086.00345  23777779.396    23777795.912
       208.000         147.000
  22846196.736    11051895.72249   8641908.48246  22846195.803    22846206.267
       225.000         172.000
  20498853.364   -14378226.55349 -11183058.04848  20498853.164    20498861.215
       246.000         215.000
  22153350.038   -16237477.66649 -12635020.34646  22153349.273    22153358.921
       231.000         181.000
  21437709.215   -16210993.37249 -12606799.75947  21437709.185    21437717.321
       239.000         197.000
 02  5 27  1 54 29.9990000  0  7G21G 1G22G14G25G20G11
  24014739.717    11426574.94049   8904738.57645  24014738.181    24014754.831
       206.000         141.000
  23593662.243    -8560711.35449  -6661211.67845  23593661.217    23593675.166
       216.000         161.000
  23756284.659    -7383645.38349  -5233106.39045  23756283.994    23756299.585
       208.000         147.000
  22857143.138    11109420.49949   8686732.93446  22857142.866    22857152.245
       224.000         173.000
  20501749.901   -14363005.13849 -11171197.20948  20501749.706    20501757.570
       246.000         215.000
  22135225.100   -16332726.32649 -12709240.02646  22135224.568    22135232.958
       231.000         181.000
  21439897.156   -16199497.19549 -12597841.71547  21439896.892    21439904.898
       239.000         197.000
 02  5 27  1 54 59.9990000  0  7G21G 1G22G14G25G20G11
  24029459.051    11503924.88349   8965011.08645  24029457.290    24029475.505
       207.000         142.000
  23578674.164    -8639474.35049  -6722585.25145  23578673.534    23578686.820
       218.000         161.000
  23734781.860    -7496641.46049  -5321154.91645  23734781.559    23734795.403
       207.000         147.000
  22868093.601    11166962.45549   8731570.79046  22868092.871    22868102.383
       225.000         171.000
  20504729.943   -14347344.86449 -11158994.39748  20504729.754    20504737.644
       245.000         214.000
  22117123.378   -16427848.39549 -12783361.03946  22117122.686    22117132.524
       231.000         182.000
  21442180.539   -16187495.60849 -12588489.84347  21442180.201    21442188.982
       239.000         197.000
 02  5 27  1 55 29.9990000  0  7G21G 1G22G14G25G20G11
  24044214.042    11581460.54149   9025428.31245  24044214.911    24044228.896
       207.000         144.000
  23563699.360    -8718163.74149  -6783901.44445  23563699.772    23563713.298
       219.000         162.000
  23713267.870    -7609695.28349  -5409248.42745  23713266.999    23713282.623
       208.000         144.000
  22879041.345    11224496.36349   8776402.37246  22879040.600    22879050.384
       223.000         171.000
  20507788.617   -14331271.97449 -11146470.07148  20507788.345    20507796.059
       246.000         215.000
  22099042.199   -16522866.53049 -12857401.08046  22099041.231    22099051.054
       231.000         183.000
  21444555.559   -16175014.55449 -12578764.36447  21444555.405    21444564.125
       239.000         197.000
 02  5 27  1 55 59.9990000  0  7G21G 1G22G14G25G20G11
  24059009.643    11659211.25649   9086013.08145  24059008.972    24059024.253
       205.000         142.000
  23548745.577    -8796748.66749  -6845136.21545  23548745.348    23548758.832
       220.000         161.000
  23691748.451    -7722772.67849  -5497360.32545  23691747.710    23691764.531
       204.000         146.000
  22889993.890    11282052.87949   8821251.57546  22889994.408    22890003.882
       223.000         171.000
  20510931.343   -14314756.74049 -11133601.06048  20510931.202    20510938.872
       246.000         215.000
  22080987.159   -16617747.62049 -12931334.32446  22080986.776    22080995.515
       232.000         183.000
  21447027.621   -16162024.37149 -12568642.16747  21447027.513    21447035.893
       239.000         196.000
 02  5 27  1 56 29.9990000  0  7G21G 1G22G14G25G20G11
  24073843.617    11737165.43149   9146756.40345  24073843.511    24073858.715
       199.000         139.000
  23533809.391    -8875240.05149  -6906298.12746  23533809.374    23533821.415
       222.000         164.000
  23670224.738    -7835881.66249  -5585496.82745  23670223.791    23670240.351
       208.000         146.000
  22900949.092    11339620.66149   8866109.54946  22900948.755    22900958.976
       222.000         171.000
  20514155.815   -14297811.46049 -11120396.94748  20514155.836    20514163.471
       246.000         215.000
  22062955.995   -16712500.51049 -13005167.67946  22062955.544    22062964.634
       232.000         183.000
  21449594.470   -16148536.99149 -12558132.53747  21449594.521    21449602.377
       239.000         197.000
 02  5 27  1 56 59.9990000  0  6G 1G22G14G25G20G11
  23518889.521    -8953640.11649  -6967388.88145  23518889.077    23518901.634
       217.000         162.000
  23648695.882    -7949020.89949  -5673656.91145  23648694.216    23648709.995
       209.000         148.000
  22911905.121    11397197.28149   8910974.42046  22911905.300    22911914.475
       222.000         171.000
  20517461.622   -14280439.92249 -11106860.68848  20517461.229    20517469.155
       246.000         214.000
  22044949.716   -16807125.04849 -13078901.02146  22044948.379    22044958.688
       232.000         183.000
  21452254.931   -16134555.85349 -12547238.16547  21452254.341    21452263.066
       239.000         196.000
 02  5 27  1 57 29.9990000  0  6G 1G22G14G25G20G11
  23503985.496    -9031961.74149  -7028418.54146  23503985.462    23503997.809
       217.000         164.000
  23627156.756    -8062200.29549  -5761848.26845  23627156.699    23627171.817
       209.000         149.000
  22922861.617    11454769.86849   8955836.12846  22922860.874    22922870.416
       223.000         170.000
  20520845.629   -14262655.97149 -11093003.06748  20520845.432    20520853.286
       245.000         214.000
  22026965.251   -16901631.89649 -13152542.63946  22026964.692    22026974.279
       232.000         184.000
  21455006.745   -16120094.93249 -12535969.93647  21455006.532    21455014.738
       240.000         196.000
 02  5 27  1 57 59.9990000  0  6G 1G22G14G25G20G11
  23489103.734    -9110164.74149  -7089355.75346  23489103.478    23489116.214
       217.000         164.000
  23605620.116    -8175376.03849  -5850036.81045  23605619.026    23605635.136
       208.000         151.000
  22933824.044    11512378.34449   9000725.81046  22933823.618    22933832.744
       221.000         170.000
  20524315.629   -14244421.22849 -11078794.17648  20524315.546    20524323.344
       245.000         214.000
  22009011.546   -16995978.74449 -13226059.58446  22009010.654    22009020.385
       232.000         184.000
  21457857.041   -16105115.24949 -12524297.47547  21457857.119    21457865.359
       238.000         196.000
 02  5 27  1 58 29.9990000  0  6G 1G22G14G25G20G11
  23474237.937    -9188283.54749  -7150227.40646  23474237.611    23474250.468
       218.000         164.000
  23584077.102    -8288579.52549  -5938246.97445  23584076.899    23584092.497
       209.000         151.000
  22944785.780    11569988.18249   9045616.55946  22944785.800    22944795.454
       221.000         169.000
  20527864.383   -14225771.70449 -11064262.07948  20527864.188    20527872.269
       245.000         214.000
  21991082.158   -17090197.90449 -13299477.03146  21991081.601    21991090.834
       233.000         185.000
  21460799.507   -16089652.69449 -12512248.75947  21460799.499    21460807.831
       239.000         196.000
 02  5 27  1 58 59.9990000  0  6G 1G22G14G25G20G11
  23459385.361    -9266335.59949  -7211047.01046  23459384.935    23459397.436
       221.000         167.000
  23562528.791    -8401824.70949  -6026489.62845  23562528.784    23562543.062
       213.000         155.000
  22955747.030    11627582.00649   9090494.83046  22955746.155    22955755.207
       223.000         170.000
  20531488.716   -14206725.57749 -11049420.94648  20531488.826    20531496.470
       245.000         214.000
  21973174.620   -17184304.07149 -13372806.44146  21973173.901    21973182.900
       233.000         184.000
  21463830.476   -16073725.38949 -12499837.90347  21463830.488    21463838.832
       239.000         196.000
 02  5 27  1 59 29.9990000  0  6G 1G22G14G25G20G11
  23444548.530    -9344303.26549  -7271800.85746  23444548.502    23444560.536
       221.000         168.000
  23540975.149    -8515090.65849  -6114748.45545  23540974.045    23540988.278
       214.000         156.000
  22966706.475    11685177.04349   9135374.03946  22966705.822    22966715.920
       222.000         171.000
  20535191.820   -14187266.71249 -11034258.19748  20535191.411    20535199.485
       245.000         214.000
  21955291.789   -17278277.53549 -13446032.43946  21955291.597    21955299.829
       233.000         185.000
  21466953.108   -16057317.08149 -12487052.23847  21466952.877    21466961.363
       239.000         196.000
 02  5 27  1 59 59.9990000  0  6G 1G22G14G25G20G11
  23429724.653    -9422205.35249  -7332503.60446  23429723.873    23429735.649
       226.000         164.000
  23519413.624    -8628393.02149  -6203035.65745  23519412.981    23519428.044
       216.000         157.000
  22977662.801    11742754.35849   9180239.44046  22977662.651    22977672.122
       222.000         169.000
  20538969.323   -14167415.48149 -11018789.71048  20538969.186    20538977.127
       245.000         214.000
  21937431.503   -17372134.68949 -13519167.81046  21937430.781    21937439.362
       233.000         185.000
  21470163.151   -16040447.88049 -12473907.43047  21470163.080    21470171.244
       238.000         196.000
 02  5 27  2  0 29.9990000  0  6G 1G22G14G25G20G11
  23414918.485    -9500010.78249  -7393131.02446  23414919.000    23414930.161
       222.000         163.000
  23497851.866    -8741697.23249  -6291324.32245  23497850.827    23497866.109
       214.000         158.000
  22988622.458    11800344.79149   9225115.06046  22988622.041    22988630.635
       221.000         169.000
  20542827.326   -14147142.02049 -11002992.21248  20542827.067    20542834.954
       245.000         214.000
  21919599.066   -17465842.31049 -13592186.65246  21919599.000    21919607.716
       233.000         185.000
  21473466.527   -16023088.14649 -12460380.39247  21473465.934    21473474.765
       238.000         195.000
 02  5 27  2  0 59.9990000  0  6G 1G22G14G25G20G11
  23400126.950    -9577734.14149  -7453694.49045  23400127.032    23400139.136
       219.000         159.000
  23476287.806    -8855014.61449  -6379623.25545  23476287.144    23476302.385
       215.000         159.000
  22999580.753    11857933.91349   9269989.64446  22999580.589    22999589.928
       221.000         169.000
  20546762.551   -14126462.28749 -10986878.13848  20546762.422    20546770.408
       245.000         214.000
  21901793.652   -17559412.61849 -13665098.50446  21901793.201    21901801.533
       234.000         186.000
  21476860.227   -16005253.55049 -12446483.33447  21476860.361    21476868.487
       239.000         196.000
 02  5 27  2  1 29.9990000  0  6G 1G22G14G25G20G11
  23385352.199    -9655380.56749  -7514198.05445  23385351.828    23385362.901
       215.000         157.000
  23454721.972    -8968346.93049  -6467933.83845  23454721.644    23454736.338
       217.000         160.000
  23010538.861    11915516.34049   9314859.02346  23010537.793    23010547.574
       221.000         168.000
  20550773.610   -14105383.14349 -10970452.83148  20550773.594    20550781.446
       245.000         214.000
  21884013.129   -17652848.41549 -13737905.53646  21884012.786    21884021.594
       233.000         187.000
  21480343.410   -15986950.63349 -12432221.35547  21480343.059    21480351.382
       238.000         196.000
 02  5 27  2  1 59.9990000  0  6G 1G22G14G25G20G11
  23370587.888    -9732963.35449  -7574652.01045  23370587.543    23370600.228
       214.000         157.000
  23433150.912    -9081704.08849  -6556263.77445  23433150.446    23433165.213
       217.000         161.000
  23021491.782    11973078.83449   9359712.88246  23021491.798    23021501.936
       220.000         168.000
  20554857.986   -14083919.02549 -10953727.54848  20554858.040    20554865.879
       245.000         214.000
  21866256.281   -17746160.51849 -13810616.19046  21866255.828    21866265.107
       233.000         187.000
  21483912.728   -15968194.00449 -12417605.82547  21483912.324    21483920.940
       238.000         195.000
 02  5 27  2  2 29.9990000  0  6G 1G22G14G25G20G11
  23355840.420    -9810462.79749  -7635041.06645  23355840.128    23355852.782
       214.000         162.000
  23411578.691    -9195063.09649  -6644595.15845  23411578.142    23411592.288
       217.000         161.000
  23032446.374    12030640.91649   9404566.39346  23032445.446    23032455.673
       221.000         168.000
  20559019.386   -14062051.87849 -10936688.21348  20559019.196    20559027.090
       245.000         214.000
  21848527.131   -17839327.03549 -13883213.39646  21848527.121    21848535.610
       233.000         186.000
  21487571.598   -15948965.35049 -12402622.48347  21487571.658    21487580.110
       238.000         195.000
 02  5 27  2  2 59.9990000  0  6G 1G22G14G25G20G11
  23341106.636    -9887886.37549  -7695370.97545  23341107.267    23341118.311
       216.000         162.000
  23390005.882    -9308428.10649  -6732931.23345  23390005.050    23390019.799
       217.000         161.000
  23043396.972    12088194.82749   9449413.56746  23043396.795    23043407.358
       219.000         167.000
  20563255.570   -14039790.65449 -10919341.80748  20563255.364    20563263.386
       245.000         214.000
  21830825.098   -17932353.25149 -13955701.26846  21830824.434    21830833.594
       233.000         187.000
  21491318.987   -15929273.60849 -12387278.30047  21491318.678    21491327.120
       238.000         195.000
 02  5 27  2  3 29.9990000  0  6G 1G22G14G25G20G11
  23326387.490    -9965234.23549  -7755641.90546  23326387.542    23326399.903
       219.000         167.000
  23368432.553    -9421795.82049  -6821269.42745  23368432.237    23368447.241
       216.000         161.000
  23054349.746    12145740.53749   9494254.33146  23054348.847    23054357.811
       221.000         167.000
  20567566.256   -14017137.14249 -10901689.71848  20567566.195    20567574.014
       245.000         214.000
  21813149.645   -18025236.87849 -14028078.04246  21813149.549    21813158.002
       233.000         187.000
  21495154.062   -15909120.14549 -12371574.33147  21495153.765    21495162.349
       239.000         195.000
 02  5 27  2  3 59.9990000  0  6G 1G22G14G25G20G11
  23311683.984   -10042503.41849  -7815851.50246  23311684.186    23311696.453
       218.000         168.000
  23346860.240    -9535159.90149  -6909604.79145  23346859.421    23346873.776
       215.000         161.000
  23065298.005    12203280.79449   9539090.87546  23065298.039    23065307.490
       222.000         168.000
  20571952.047   -13994089.61549 -10883730.60648  20571951.959    20571959.895
       244.000         213.000
  21795502.212   -18117972.47849 -14100339.46947  21795502.084    21795510.418
       233.000         188.000
  21499077.226   -15888503.43049 -12355509.38847  21499077.013    21499085.349
       238.000         195.000
 02  5 27  2  4 29.9990000  0  7G 1G22G14G 2G25G20G11
  23296997.072   -10119681.24149  -7875989.93946  23296997.103    23297009.046
       219.000         164.000
  23325290.839    -9648504.26049  -6997924.79145  23325290.652    23325305.018
       214.000         160.000
  23076249.550    12260828.27249   9583933.03046  23076249.532    23076258.749
       222.000         168.000
  24296258.426    -5126598.84559  -1825284.63055  24296257.189    24296274.716
       207.000         141.000
  20576414.944   -13970636.98449 -10865455.83748  20576414.888    20576422.842
       245.000         213.000
  21777886.239   -18210545.09349 -14172473.89347  21777886.080    21777894.483
       234.000         189.000
  21503090.756   -15867412.24649 -12339074.72047  21503090.622    21503099.108
       238.000         195.000
 02  5 27  2  4 59.9990000  0  7G 1G22G14G 2G25G20G11
  23282328.119   -10196767.75649  -7936057.20546  23282327.923    23282340.341
       218.000         164.000
  23303726.462    -9761825.45749  -7086226.73745  23303725.730    23303739.288
       215.000         158.000
  23087200.609    12318382.95649   9628780.79846  23087201.140    23087211.206
       220.000         168.000
  24277683.042    -5224212.95349  -1901347.12345  24277681.448    24277698.291
       204.000         139.000
  20580954.813   -13946780.53449 -10846866.40248  20580954.610    20580962.401
       245.000         213.000
  21760302.025   -18302952.30549 -14244479.43447  21760301.914    21760310.325
       234.000         189.000
  21507194.555   -15845847.96649 -12322271.41747  21507194.278    21507202.885
       238.000         195.000
 02  5 27  2  5 29.9990000  0  7G 1G22G14G 2G25G20G11
  23267670.839   -10273792.70349  -7996076.50845  23267671.050    23267681.916
       215.000         159.000
  23282160.487    -9875150.07749  -7174531.35945  23282160.425    23282174.230
       214.000         157.000
  23098150.933    12375914.92449   9673610.87246  23098149.464    23098159.050
       224.000         169.000
  24259085.179    -5321940.49149  -1977497.99145  24259084.313    24259102.350
       204.000         140.000
  20585565.343   -13922551.69549 -10827986.79148  20585565.191    20585572.860
       245.000         213.000
  21742743.782   -18395221.77649 -14316377.64047  21742743.443    21742751.731
       234.000         189.000
  21511381.932   -15823841.85349 -12305123.82347  21511381.491    21511390.506
       238.000         195.000
 02  5 27  2  5 59.9990000  0  7G 1G22G14G 2G25G20G11
  23253025.949   -10350748.11849  -8056041.63145  23253025.717    23253037.511
       214.000         155.000
  23260597.133    -9988466.42649  -7262829.54745  23260596.962    23260610.221
       212.000         156.000
  23109094.422    12433432.20449   9718429.50446  23109094.476    23109103.343
       223.000         168.000
  24240467.079    -5419770.53649  -2053728.72945  24240467.225    24240484.860
       203.000         139.000
  20590247.756   -13897944.32049 -10808812.21348  20590247.764    20590255.551
       245.000         213.000
  21725213.260   -18487342.94849 -14388160.28747  21725212.627    21725221.802
       233.000         189.000
  21515655.101   -15801387.57549 -12287627.01347  21515654.665    21515663.285
       238.000         195.000
 02  5 27  2  6 29.9990000  0  7G 1G22G14G 2G25G20G11
  23238398.104   -10427623.71349  -8115944.57045  23238397.926    23238408.285
       216.000         154.000
  23239038.181   -10101760.76649  -7351110.57645  23239036.734    23239051.376
       213.000         156.000
  23120039.596    12490945.20749   9763244.79946  23120038.468    23120048.002
       222.000         166.000
  24221833.816    -5517690.15949  -2130029.26645  24221833.584    24221852.346
       202.000         140.000
  20595004.225   -13872949.07549 -10789335.40248  20595003.977    20595011.994
       245.000         213.000
  21707713.727   -18579303.07149 -14459817.43547  21707712.674    21707722.243
       233.000         189.000
  21520014.819   -15778476.16449 -12269773.99047  21520014.422    21520022.866
       239.000         194.000
 02  5 27  2  6 59.9990000  0  7G 1G22G14G 2G25G20G11
  23223785.105   -10504411.92449  -8175779.38945  23223784.829    23223797.030
       215.000         155.000
  23217484.157   -10215022.43449  -7439366.15745  23217484.121    23217498.433
       211.000         155.000
  23130983.280    12548461.22449   9808062.45246  23130983.394    23130993.969
       221.000         166.000
  24203185.110    -5615689.23249  -2206391.72945  24203184.345    24203202.160
       203.000         142.000
  20599835.729   -13847560.23949 -10769551.89648  20599835.582    20599843.596
       245.000         213.000
  21690246.955   -18671092.07449 -14531341.25447  21690246.163    21690255.411
       234.000         189.000
  21524463.067   -15755101.80749 -12251560.23147  21524462.652    21524471.408
       238.000         195.000
 02  5 27  2  7 29.9990000  0  7G 1G22G14G 2G25G20G11
  23209184.876   -10581137.68149  -8235565.57845  23209184.609    23209195.805
       219.000         160.000
  23195934.085   -10328272.61449  -7527612.78945  23195933.411    23195946.604
       212.000         155.000
  23141925.398    12605955.43349   9852863.10346  23141924.641    23141933.624
       221.000         166.000
  24184516.595    -5713790.18949  -2282833.57745  24184516.213    24184534.099
       202.000         144.000
  20604736.825   -13821804.23749 -10749482.29048  20604736.845    20604744.617
       245.000         213.000
  21672808.498   -18762732.78049 -14602749.51547  21672807.653    21672816.445
       235.000         190.000
  21528994.168   -15731290.75949 -12233006.19347  21528993.817    21529001.968
       238.000         195.000
 02  5 27  2  7 59.9990000  0  7G 1G22G14G 2G25G20G11
  23194602.680   -10657765.40649  -8295275.35945  23194601.731    23194614.312
       220.000         162.000
  23174393.098   -10441472.27749  -7615820.06145  23174391.625    23174405.382
       212.000         156.000
  23152868.656    12663463.44949   9897674.53346  23152867.904    23152876.821
       222.000         165.000
  24165835.629    -5811954.58849  -2359324.85845  24165834.667    24165852.065
       201.000         143.000
  20609714.417   -13795646.93949 -10729099.98448  20609714.480    20609722.089
       245.000         213.000
  21655404.985   -18854186.94849 -14674012.42647  21655404.282    21655413.627
       235.000         190.000
  21533614.789   -15707008.94949 -12214085.32847  21533614.497    21533623.117
       238.000         195.000
 02  5 27  2  8 29.9990000  0  7G 1G22G14G 2G25G20G11
  23180036.533   -10734312.95849  -8354922.67146  23180036.056    23180046.899
       221.000         164.000
  23152858.172   -10554636.04749  -7703999.35645  23152857.925    23152870.603
       213.000         156.000
  23163811.280    12720967.39149   9942482.76646  23163810.815    23163820.154
       219.000         163.000
  24147140.287    -5910197.74649  -2435877.48545  24147139.414    24147157.281
       202.000         144.000
  20614764.850   -13769107.92249 -10708420.23648  20614764.639    20614772.095
       245.000         213.000
  21638034.261   -18945469.95949 -14745141.96847  21638033.741    21638043.063
       235.000         191.000
  21538321.071   -15682275.66449 -12194812.65247  21538321.293    21538329.484
       238.000         194.000
 02  5 27  2  8 59.9990000  0  7G 1G22G14G 2G25G20G11
  23165482.105   -10810797.56449  -8414520.93246  23165481.220    23165493.363
       223.000         169.000
  23131328.429   -10667777.39649  -7792161.18745  23131327.488    23131340.669
       213.000         156.000
  23174748.636    12778449.96749   9987274.35145  23174749.076    23174758.263
       218.000         160.000
  24128426.617    -6008534.14149  -2512502.77745  24128426.201    24128445.141
       204.000         145.000
  20619883.947   -13742205.91449 -10687457.63648  20619883.768    20619891.761
       245.000         213.000
  21620693.407   -19036596.66149 -14816149.71247  21620693.262    21620701.807
       235.000         191.000
  21543110.146   -15657109.89749 -12175202.98447  21543109.991    21543118.579
       238.000         194.000
 02  5 27  2  9 29.9990000  0  7G 1G22G14G 2G25G20G11
  23150933.388   -10887248.66249  -8474093.10446  23150933.304    23150944.673
       221.000         169.000
  23109796.388   -10780922.31949  -7880325.82345  23109795.571    23109809.904
       213.000         156.000
  23185678.995    12835881.86749  10032026.44845  23185679.380    23185688.244
       219.000         161.000
  24109690.882    -6106990.30449  -2589221.40445  24109690.405    24109708.461
       205.000         146.000
  20625066.720   -13714971.88649 -10666236.31648  20625066.419    20625074.211
       245.000         213.000
  21603377.129   -19127594.03049 -14887056.67847  21603376.885    21603385.832
       235.000         192.000
  21547975.565   -15631542.51649 -12155280.36847  21547975.563    21547983.979
       238.000         194.000
 02  5 27  2  9 59.9990000  0  7G 1G22G14G 2G25G20G11
  23136402.781   -10963606.28849  -8533592.45446  23136402.679    23136414.104
       218.000         166.000
  23088276.390   -10894007.31949  -7968443.76845  23088276.275    23088290.117
       212.000         156.000
  23196609.247    12893322.78649  10076785.56445  23196608.832    23196618.563
       218.000         161.000
  24090944.190    -6205503.75449  -2665984.66945  24090943.761    24090961.436
       204.000         146.000
  20630323.217   -13687347.54449 -10644710.86448  20630323.116    20630331.009
       245.000         213.000
  21586097.485   -19218399.68949 -14957814.26647  21586096.847    21586105.569
       236.000         192.000
  21552928.365   -15605515.50149 -12134999.59247  21552928.132    21552936.548
       237.000         194.000
 02  5 27  2 10 29.9990000  0  7G 1G22G14G 2G25G20G11
  23121883.352   -11039906.60549  -8593047.12646  23121882.869    23121893.903
       218.000         164.000
  23066763.174   -11007065.29849  -8056540.64645  23066761.905    23066775.775
       216.000         157.000
  23207534.343    12950736.83349  10121523.72345  23207533.844    23207544.017
       217.000         158.000
  24072180.044    -6304108.17149  -2742818.83645  24072179.422    24072197.595
       207.000         147.000
  20635647.024   -13659370.33049 -10622910.43948  20635646.945    20635655.039
       244.000         213.000
  21568847.625   -19309047.39149 -15028448.76147  21568847.121    21568856.309
       235.000         193.000
  21557961.334   -15579066.56449 -12114390.05047  21557961.093    21557969.682
       238.000         194.000
 02  5 27  2 10 59.9990000  0  7G 1G22G14G 2G25G20G11
  23107378.333   -11116131.66149  -8652443.18646  23107377.851    23107389.665
       216.000         163.000
  23045257.597   -11120074.61049  -8144599.60245  23045256.389    23045269.913
       217.000         160.000
  23218458.361    13008142.01149  10166254.98645  23218458.892    23218468.114
       215.000         157.000
  24053403.883    -6402782.71449  -2819707.65645  24053403.482    24053420.108
       210.000         150.000
  20641041.146   -13631024.30049 -10600822.63148  20641041.086    20641048.969
       245.000         213.000
  21551631.788   -19399516.48549 -15098944.08047  21551631.588    21551640.502
       235.000         194.000
  21563077.919   -15552179.21249 -12093438.88247  21563077.775    21563086.036
       238.000         194.000
 02  5 27  2 11 29.9990000  0  7G 1G22G14G 2G25G20G11
  23092886.253   -11192283.25049  -8711781.99345  23092885.566    23092897.016
       213.000         160.000
  23023762.090   -11233033.41649  -8232619.19845  23023761.695    23023774.685
       217.000         161.000
  23229381.019    13065536.64749  10210978.02745  23229379.691    23229390.082
       214.000         156.000
  24034612.451    -6501526.24649  -2896650.21345  24034611.451    24034628.756
       211.000         151.000
  20646504.758   -13602312.57649 -10578449.86248  20646504.665    20646512.662
       245.000         213.000
  21534450.328   -19489806.50349 -15169299.86747  21534449.804    21534458.779
       236.000         193.000
  21568276.878   -15524856.73949 -12072148.65447  21568276.717    21568285.764
       237.000         193.000
 02  5 27  2 11 59.9990000  0  7G 1G22G14G 2G25G20G11
  23078412.715   -11268344.00249  -8771050.03545  23078412.466    23078423.770
       217.000         160.000
  23002279.847   -11345920.79249  -8320583.14646  23002278.990    23002292.965
       218.000         163.000
  23240303.508    13122938.32349  10255706.59145  23240302.897    23240312.450
       216.000         157.000
  24015811.616    -6600318.91549  -2973631.06645  24015812.257    24015830.076
       212.000         152.000
  20652041.073   -13573219.20849 -10555779.71247  20652040.847    20652048.787
       244.000         212.000
  21517306.925   -19579897.59449 -15239500.64547  21517306.273    21517315.137
       236.000         194.000
  21573562.069   -15497083.76649 -12050507.40047  21573561.843    21573570.725
       237.000         193.000
 02  5 27  2 12 29.9990000  0  7G 1G22G14G 2G25G20G11
  23063951.882   -11344335.41849  -8830264.01045  23063952.016    23063963.470
       220.000         162.000
  22980808.535   -11458755.03549  -8408505.69146  22980807.552    22980821.450
       218.000         164.000
  23251222.828    13180325.24949  10300423.64345  23251222.553    23251233.868
       213.000         156.000
  23996998.256    -6699179.59649  -3050664.93245  23996998.342    23997016.225
       212.000         151.000
  20657645.448   -13543767.64149 -10532830.44747  20657645.502    20657653.371
       245.000         211.000
  21500196.580   -19669808.60749 -15309561.10547  21500196.381    21500205.126
       236.000         194.000
  21578928.567   -15468883.44449 -12028533.13747  21578928.778    21578937.193
       238.000         193.000
 02  5 27  2 12 59.9990000  0  7G 1G22G14G 2G25G20G11
  23049509.090   -11420234.59049  -8889406.11046  23049508.847    23049519.982
       223.000         164.000
  22959352.390   -11571509.51549  -8496366.07846  22959351.567    22959364.907
       220.000         165.000
  23262147.330    13237720.52849  10345147.17845  23262145.824    23262154.205
       217.000         157.000
  23978178.083    -6798082.57749  -3127731.75445  23978177.488    23978195.334
       211.000         150.000
  20663322.125   -13513936.47449 -10509585.38947  20663322.021    20663329.965
       245.000         212.000
  21483126.228   -19759514.40549 -15379461.66347  21483125.768    21483134.766
       237.000         193.000
  21584380.475   -15440234.64549 -12006209.41147  21584380.354    21584388.770
       238.000         193.000
 02  5 27  2 13 29.9990000  0  7G 1G22G14G 2G25G20G11
  23035081.643   -11496048.99449  -8948482.12846  23035081.759    23035092.809
       224.000         167.000
  22937909.811   -11684188.29049  -8584167.47545  22937908.903    22937922.560
       220.000         162.000
  23273068.373    13295116.79049  10389871.49345  23273066.856    23273078.553
       213.000         158.000
  23959349.166    -6897032.83049  -3204835.40945  23959349.179    23959364.253
       199.000         142.000
  20669069.483   -13483734.48849 -10486051.38047  20669069.469    20669077.296
       244.000         212.000
  21466094.098   -19849019.84849 -15449206.10447  21466093.430    21466102.464
       238.000         194.000
  21589915.611   -15411146.38649 -11983543.25747  21589915.466    21589923.541
       237.000         192.000
 02  5 27  2 13 59.9990000  0  7G 1G22G14G 2G25G20G11
  23020669.350   -11571785.81849  -9007497.72746  23020669.389    23020681.428
       226.000         169.000
  22916480.470   -11796795.01549  -8671912.74446  22916480.453    22916493.649
       218.000         166.000
  23283988.703    13352506.77149  10434590.93645  23283988.627    23283998.559
       215.000         159.000
  23940508.530    -6996034.53449  -3281979.15345  23940507.951    23940525.705
       210.000         147.000
  20674885.736   -13453170.79649 -10462235.52247  20674885.541    20674893.458
       244.000         212.000
  21449098.677   -19938329.51749 -15518797.99247  21449098.352    21449107.137
       237.000         195.000
  21595532.840   -15381627.70649 -11960541.70647  21595532.943    21595541.475
       237.000         193.000
 02  5 27  2 14 29.9990000  0  7G 1G22G14G 2G25G20G11
  23006274.193   -11647434.88249  -9066444.92346  23006273.020    23006285.178
       226.000         171.000
  22895068.806   -11909316.04749  -8759591.24246  22895067.778    22895080.436
       217.000         167.000
  23294911.289    13409900.79649  10479313.50945  23294910.112    23294920.589
       215.000         160.000
  23921660.676    -7095075.06549  -3359153.16845  23921659.492    23921677.961
       209.000         146.000
  20680772.065   -13422237.00249 -10438131.27647  20680771.811    20680779.871
       245.000         212.000
  21432143.206   -20027431.01249 -15588227.66347  21432142.482    21432151.956
       236.000         195.000
  21601233.328   -15351670.53349 -11937198.48047  21601233.327    21601241.683
       236.000         193.000
 02  5 27  2 14 59.9990000  0  7G 1G22G14G 2G25G20G11
  22991894.754   -11722997.57149  -9125324.83746  22991894.701    22991905.962
       224.000         170.000
  22873674.055   -12021749.18049  -8847201.24246  22873672.970    22873685.565
       219.000         167.000
  23305833.567    13467297.65049  10524038.31645  23305833.349    23305842.947
       216.000         161.000
  23902806.299    -7194153.09549  -3436356.41145  23902806.249    23902823.461
       208.000         145.000
  20686728.375   -13390936.35849 -10413741.17347  20686728.212    20686736.073
       244.000         211.000
  21415227.596   -20116323.21749 -15657494.25447  21415227.286    21415236.216
       236.000         195.000
  21607017.001   -15321277.76549 -11913515.82547  21607017.031    21607025.622
       236.000         192.000
 02  5 27  2 15 29.9980000  0  7G 1G22G14G 2G25G20G11
  22977530.555   -11798481.22649  -9184143.16546  22977529.669    22977541.159
       222.000         170.000
  22852294.856   -12134096.90849  -8934744.69346  22852293.574    22852307.397
       219.000         168.000
  23316754.141    13524685.36549  10568755.99245  23316753.441    23316763.429
       217.000         161.000
  23883945.362    -7293272.49649  -3513591.90245  23883945.003    23883962.452
       209.000         143.000
  20692751.944   -13359281.45149 -10389075.01647  20692752.006    20692759.682
       243.000         211.000
  21398350.882   -20205010.40449 -15726601.09347  21398349.856    21398359.171
       237.000         194.000
  21612881.322   -15290462.28249 -11889503.78847  21612880.903    21612889.395
       237.000         192.000
 02  5 27  2 15 59.9980000  0  7G 1G22G14G 2G25G20G11
  22963184.012   -11873871.49649  -9242888.74946  22963183.660    22963195.727
       220.000         170.000
  22830932.815   -12246343.91649  -9022209.67246  22830932.629    22830946.347
       217.000         168.000
  23327676.968    13582087.46149  10613484.88645  23327676.036    23327686.814
       217.000         162.000
  23865078.191    -7392417.54649  -3590847.38745  23865077.433    23865093.890
       209.000         143.000
  20698847.130   -13327252.26949 -10364117.21947  20698847.029    20698854.730
       243.000         211.000
  21381516.323   -20293476.59549 -15795535.73247  21381515.810    21381524.574
       237.000         195.000
  21618829.321   -15259204.21449 -11865146.88847  21618829.231    21618837.570
       236.000         192.000
 02  5 27  2 16 29.9980000  0  7G 1G22G14G 2G25G20G11
  22948851.457   -11949187.69749  -9301576.59746  22948851.262    22948862.958
       219.000         170.000
  22809589.825   -12358504.36349  -9109607.20046  22809589.244    22809601.891
       216.000         167.000
  23338599.150    13639480.35149  10658206.59445  23338598.497    23338608.236
       218.000         162.000
  23846202.638    -7491603.80849  -3668134.99745  23846201.621    23846218.140
       208.000         143.000
  20705008.643   -13294873.06449 -10338886.67947  20705008.602    20705016.486
       243.000         212.000
  21364720.797   -20381737.82849 -15864310.66847  21364720.579    21364729.166
       238.000         195.000
  21624857.121   -15227528.21149 -11840464.32047  21624857.232    21624865.431
       236.000         191.000
 02  5 27  2 16 59.9980000  0  7G 1G22G14G 2G25G20G11
  22934533.379   -12024430.17049  -9360207.01146  22934533.256    22934544.518
       217.000         168.000
  22788264.305   -12470575.25649  -9196934.93646  22788262.932    22788275.523
       217.000         166.000
  23349517.010    13696863.88949  10702921.02246  23349517.398    23349527.873
       218.000         163.000
  23827321.170    -7590829.02349  -3745452.94445  23827319.707    23827337.318
       207.000         143.000
  20711236.393   -13262146.06349 -10313385.12947  20711236.218    20711244.427
       243.000         211.000
  21347964.628   -20469792.18849 -15932924.40447  21347964.272    21347972.783
       239.000         196.000
  21630963.691   -15195436.56949 -11815457.87747  21630963.757    21630972.324
       236.000         192.000
 02  5 27  2 17 29.9980000  0  7G 1G22G14G 2G25G20G11
  22920234.855   -12099569.77949  -9418757.28146  22920234.590    22920245.862
       218.000         168.000
  22766960.342   -12582524.02549  -9284167.50346  22766959.766    22766972.218
       217.000         167.000
  23360442.714    13754267.16749  10747650.81746  23360441.908    23360451.715
       221.000         164.000
  23808437.439    -7690061.56549  -3822776.60745  23808436.061    23808452.979
       204.000         142.000
  20717535.409   -13229044.08649 -10287591.39147  20717535.274    20717543.493
       242.000         211.000
  21331253.846   -20557608.18749 -16001352.40947  21331253.260    21331262.182
       238.000         196.000
  21637154.984   -15162902.22849 -11790106.48547  21637154.911    21637163.411
       237.000         192.000
 02  5 27  2 17 59.9980000  0  7G 1G22G14G 2G25G20G11
  22905946.941   -12174651.80349  -9477262.67446  22905947.446    22905958.174
       220.000         169.000
  22745670.615   -12694392.15449  -9371337.24946  22745670.857    22745684.960
       215.000         165.000
  23371360.665    13811644.89449  10792360.71346  23371360.940    23371370.352
       220.000         165.000
  23789545.763    -7789343.68449  -3900138.88645  23789545.436    23789561.008
       208.000         143.000
  20723897.092   -13195613.92249 -10261541.92147  20723896.791    20723904.928
       243.000         211.000
  21314579.916   -20645228.32649 -16069627.78647  21314579.611    21314588.285
       238.000         196.000
  21643421.315   -15129972.27349 -11764446.82147  21643421.207    21643429.795
       235.000         191.000
 02  5 27  2 18 29.9980000  0  7G 1G22G14G 2G25G20G11
  22891677.233   -12249640.92649  -9535695.65946  22891677.279    22891688.842
       223.000         172.000
  22724406.196   -12806140.69949  -9458413.83946  22724405.865    22724420.065
       216.000         166.000
  23382282.064    13869032.52749  10837078.32746  23382280.919    23382290.431
       220.000         165.000
  23770650.166    -7888637.20049  -3977510.06745  23770650.040    23770664.563
       208.000         143.000
  20730327.428   -13161821.71649 -10235210.33947  20730327.395    20730335.388
       242.000         211.000
  21297951.037   -20732614.77649 -16137721.07447  21297950.456    21297959.296
       238.000         196.000
  21649769.391   -15096613.30649 -11738452.86247  21649769.036    21649777.541
       236.000         190.000
 02  5 27  2 18 59.9980000  0  7G 1G22G14G 2G25G20G11
  22877424.806   -12324536.58549  -9594055.80446  22877424.395    22877436.847
       225.000         172.000
  22703166.600   -12917765.82449  -9545394.24646  22703164.619    22703177.714
       217.000         166.000
  23393203.053    13926430.89649  10881804.31346  23393203.329    23393213.633
       220.000         166.000
  23751752.023    -7987939.17049  -4054887.83945  23751751.766    23751767.732
       206.000         143.000
  20736826.336   -13127668.83649 -10208597.71047  20736826.335    20736834.391
       243.000         210.000
  21281366.794   -20819764.78249 -16205630.12347  21281366.316    21281375.102
       238.000         196.000
  21656198.916   -15062826.49449 -11712125.52147  21656198.709    21656206.969
       237.000         190.000
 02  5 27  2 19 29.9980000  0  7G 1G22G14G 2G25G20G11
  22863188.471   -12399351.19149  -9652352.80546  22863188.057    22863198.691
       226.000         172.000
  22681945.852   -13029276.22549  -9632285.23346  22681944.865    22681957.940
       216.000         166.000
  23404125.898    13983827.64149  10926529.03746  23404125.795    23404136.237
       221.000         166.000
  23732852.026    -8087259.08249  -4132279.59545  23732852.128    23732867.237
       209.000         146.000
  20743391.453   -13093169.47449 -10181715.09247  20743391.268    20743399.128
       242.000         210.000
  21264825.890   -20906687.94349 -16273362.41147  21264825.278    21264834.068
       238.000         196.000
  21662707.091   -15028626.39049 -11685476.14147  21662706.884    21662715.897
       237.000         191.000
 02  5 27  2 19 59.9980000  0  7G 1G22G14G 2G25G20G11
  22848966.193   -12474087.05949  -9710588.46146  22848966.253    22848976.672
       224.000         171.000
  22660746.690   -13140670.45249  -9719085.71346  22660745.988    22660759.997
       216.000         165.000
  23415047.057    14041220.65549  10971250.84946  23415046.498    23415056.883
       221.000         166.000
  23713947.688    -8186596.43949  -4209684.93845  23713947.848    23713963.546
       206.000         147.000
  20750021.828   -13058327.45549 -10154565.46947  20750021.621    20750029.777
       243.000         211.000
  21248328.255   -20993384.11449 -16340917.81547  21248327.571    21248336.583
       238.000         198.000
  21669292.796   -14994017.20149 -11658507.99347  21669292.666    21669301.246
       236.000         191.000
 02  5 27  2 20 29.9980000  0  7G 1G22G14G 2G25G20G11
  22834757.888   -12548752.65649  -9768769.33046  22834758.372    22834768.418
       225.000         171.000
  22639570.529   -13251953.77949  -9805799.78646  22639569.519    22639583.367
       217.000         165.000
  23425966.547    14098601.63249  11015963.27546  23425966.281    23425976.161
       221.000         165.000
  23695041.802    -8285956.99949  -4287108.37045  23695040.561    23695056.436
       210.000         149.000
  20756715.470   -13023153.30549 -10127157.04647  20756715.136    20756723.017
       243.000         211.000
  21231872.318   -21079859.21549 -16408300.95647  21231871.880    21231880.586
       238.000         198.000
  21675954.560   -14959009.45449 -11631229.27447  21675954.315    21675963.294
       235.000         190.000
 02  5 27  2 20 59.9980000  0  7G 1G22G14G 2G25G20G11
  22820567.031   -12623326.55049  -9826878.76146  22820565.791    22820577.848
       224.000         170.000
  22618421.584   -13363100.89849  -9892407.72346  22618420.521    22618432.107
       219.000         166.000
  23436887.603    14155991.96949  11060683.01046  23436887.241    23436897.380
       221.000         165.000
  23676134.347    -8385316.53749  -4364531.01345  23676132.288    23676148.399
       212.000         150.000
  20763475.756   -12987627.08049 -10099474.27647  20763475.615    20763483.756
       243.000         211.000
  21215463.279   -21166089.19049 -16475493.09347  21215462.445    21215471.472
       238.000         198.000
  21682695.865   -14923583.66949 -11603624.81947  21682696.114    21682704.583
       235.000         190.000
 02  5 27  2 21 29.9980000  0  7G 1G22G14G 2G25G20G11
  22806389.463   -12697827.95049  -9884931.69846  22806389.099    22806400.231
       221.000         167.000
  22597293.069   -13474127.50149  -9978921.73946  22597291.975    22597304.324
       219.000         167.000
  23447807.352    14213372.62049  11105395.19046  23447806.197    23447816.506
       221.000         164.000
  23657222.233    -8484691.51649  -4441965.67945  23657221.630    23657237.106
       213.000         152.000
  20770299.070   -12951769.76649 -10071533.51247  20770298.931    20770306.612
       242.000         210.000
  21199097.590   -21252090.94249 -16542507.39947  21199097.011    21199106.000
       238.000         197.000
  21689512.942   -14887761.05749 -11575711.15347  21689513.025    21689521.217
       235.000         189.000
 02  5 27  2 21 59.9980000  0  7G 1G22G14G 2G25G20G11
  22792226.860   -12772254.28249  -9942926.14446  22792225.588    22792237.206
       221.000         169.000
  22576188.855   -13585027.36849 -10065337.02346  22576187.452    22576200.682
       219.000         166.000
  23458725.109    14270746.55349  11150102.12146  23458724.498    23458733.926
       220.000         163.000
  23638310.471    -8584076.44249  -4519408.13245  23638309.473    23638325.052
       213.000         153.000
  20777185.410   -12915580.59749 -10043334.16047  20777185.409    20777193.318
       242.000         209.000
  21182776.695   -21337858.99649 -16609339.60147  21182776.127    21182784.574
       238.000         198.000
  21696405.444   -14851540.98649 -11547487.77547  21696405.419    21696413.771
       235.000         190.000
 02  5 27  2 22 29.9980000  0  7G 1G22G14G 2G25G20G11
  22778075.581   -12846618.65849 -10000872.30746  22778076.058    22778085.819
       221.000         167.000
  22555107.394   -13695810.00549 -10151660.95646  22555106.837    22555119.032
       219.000         167.000
  23469639.426    14328100.60049  11194793.56045  23469638.233    23469647.473
       217.000         159.000
  23619393.407    -8683481.77049  -4596866.44745  23619392.943    23619407.890
       215.000         154.000
  20784132.218   -12879074.54049 -10014887.88447  20784132.142    20784140.256
       242.000         209.000
  21166497.933   -21423404.06849 -16675998.04547  21166497.457    21166505.847
       238.000         198.000
  21703371.017   -14814938.68349 -11518966.55847  21703370.780    21703379.421
       236.000         189.000
 02  5 27  2 22 59.9980000  0  7G 1G22G14G 2G25G20G11
  22763938.554   -12920906.83749 -10058759.10346  22763938.508    22763949.841
       219.000         168.000
  22534052.448   -13806457.59549 -10237879.64746  22534052.006    22534063.099
       221.000         169.000
  23480551.051    14385448.99549  11239480.59645  23480551.671    23480560.789
       216.000         160.000
  23600476.540    -8782890.38649  -4674327.35745  23600476.055    23600490.387
       216.000         157.000
  20791141.845   -12842239.09549  -9986184.94547  20791141.856    20791149.769
       242.000         210.000
  21150264.622   -21508709.52849 -16742469.78147  21150264.126    21150272.596
       238.000         198.000
  21710410.931   -14777942.00849 -11490138.04547  21710410.931    21710419.803
       235.000         190.000
 02  5 27  2 23 29.9980000  0  7G 1G22G14G 2G25G20G11
  22749817.788   -12995110.15149 -10116579.78846  22749817.974    22749829.008
       217.000         167.000
  22513024.813   -13916957.71949 -10323983.43946  22513023.821    22513035.677
       221.000         167.000
  23491465.808    14442801.17049  11284170.58245  23491465.224    23491475.614
       215.000         159.000
  23581561.179    -8882290.63449  -4751781.74645  23581560.695    23581574.806
       215.000         156.000
  20798215.677   -12805067.32249  -9957219.93847  20798215.559    20798223.446
       242.000         210.000
  21134079.439   -21593763.75249 -16808745.74047  21134079.095    21134087.430
       238.000         199.000
  21717527.582   -14740544.01449 -11460996.80547  21717527.330    21717535.952
       235.000         189.000
 02  5 27  2 23 59.9980000  0  7G 1G22G14G 2G25G20G11
  22735710.004   -13069251.35849 -10174352.07446  22735709.225    22735720.006
       219.000         169.000
  22492019.912   -14027329.56349 -10409987.28646  22492019.239    22492032.185
       219.000         168.000
  23502375.166    14500134.23049  11328845.68545  23502375.789    23502385.680
       214.000         159.000
  23562643.468    -8981702.69349  -4829245.33045  23562642.537    23562657.349
       218.000         158.000
  20805348.825   -12767583.63949  -9928011.88347  20805348.490    20805356.334
       243.000         210.000
  21117937.898   -21678587.05949 -16874841.75947  21117937.381    21117946.284
       238.000         199.000
  21724715.329   -14702769.85649 -11431562.45847  21724715.791    21724724.627
       235.000         189.000
 02  5 27  2 24 29.9980000  0  7G 1G22G14G 2G25G20G11
  22721615.239   -13143317.44649 -10232065.83046  22721615.283    22721625.720
       219.000         168.000
  22471044.475   -14137556.62749 -10495878.32346  22471044.315    22471055.587
       220.000         167.000
  23513284.538    14557461.10149  11373515.98345  23513284.971    23513294.432
       216.000         156.000
  23543726.056    -9081110.89949  -4906705.93845  23543725.422    23543740.718
       217.000         159.000
  20812542.886   -12729777.20249  -9898552.32747  20812542.432    20812550.749
       242.000         209.000
  21101843.492   -21763164.12149 -16940745.90247  21101843.080    21101851.545
       239.000         199.000
  21731977.733   -14664608.51349 -11401826.40647  21731977.662    21731986.511
       235.000         189.000
 02  5 27  2 24 59.9980000  0  7G 1G22G14G 2G25G20G11
  22707531.484   -13217328.20749 -10289736.48546  22707530.717    22707541.825
       219.000         170.000
  22450094.668   -14247655.12649 -10581669.17446  22450093.646    22450104.694
       224.000         169.000
  23524188.366    14614762.22349  11418166.17345  23524187.975    23524198.337
       214.000         156.000
  23524806.900    -9180532.28249  -4984176.79845  23524806.175    23524820.101
       214.000         153.000
  20819794.394   -12691669.40349  -9868857.95647  20819794.113    20819802.477
       242.000         209.000
  21085792.754   -21847512.22649 -17006471.63647  21085792.195    21085800.718
       239.000         200.000
  21739308.902   -14626082.29549 -11371806.02747  21739308.869    21739317.860
       235.000         188.000
 02  5 27  2 25 29.9980000  0  7G 1G22G14G 2G25G20G11
  22693461.559   -13291263.47749 -10347348.31846  22693460.886    22693473.008
       219.000         169.000
  22429171.959   -14357601.26849 -10667341.29246  22429171.193    22429183.930
       223.000         169.000
  23535092.054    14672058.18649  11462812.37945  23535092.021    23535101.608
       214.000         153.000
  23505888.874    -9279944.02049  -5061640.16845  23505887.981    23505902.912
       217.000         159.000
  20827106.846   -12653241.63849  -9838914.25947  20827106.663    20827115.049
       242.000         209.000
  21069789.455   -21931608.47049 -17072001.11247  21069788.811    21069797.431
       239.000         200.000
  21746713.581   -14587172.54349 -11341486.80847  21746713.287    21746721.998
       236.000         188.000
 02  5 27  2 25 59.9980000  0  7G 1G22G14G 2G25G20G11
  22679404.769   -13365134.08949 -10404909.75646  22679404.178    22679416.067
       222.000         172.000
  22408277.073   -14467402.01749 -10752900.13246  22408276.568    22408288.974
       221.000         170.000
  23545991.913    14729338.53349  11507446.39445  23545991.360    23546002.282
       212.000         153.000
  23486971.647    -9379353.95749  -5139102.13545  23486970.274    23486985.294
       216.000         159.000
  20834478.072   -12614506.40349  -9808730.97247  20834478.008    20834485.907
       242.000         209.000
  21053832.945   -22015460.89849 -17137340.60047  21053832.405    21053840.735
       239.000         200.000
  21754188.277   -14547892.12149 -11310878.74047  21754188.099    21754196.893
       234.000         188.000
 02  5 27  2 26 29.9980000  0  7G 1G22G14G 2G25G20G11
  22665359.713   -13438940.91549 -10462421.50746  22665359.721    22665370.030
       222.000         172.000
  22387411.590   -14577054.70449 -10838343.61446  22387411.160    22387421.903
       223.000         170.000
  23556888.887    14786602.21549  11552067.43845  23556888.275    23556898.993
       212.000         149.000
  23468054.690    -9478760.12749  -5216561.17745  23468055.618    23468069.880
       214.000         157.000
  20841907.491   -12575466.60649  -9778310.36647  20841907.194    20841915.131
       243.000         210.000
  21037922.953   -22099067.95649 -17202488.88847  21037922.386    21037930.434
       239.000         200.000
  21761732.647   -14508244.63749 -11279984.65046  21761732.442    21761741.373
       234.000         187.000
 02  5 27  2 26 59.9980000  0  7G 1G22G14G 2G25G20G11
  22651330.380   -13512668.08149 -10519871.18146  22651329.705    22651339.994
       223.000         173.000
  22366577.200   -14686540.02449 -10923656.66246  22366576.944    22366587.892
       224.000         170.000
  23567785.988    14843865.65849  11596688.27145  23567785.025    23567796.277
       213.000         152.000
  23449142.472    -9578143.85349  -5294002.72245  23449142.103    23449155.539
       214.000         155.000
  20849397.106   -12536108.20349  -9747641.49647  20849396.955    20849404.592
       243.000         210.000
  21022063.218   -22182411.13749 -17267431.56747  21022062.685    21022070.861
       240.000         201.000
  21769349.863   -14468215.73649 -11248793.35647  21769349.759    21769359.133
       234.000         188.000
 02  5 27  2 27 29.9980000  0  7G 1G22G14G 2G25G20G11
  22637312.978   -13586327.78849 -10577268.27246  22637312.535    22637323.580
       225.000         175.000
  22345772.586   -14795866.30749 -11008845.78046  22345770.670    22345783.607
       222.000         169.000
  23578680.088    14901116.69349  11641299.44145  23578679.737    23578689.940
       212.000         152.000
  23430232.391    -9677514.58149  -5371434.15545  23430232.273    23430246.098
       213.000         154.000
  20856944.450   -12496445.29049  -9716735.34747  20856944.293    20856952.529
       242.000         209.000
  21006251.751   -22265500.21849 -17332176.23547  21006250.855    21006259.949
       239.000         201.000
  21777037.355   -14427820.12549 -11217316.32246  21777037.283    21777046.233
       234.000         187.000
 02  5 27  2 27 59.9980000  0  7G 1G22G14G 2G25G20G11
  22623307.410   -13659927.59449 -10634618.69646  22623307.130    22623317.747
       226.000         176.000
  22324996.289   -14905037.77549 -11093914.27546  22324995.546    22325008.727
       221.000         169.000
  23589571.128    14958347.71449  11685895.03645  23589570.301    23589580.612
       212.000         151.000
  23411323.406    -9776877.20549  -5448859.26345  23411322.869    23411338.105
       212.000         154.000
  20864547.754   -12456487.16249  -9685599.15547  20864547.895    20864556.277
       242.000         209.000
  20990487.634   -22348340.31249 -17396726.88247  20990487.218    20990495.640
       239.000         201.000
  21784792.390   -14387067.87649 -11185561.37746  21784792.206    21784801.347
       234.000         187.000
 02  5 27  2 28 29.9980000  0  7G 1G22G14G 2G25G20G11
  22609314.785   -13733457.85249 -10691914.94846  22609313.938    22609325.050
       226.000         174.000
  22304254.569   -15014040.85849 -11178851.56546  22304254.272    22304265.670
       222.000         171.000
  23600459.294    15015568.67649  11730482.78645  23600458.215    23600468.855
       211.000         150.000
  23392419.652    -9876218.86649  -5526268.06245  23392418.730    23392434.652
       211.000         152.000
  20872209.492   -12416225.87749  -9654226.74647  20872209.421    20872217.521
       241.000         208.000
  20974773.613   -22430918.85649 -17461073.73447  20974773.040    20974781.282
       240.000         201.000
  21792616.325   -14345951.21549 -11153522.46546  21792616.364    21792625.170
       233.000         186.000
 02  5 27  2 28 59.9980000  0  7G 1G22G14G 2G25G20G11
  22595335.902   -13806917.73949 -10749156.33246  22595336.056    22595346.925
       225.000         174.000
  22283545.444   -15122871.32349 -11263654.34646  22283544.839    22283556.093
       222.000         172.000
  23611346.301    15072780.49949  11775063.43045  23611346.317    23611356.002
       212.000         150.000
  23373519.100    -9975536.20749  -5603657.89145  23373518.871    23373534.240
       209.000         151.000
  20879928.690   -12375662.67049  -9622619.07047  20879928.398    20879936.593
       242.000         208.000
  20959109.701   -22513232.76549 -17525214.38247  20959109.444    20959117.526
       240.000         202.000
  21800509.960   -14304472.03049 -11121201.08346  21800509.431    21800518.084
       234.000         187.000
 02  5 27  2 29 29.9980000  0  7G 1G22G14G 2G25G20G11
  22581374.801   -13880282.86549 -10806323.88446  22581374.849    22581385.369
       227.000         175.000
  22262872.814   -15231500.99649 -11348300.66346  22262872.043    22262883.374
       221.000         172.000
  23622236.397    15130007.85949  11819656.17745  23622235.750    23622246.344
       212.000         149.000
  23354629.206   -10074801.94449  -5681007.53345  23354628.923    23354643.001
       209.000         150.000
  20887709.678   -12334774.70049  -9590758.33547  20887709.470    20887717.370
       242.000         208.000
  20943501.527   -22595255.09549 -17589127.83247  20943500.843    20943509.189
       240.000         202.000
  21808476.347   -14262607.95249 -11088579.77946  21808476.301    21808485.261
       234.000         186.000
 02  5 27  2 29 59.9980000  0  7G 1G22G14G 2G25G20G11
  22567422.349   -13953602.91149 -10863456.31146  22567421.761    22567433.307
       225.000         175.000
  22242230.599   -15339975.94449 -11432826.41846  22242229.521    22242242.219
       220.000         172.000
  23633119.789    15187201.70949  11864222.80645  23633120.102    23633130.347
       211.000         149.000
  23335740.628   -10174063.08049  -5758353.59045  23335740.152    23335754.950
       210.000         151.000
  20895542.378   -12293613.50049  -9558684.68047  20895542.248    20895549.845
       243.000         208.000
  20927939.420   -22677032.69849 -17652850.57947  20927938.868    20927947.141
       239.000         202.000
  21816506.159   -14220410.10649 -11055698.38646  21816505.977    21816514.810
       234.000         187.000
 02  5 27  2 30 29.9980000  0  7G 1G22G14G 2G25G20G11
  22553479.884   -14026871.53849 -10920548.65946  22553478.956    22553490.246
       226.000         174.000
  22221620.262   -15448286.46949 -11517224.04446  22221619.596    22221631.036
       222.000         172.000
  23643999.927    15244368.33649  11908768.19445  23643998.324    23644008.378
       216.000         149.000
  23316854.252   -10273310.43149  -5835688.90145  23316854.505    23316868.203
       210.000         151.000
  20903427.638   -12252174.62749  -9526394.66347  20903427.673    20903435.505
       242.000         207.000
  20912425.936   -22758556.94849 -17716375.92347  20912425.313    20912433.699
       240.000         202.000
  21824600.092   -14177875.18249 -11022554.34246  21824599.957    21824609.594
       233.000         186.000
 02  5 27  2 30 59.9980000  0  7G 1G22G14G 2G25G20G11
  22539552.206   -14100061.06249 -10977579.37346  22539552.265    22539562.801
       226.000         174.000
  22201047.508   -15556401.00049 -11601468.96246  22201046.134    22201057.648
       223.000         174.000
  23654877.230    15301535.51749  11953314.03045  23654876.581    23654886.236
       215.000         152.000
  23297978.177   -10372513.48749  -5912989.71745  23297977.070    23297989.793
       213.000         152.000
  20911370.627   -12210432.17049  -9493868.08547  20911370.592    20911378.880
       240.000         207.000
  20896966.286   -22839797.31249 -17779680.05247  20896965.712    20896974.428
       240.000         203.000
  21832763.357   -14134977.50749 -10989127.64046  21832762.893    21832771.617
       233.000         186.000
 02  5 27  2 31 29.9980000  0  7G 1G22G14G 2G25G20G11
  22525639.513   -14173171.87449 -11034548.76346  22525639.218    22525649.358
       225.000         173.000
  22180510.670   -15664316.33349 -11685558.65346  22180510.131    22180521.163
       222.000         172.000
  23665756.791    15358703.28749  11997860.32645  23665757.215    23665766.039
       217.000         153.000
  23279108.390   -10471670.06849  -5990254.30745  23279107.229    23279120.901
       213.000         153.000
  20919371.329   -12168388.48149  -9461106.79147  20919371.414    20919379.865
       241.000         207.000
  20881561.159   -22920751.79849 -17842761.42547  20881560.771    20881569.101
       241.000         202.000
  21840995.056   -14091720.16249 -10955420.67046  21840994.894    21841003.719
       234.000         186.000
 02  5 27  2 31 59.9980000  0  7G 1G22G14G 2G25G20G11
  22511734.694   -14246242.51649 -11091486.84646  22511734.675    22511744.956
       225.000         173.000
  22160006.196   -15772067.50849 -11769520.43746  22160005.861    22160017.070
       223.000         174.000
  23676628.351    15415832.89149  12042376.88645  23676627.205    23676637.386
       217.000         154.000
  23260240.931   -10570815.92549  -6067510.55745  23260239.901    23260253.898
       214.000         154.000
  20927422.022   -12126083.86849  -9428142.17447  20927421.733    20927430.209
       241.000         207.000
  20866203.689   -23001456.49249 -17905648.15547  20866202.984    20866211.360
       240.000         203.000
  21849287.694   -14048143.72649 -10921465.05746  21849287.732    21849296.475
       233.000         186.000
 02  5 27  2 32 29.9980000  0  7G 1G22G14G 2G25G20G11
  22497843.979   -14319238.56949 -11148366.78946  22497843.913    22497854.351
       225.000         172.000
  22139540.767   -15879616.34449 -11853324.55346  22139539.313    22139550.488
       224.000         174.000
  23687498.187    15472959.28549  12086890.96045  23687498.110    23687508.511
       214.000         155.000
  23241383.237   -10669913.63549  -6144729.28045  23241382.924    23241396.227
       215.000         156.000
  20935528.305   -12083485.86649  -9394948.94647  20935528.107    20935536.062
       242.000         208.000
  20850900.587   -23081874.40549 -17968311.42647  20850900.044    20850908.321
       241.000         203.000
  21857646.556   -14004216.18149 -10887235.85446  21857646.653    21857655.456
       233.000         186.000
 02  5 27  2 32 59.9980000  0  7G 1G22G14G 2G25G20G11
  22483966.858   -14392163.93549 -11205191.66546  22483966.021    22483977.622
       225.000         174.000
  22119112.671   -15986963.39749 -11936971.43346  22119112.385    22119122.810
       224.000         175.000
  23698367.808    15530078.60749  12131399.51545  23698367.268    23698377.992
       213.000         154.000
  23222533.811   -10768964.48649  -6221911.50145  23222533.470    23222547.762
       215.000         156.000
  20943689.309   -12040600.47349  -9361531.77547  20943688.984    20943696.912
       242.000         208.000
  20835651.652   -23162006.82249 -18030752.23647  20835651.286    20835659.621
       240.000         204.000
  21866071.920   -13959943.76149 -10852737.92346  21866071.551    21866080.156
       233.000         186.000
 02  5 27  2 33 29.9980000  0  7G 1G22G14G 2G25G20G11
  22470101.031   -14465027.73249 -11261968.56946  22470100.087    22470111.913
       225.000         172.000
  22098721.929   -16094113.95149 -12020465.19746  22098721.496    22098733.072
       223.000         175.000
  23709233.992    15587182.11049  12175895.76545  23709233.923    23709245.304
       214.000         155.000
  23203692.429   -10867974.68249  -6299062.03845  23203691.984    23203704.827
       215.000         157.000
  20951902.267   -11997438.64649  -9327899.19547  20951902.287    20951910.441
       242.000         207.000
  20820456.276   -23241860.13949 -18092975.57147  20820455.701    20820464.057
       241.000         204.000
  21874560.066   -13915337.81849 -10817980.10446  21874560.059    21874568.901
       233.000         185.000
 02  5 27  2 33 59.9980000  0  7G 1G22G14G 2G25G20G11
  22456246.727   -14537832.55749 -11318699.50146  22456245.857    22456256.216
       224.000         172.000
  22078368.715   -16201066.91849 -12103805.02346  22078368.093    22078379.537
       223.000         175.000
  23720097.546    15644267.61849  12220377.98245  23720097.789    23720107.520
       215.000         156.000
  23184859.238   -10966943.98449  -6376180.71545  23184858.988    23184872.071
       217.000         159.000
  20960167.330   -11954004.66149  -9294054.54547  20960167.521    20960175.359
       241.000         207.000
  20805313.486   -23321434.39549 -18154981.44847  20805313.175    20805321.482
       241.000         204.000
  21883110.937   -13870403.18949 -10782966.16246  21883110.984    21883119.939
       233.000         186.000
 02  5 27  2 34 29.9980000  0  7G 1G22G14G 2G25G20G11
  22442402.198   -14610586.38349 -11375390.68846  22442401.173    22442413.002
       225.000         174.000
  22058054.009   -16307826.82849 -12186994.39946  22058053.023    22058064.449
       225.000         176.000
  23730955.890    15701327.20849  12264839.98345  23730955.018    23730965.576
       215.000         155.000
  23166032.050   -11065877.54149  -6453271.54345  23166031.693    23166046.157
       216.000         159.000
  20968482.555   -11910308.36649  -9260005.49647  20968482.664    20968490.688
       241.000         205.000
  20790223.360   -23400735.21549 -18216774.26947  20790222.859    20790231.114
       241.000         204.000
  21891721.695   -13825150.54149 -10747704.40946  21891721.685    21891730.918
       233.000         184.000
 02  5 27  2 34 59.9980000  0  7G 1G22G14G 2G25G20G11
  22428569.866   -14683275.21449 -11432031.23846  22428569.652    22428580.185
       226.000         175.000
  22037778.213   -16414375.89249 -12270019.49246  22037777.290    22037788.636
       225.000         176.000
  23741810.715    15758375.02749  12309292.81645  23741811.454    23741820.463
       214.000         155.000
  23147216.639   -11164758.36549  -6530321.27145  23147215.015    23147228.892
       217.000         162.000
  20976850.245   -11866337.61049  -9225742.58547  20976850.247    20976858.039
       241.000         206.000
  20775187.927   -23479746.05749 -18278341.12247  20775187.278    20775195.781
       241.000         205.000
  21900395.841   -13779568.18549 -10712185.74846  21900395.766    21900404.968
       233.000         184.000
 02  5 27  2 35 29.9980000  0  7G 1G22G14G 2G25G20G11
  22414750.088   -14755896.92749 -11488619.50046  22414749.740    22414760.040
       225.000         173.000
  22017542.939   -16520708.70849 -12352876.08746  22017542.185    22017553.578
       226.000         176.000
  23752665.101    15815413.46049  12353738.33645  23752664.746    23752674.729
       214.000         155.000
  23128411.056   -11263581.88249  -6607326.35146  23128409.851    23128423.527
       217.000         163.000
  20985269.934   -11822091.93449  -9191265.45347  20985269.806    20985277.761
       241.000         206.000
  20760208.756   -23558462.19749 -18339678.34147  20760208.020    20760216.533
       241.000         204.000
  21909132.589   -13733656.24649 -10676410.26946  21909132.211    21909141.738
       232.000         183.000
 02  5 27  2 35 59.9980000  0  7G 1G22G14G 2G25G20G11
  22400940.515   -14828465.71049 -11545166.50746  22400940.388    22400952.096
       225.000         173.000
  21997348.521   -16626835.68449 -12435572.27446  21997348.132    21997358.688
       226.000         177.000
  23763514.485    15872428.64149  12398165.75045  23763514.614    23763524.571
       213.000         156.000
  23109614.087   -11362359.50349  -6684295.67246  23109612.704    23109626.664
       218.000         163.000
  20993738.773   -11777587.72749  -9156586.86647  20993738.524    20993746.979
       241.000         207.000
  20745283.473   -23636895.15849 -18400794.89847  20745283.103    20745291.150
       241.000         205.000
  21917929.639   -13687431.44149 -10640391.00346  21917929.296    21917937.746
       233.000         184.000
 02  5 27  2 36 29.9980000  0  7G 1G22G14G 2G25G20G11
  22387145.882   -14900959.43549 -11601655.04446  22387145.438    22387155.490
       226.000         174.000
  21977197.240   -16732730.83249 -12518087.81346  21977196.204    21977207.600
       227.000         178.000
  23774364.731    15929442.97749  12442592.50345  23774364.521    23774374.068
       214.000         156.000
  23090830.420   -11461066.08949  -6761209.63745  23090829.749    23090843.623
       218.000         162.000
  21002260.536   -11732804.28949  -9121690.69747  21002260.395    21002268.773
       241.000         207.000
  20730416.594   -23715020.22349 -18461671.53247  20730416.014    20730424.592
       241.000         205.000
  21926788.919   -13640873.95049 -10604112.50046  21926787.942    21926797.405
       233.000         183.000
 02  5 27  2 36 59.9980000  0  7G 1G22G14G 2G25G20G11
  22373359.959   -14973402.98949 -11658104.45646  22373359.673    22373370.205
       225.000         174.000
  21957085.485   -16838415.79749 -12600439.58346  21957084.397    21957095.521
       225.000         177.000
  23785208.926    15986431.79649  12486999.39245  23785208.894    23785219.429
       213.000         157.000
  23072056.407   -11559723.63649  -6838085.39246  23072055.827    23072068.311
       217.000         163.000
  21010830.524   -11687768.82149  -9086598.13647  21010830.484    21010838.712
       241.000         206.000
  20715604.326   -23792860.01349 -18522325.87347  20715603.718    20715612.093
       241.000         206.000
  21935706.522   -13594010.98749 -10567595.96546  21935706.151    21935715.574
       232.000         182.000
 02  5 27  2 37 29.9980000  0  7G 1G22G14G 2G25G20G11
  22359585.917   -15045786.84649 -11714507.36646  22359584.802    22359595.752
       226.000         174.000
  21937016.091   -16943877.25049 -12682617.20046  21937014.997    21937026.296
       225.000         176.000
  23796050.178    16043404.89049  12531394.00945  23796049.956    23796061.361
       213.000         156.000
  23053294.394   -11658319.97849  -6914913.47046  23053293.695    23053307.059
       219.000         163.000
  21019450.263   -11642473.43849  -9051303.05347  21019450.092    21019457.959
       241.000         206.000
  20700848.387   -23870402.13449 -18582748.26147  20700847.812    20700856.251
       241.000         206.000
  21944683.617   -13546835.62549 -10530836.00946  21944683.805    21944692.751
       232.000         182.000
 02  5 27  2 37 59.9980000  0  7G 1G22G14G 2G25G20G11
  22345824.074   -15118105.09649 -11770859.14146  22345823.639    22345834.121
       225.000         174.000
  21916992.470   -17049105.71949 -12764613.26846  21916991.729    21917002.825
       226.000         177.000
  23806890.482    16100368.33949  12575781.09945  23806889.625    23806900.614
       212.000         156.000
  23034544.802   -11756846.42149  -6991687.06945  23034544.879    23034557.298
       217.000         162.000
  21028119.565   -11596914.68649  -9015802.74547  21028119.778    21028127.373
       241.000         205.000
  20686150.780   -23947638.22949 -18642932.18647  20686150.302    20686158.413
       241.000         205.000
  21953721.143   -13499344.31849 -10493829.85646  21953720.233    21953730.826
       232.000         183.000
 02  5 27  2 38 29.9980000  0  7G 1G22G14G 2G25G20G11
  22332074.060   -15190361.13649 -11827162.46246  22332073.572    22332084.346
       226.000         174.000
  21897013.059   -17154101.02449 -12846427.64446  21897011.746    21897023.247
       228.000         178.000
  23817727.954    16157319.06749  12620158.28245  23817726.520    23817737.544
       212.000         155.000
  23015808.375   -11855303.52949  -7068406.65145  23015807.026    23015820.772
       216.000         162.000
  21036838.139   -11551097.45049  -8980101.01647  21036838.129    21036846.272
       240.000         204.000
  20671511.195   -24024569.34249 -18702878.45447  20671510.784    20671519.052
       242.000         206.000
  21962817.611   -13451543.01149 -10456582.16246  21962817.623    21962826.432
       232.000         182.000
 02  5 27  2 38 59.9980000  0  7G 1G22G14G 2G25G20G11
  22318337.201   -15262549.16849 -11883412.77546  22318336.873    22318346.427
       226.000         175.000
  21877078.575   -17258853.53949 -12928052.82746  21877077.821    21877088.521
       225.000         178.000
  23828564.025    16214263.19249  12664530.33345  23828563.499    23828573.742
       214.000         155.000
  22997086.546   -11953682.63949  -7145065.46345  22997086.556    22997099.960
       215.000         161.000
  21045607.052   -11505017.35549  -8944194.46047  21045607.089    21045615.295
       240.000         203.000
  20656931.219   -24101187.13249 -18762580.57747  20656930.849    20656939.227
       243.000         206.000
  21971973.257   -13403428.23649 -10419090.18646  21971973.267    21971982.521
       232.000         181.000
 02  5 27  2 39 29.9980000  0  7G 1G22G14G 2G25G20G11
  22304611.968   -15334674.87949 -11939614.53546  22304611.768    22304621.333
       227.000         176.000
  21857190.264   -17363365.74749 -13009490.76946  21857189.374    21857200.392
       225.000         177.000
  23839398.576    16271195.12449  12708892.85945  23839396.995    23839408.247
       212.000         154.000
  22978380.724   -12051987.00749  -7221666.01945  22978379.128    22978393.785
       218.000         162.000
  21054424.019   -11458682.57149  -8908089.44547  21054424.165    21054432.295
       240.000         204.000
  20642410.675   -24177494.52849 -18822040.83447  20642409.841    20642418.054
       242.000         207.000
  21981187.153   -13355008.46449 -10381360.56846  21981186.821    21981196.675
       231.000         181.000
 02  5 27  2 39 59.9980000  0  7G 1G22G14G 2G25G20G11
  22290897.784   -15406742.54849 -11995771.08346  22290897.987    22290907.285
       226.000         175.000
  21837348.420   -17467638.43149 -13090742.05946  21837347.207    21837358.093
       226.000         177.000
  23850227.927    16328110.77049  12753242.72645  23850226.936    23850239.125
       209.000         153.000
  22959687.601   -12150218.25349  -7298209.61845  22959686.218    22959699.277
       218.000         162.000
  21063288.767   -11412099.45149  -8871790.91847  21063288.704    21063296.894
       241.000         205.000
  20627948.143   -24253493.50349 -18881260.75747  20627947.602    20627956.024
       242.000         207.000
  21990458.475   -13306290.25549 -10343398.39146  21990458.282    21990466.926
       232.000         181.000
 02  5 27  2 40 29.9980000  0  7G 1G22G14G 2G25G20G11
  22277194.274   -15478754.92049 -12051884.53546  22277193.813    22277205.331
       226.000         177.000
  21817551.145   -17571670.57049 -13171805.92746  21817550.570    21817561.338
       224.000         179.000
  23861054.477    16385007.74349  12797578.04945  23861054.825    23861065.763
       207.000         152.000
  22941008.107   -12248376.22649  -7374696.10745  22941007.209    22941020.083
       217.000         162.000
  21072199.822   -11365272.26449  -8835302.20647  21072199.755    21072207.844
       241.000         206.000
  20613544.582   -24329184.25549 -18940240.51047  20613544.178    20613552.536
       242.000         207.000
  21999784.657   -13257279.10349 -10305207.95646  21999784.517    21999793.905
       232.000         181.000
 02  5 27  2 40 59.9980000  0  7G 1G22G14G 2G25G20G11
  22263502.266   -15550705.87849 -12107950.12746  22263502.187    22263513.041
       226.000         177.000
  21797800.898   -17675452.48349 -13252674.81446  21797800.197    21797812.784
       225.000         178.000
  23871881.353    16441892.19949  12841903.58645  23871880.179    23871890.598
       208.000         151.000
  22922345.238   -12346451.98049  -7451118.53545  22922344.380    22922357.853
       217.000         162.000
  21081158.057   -11318197.16349  -8798620.32347  21081157.752    21081165.978
       241.000         206.000
  20599201.562   -24404558.34049 -18998973.50847  20599201.124    20599209.328
       243.000         207.000
  22009168.097   -13207971.24249 -10266786.31146  22009167.636    22009177.330
       233.000         182.000
 02  5 27  2 41 29.9980000  0  7G 1G22G14G 2G25G20G11
  22249822.227   -15622592.33249 -12163965.45846  22249822.342    22249832.768
       226.000         178.000
  21778101.390   -17778977.42949 -13333343.46846  21778101.175    21778112.342
       225.000         178.000
  23882701.932    16498767.72449  12886222.17045  23882702.404    23882712.976
       205.000         151.000
  22903698.834   -12444439.38549  -7527472.12846  22903699.020    22903710.432
       218.000         164.000
  21090163.298   -11270872.53449  -8761744.00147  21090163.154    21090171.403
       240.000         204.000
  20584919.705   -24479609.79349 -19057455.11247  20584919.024    20584927.104
       243.000         207.000
  22018607.633   -13158366.01649 -10228132.95946  22018607.427    22018616.626
       232.000         182.000
 02  5 27  2 41 59.9980000  0  7G 1G22G14G 2G25G20G11
  22236153.035   -15694426.27649 -12219939.87946  22236152.805    22236162.942
       225.000         176.000
  21758448.913   -17882253.85949 -13413818.46246  21758448.029    21758458.766
       226.000         179.000
  23893522.501    16555622.56749  12930524.65145  23893521.581    23893532.651
       206.000         150.000
  22885067.914   -12542347.91549  -7603764.26546  22885067.007    22885078.629
       220.000         163.000
  21099213.421   -11223312.45049  -8724684.20247  21099213.277    21099221.953
       239.000         203.000
  20570697.411   -24554348.38149 -19115692.91747  20570696.781    20570704.879
       243.000         207.000
  22028100.885   -13108478.08949 -10189259.31846  22028100.892    22028109.843
       232.000         182.000
 02  5 27  2 42 29.9980000  0  7G 1G22G14G 2G25G20G11
  22222495.804   -15766194.60449 -12275863.17446  22222495.511    22222506.156
       226.000         177.000
  21738846.108   -17985265.16549 -13494086.87546  21738845.853    21738856.212
       225.000         179.000
  23904340.311    16612469.94249  12974821.29545  23904339.420    23904350.852
       208.000         151.000
  22866453.750   -12640161.64549  -7679982.52746  22866453.131    22866465.796
       219.000         164.000
  21108310.899   -11175505.83549  -8687432.30747  21108310.972    21108319.093
       239.000         203.000
  20556537.462   -24628758.58449 -19173674.83847  20556536.881    20556545.295
       242.000         208.000
  22037649.936   -13058296.82649 -10150157.11446  22037650.123    22037658.713
       232.000         180.000
 02  5 27  2 42 59.9980000  0  7G 1G22G14G 2G25G20G11
  22208849.766   -15837906.15349 -12331742.22246  22208848.814    22208860.487
       226.000         179.000
  21719292.978   -18088016.69749 -13574152.85946  21719292.429    21719303.104
       225.000         179.000
  23915154.195    16669301.43149  13019105.56745  23915154.520    23915164.026
       206.000         149.000
  22847856.367   -12737886.43649  -7756131.49746  22847855.743    22847869.237
       220.000         164.000
  21117453.628   -11127463.60249  -8649996.80947  21117453.423    21117461.336
       240.000         203.000
  20542439.110   -24702846.38849 -19231405.54247  20542438.552    20542446.663
       243.000         208.000
  22047253.101   -13007833.66249 -10110835.22646  22047253.146    22047262.023
       232.000         180.000
 02  5 27  2 43 29.9980000  0  7G 1G22G14G 2G25G20G11
  22195214.422   -15909557.89949 -12387574.66646  22195214.357    22195224.648
       226.000         179.000
  21699791.028   -18190501.85849 -13654011.29146  21699789.912    21699800.706
       227.000         180.000
  23925966.464    16726120.24149  13063379.97245  23925967.321    23925976.941
       207.000         149.000
  22829278.637   -12835516.72249  -7832206.83246  22829278.455    22829290.862
       220.000         165.000
  21126640.864   -11079184.14749  -8612376.45647  21126640.832    21126648.479
       241.000         203.000
  20528403.197   -24776606.54749 -19288880.94547  20528402.338    20528410.573
       243.000         208.000
  22056909.150   -12957088.17549 -10071293.37146  22056909.153    22056918.477
       231.000         179.000
 02  5 27  2 43 59.9980000  0  7G 1G22G14G 2G25G20G11
  22181592.434   -15981144.91949 -12443356.68246  22181592.081    22181601.957
       228.000         180.000
  21680340.781   -18292712.09949 -13733655.48446  21680339.573    21680350.208
       226.000         181.000
  23936777.907    16782931.48749  13107648.49245  23936778.135    23936788.849
       207.000         149.000
  22810719.941   -12933044.94049  -7908202.64446  22810719.350    22810730.376
       222.000         166.000
  21135873.355   -11030664.88349  -8574569.23947  21135873.320    21135881.344
       240.000         203.000
  20514430.489   -24850031.65049 -19346095.26147  20514430.093    20514437.992
       243.000         208.000
  22066620.574   -12906058.10849 -10031529.75646  22066620.144    22066629.412
       231.000         180.000
 02  5 27  2 44 29.9980000  0  7G 1G22G14G 2G25G20G11
  22167982.165   -16052666.17549 -12499087.45646  22167982.051    22167992.423
       228.000         181.000
  21660943.149   -18394643.22149 -13813082.20146  21660942.987    21660953.656
       227.000         181.000
  23947586.732    16839736.38749  13151912.10945  23947586.602    23947597.849
       206.000         147.000
  22792180.246   -13030467.32249  -7984115.97446  22792179.345    22792192.226
       220.000         166.000
  21145151.529   -10981907.10449  -8536576.16547  21145151.802    21145159.894
       239.000         203.000
  20500522.450   -24923118.37649 -19403045.91147  20500521.868    20500530.167
       242.000         208.000
  22076384.910   -12854745.20449  -9991545.74346  22076384.624    22076394.050
       231.000         180.000
 02  5 27  2 44 59.9980000  0  7G 1G22G14G 2G25G20G11
  22154380.126   -16124145.11249 -12554785.25346  22154379.984    22154389.994
       229.000         181.000
  21641596.143   -18496314.78549 -13892306.65246  21641595.331    21641606.129
       227.000         182.000
  23958391.225    16896511.86349  13196152.78645  23958391.628    23958401.259
       206.000         146.000
  22773657.801   -13127804.34149  -8059962.79746  22773657.372    22773668.825
       221.000         166.000
  21154470.850   -10932935.33049  -8498416.34647  21154470.741    21154478.835
       239.000         203.000
  20486674.992   -24995887.38149 -19459748.98447  20486674.335    20486682.581
       243.000         209.000
  22086198.142   -12803175.00349  -9951361.24646  22086197.870    22086207.813
       231.000         179.000
 02  5 27  2 45 29.9980000  0  7G 1G22G14G 2G25G20G11
  22140787.973   -16195571.79149 -12610442.32446  22140787.092    22140797.376
       230.000         181.000
  21622300.865   -18597713.46149 -13971318.46846  21622299.390    21622311.022
       228.000         183.000
  23969191.685    16953268.14049  13240378.46945  23969191.111    23969200.722
       207.000         147.000
  22755153.127   -13225043.43049  -8135733.31446  22755152.679    22755166.071
       220.000         166.000
  21163832.143   -10883742.08049  -8460083.95847  21163831.844    21163840.048
       239.000         203.000
  20472890.255   -25068326.45149 -19516194.97247  20472889.620    20472898.037
       243.000         209.000
  22096062.196   -12751340.60649  -9910970.87346  22096061.506    22096071.742
       230.000         179.000
 02  5 27  2 45 59.9980000  0  7G 1G22G14G 2G25G20G11
  22127204.950   -16266950.71949 -12666062.20546  22127204.925    22127214.773
       229.000         181.000
  21603056.542   -18698840.25649 -14050118.43246  21603055.621    21603066.409
       227.000         183.000
  23979986.937    17010000.86249  13284585.77545  23979987.763    23979996.860
       209.000         146.000
  22736667.356   -13322186.54249  -8211429.04446  22736667.366    22736679.549
       221.000         166.000
  21173233.894   -10834333.79249  -8421584.00947  21173233.925    21173242.346
       238.000         202.000
  20459167.937   -25140437.71049 -19572385.51747  20459167.199    20459175.594
       243.000         209.000
  22105974.714   -12699249.15149  -9870380.20046  22105975.599    22105984.707
       230.000         179.000
 02  5 27  2 46 29.9980000  0  7G 1G22G14G 2G25G20G11
  22113633.106   -16338269.68949 -12721635.34546  22113632.870    22113643.447
       230.000         183.000
  21583867.578   -18799679.55549 -14128694.37946  21583866.770    21583876.673
       227.000         182.000
  23990780.864    17066722.49049  13328784.44345  23990780.823    23990790.656
       209.000         145.000
  22718202.888   -13419218.58249  -8287038.24146  22718201.832    22718214.323
       221.000         166.000
  21182678.810   -10784699.90149  -8382908.26647  21182679.037    21182686.975
       238.000         202.000
  20445510.649   -25212206.52049 -19628309.22347  20445510.076    20445518.217
       243.000         209.000
  22115938.641   -12646890.87749  -9829581.62146  22115938.404    22115948.204
       231.000         179.000
 02  5 27  2 46 59.9980000  0  7G 1G22G14G 2G25G20G11
  22100072.601   -16409530.85649 -12777163.44846  22100072.499    22100082.175
       230.000         182.000
  21564733.277   -18900230.04049 -14207045.26946  21564732.840    21564743.134
       228.000         183.000
  24001572.339    17123430.92349  13372972.84145  24001571.741    24001581.861
       210.000         146.000
  22699758.474   -13516139.06249  -8362560.50646  22699758.221    22699770.698
       219.000         167.000
  21192166.206   -10734844.65249  -8344060.03047  21192165.971    21192174.275
       239.000         202.000
  20431918.863   -25283632.55049 -19683965.83447  20431918.260    20431926.471
       243.000         209.000
  22125952.416   -12594270.77849  -9788579.01846  22125952.080    22125961.593
       231.000         178.000
 02  5 27  2 47 29.9980000  0  7G 1G22G14G 2G25G20G11
  22086522.355   -16480737.66849 -12832649.22246  22086521.956    22086531.584
       229.000         181.000
  21545654.394   -19000491.72449 -14285171.11746  21545653.446    21545663.166
       229.000         183.000
  24012361.097    17180123.13849  13417148.62345  24012360.617    24012370.905
       210.000         147.000
  22681336.784   -13612948.97949  -8437996.61146  22681337.141    22681347.952
       221.000         166.000
  21201694.268   -10684773.36549  -8305043.44747  21201694.290    21201702.058
       239.000         201.000
  20418391.955   -25354716.96449 -19739356.24847  20418391.424    20418399.491
       243.000         210.000
  22136014.225   -12541394.91249  -9747377.12646  22136013.901    22136022.361
       230.000         178.000
 02  5 27  2 47 59.9980000  0  7G 1G22G14G 2G25G20G11
  22072983.612   -16551883.56049 -12888087.50046  22072982.973    22072993.230
       228.000         181.000
  21526631.831   -19100454.27149 -14363063.88146  21526631.488    21526641.448
       229.000         183.000
  24023146.280    17236806.08149  13461317.19845  24023146.602    24023156.466
       209.000         145.000
  22662937.630   -13709638.71949  -8513339.07146  22662937.224    22662947.865
       222.000         167.000
  21211264.758   -10634481.54049  -8265855.01247  21211264.786    21211272.502
       240.000         201.000
  20404931.537   -25425450.52449 -19794473.26447  20404931.029    20404939.188
       243.000         210.000
  22146124.960   -12488259.15749  -9705972.70946  22146125.420    22146135.103
       230.000         178.000
 02  5 27  2 48 29.9980000  0  7G 1G22G14G 2G25G20G11
  22059454.972   -16622977.05249 -12943484.96446  22059454.435    22059464.910
       229.000         182.000
  21507665.495   -19200123.00349 -14440727.69746  21507664.397    21507674.339
       228.000         184.000
  24033930.812    17293471.33349  13505471.97445  24033929.315    24033939.557
       211.000         145.000
  22644559.276   -13806214.11849  -8588592.42646  22644559.171    22644569.975
       219.000         166.000
  21220874.911   -10583979.65749  -8226502.89347  21220875.148    21220882.989
       239.000         201.000
  20391537.029   -25495839.41249 -19849321.70547  20391536.469    20391544.570
       243.000         210.000
  22156283.333   -12434874.85749  -9664374.62646  22156282.864    22156293.449
       227.000         177.000
 02  5 27  2 48 59.9980000  0  7G 1G22G14G 2G25G20G11
  22045938.799   -16694005.15649 -12998831.47646  22045938.382    22045948.869
       230.000         183.000
  21488757.599   -19299481.46049 -14518149.73346  21488757.122    21488767.005
       228.000         183.000
  24044710.541    17350132.02349  13549623.19845  24044711.676    24044721.311
       207.000         143.000
  22626206.133   -13902659.50149  -8663744.49046  22626205.444    22626217.670
       219.000         167.000
  21230526.929   -10533256.76149  -8186978.55647  21230526.479    21230535.471
       238.000         201.000
  20378211.099   -25565868.37049 -19903889.68647  20378210.602    20378218.504
       243.000         211.000
  22166491.883   -12381231.83549  -9622574.93946  22166490.869    22166501.432
       230.000         178.000
 02  5 27  2 49 29.9980000  0  7G 1G22G14G 2G25G20G11
  22032434.113   -16764973.48649 -13054131.40346  22032433.321    22032443.723
       230.000         183.000
  21469909.104   -19398531.51249 -14595331.46046  21469907.866    21469918.785
       229.000         184.000
  24055491.862    17406783.01849  13593766.84645  24055491.719    24055501.575
       210.000         143.000
  22607877.167   -13998977.62749  -8738797.38746  22607877.035    22607889.085
       219.000         167.000
  21240219.723   -10482320.32549  -8147287.83647  21240219.628    21240228.019
       238.000         200.000
  20364952.892   -25635540.48449 -19958179.60647  20364952.290    20364960.218
       243.000         211.000
  22176747.389   -12327338.42049  -9580580.15146  22176746.835    22176756.549
       229.000         177.000
 02  5 27  2 49 59.9980000  0  7G 1G22G14G 2G25G20G11
  22018938.610   -16835892.53249 -13109392.92046  22018937.773    22018948.073
       230.000         183.000
  21451117.280   -19497280.77749 -14672278.81046  21451116.675    21451127.196
       227.000         185.000
  24066270.054    17463413.86849  13637894.75345  24066268.235    24066279.355
       213.000         142.000
  22589571.392   -14095176.58749  -8813757.42446  22589570.648    22589582.711
       220.000         168.000
  21249951.235   -10431182.84149  -8107440.45647  21249951.073    21249959.278
       237.000         200.000
  20351760.738   -25704864.08449 -20012197.95547  20351760.414    20351768.597
       242.000         210.000
  22187048.599   -12273207.64849  -9538400.41046  22187048.460    22187058.447
       227.000         177.000
 02  5 27  2 50 29.9980000  0  7G 1G22G14G 2G25G20G11
  22005453.110   -16906757.85749 -13164612.59446  22005453.141    22005462.906
       231.000         182.000
  21432385.229   -19595721.08349 -14748985.41846  21432384.789    21432394.777
       230.000         185.000
  24077042.270    17520029.05049  13682010.48345  24077041.131    24077051.645
       207.000         142.000
  22571288.570   -14191249.41849  -8888619.18646  22571287.970    22571299.830
       221.000         168.000
  21259721.180   -10379841.98949  -8067434.60247  21259720.989    21259729.000
       238.000         201.000
  20338636.743   -25773832.29049 -20065939.37147  20338636.189    20338644.143
       243.000         211.000
  22197394.818   -12218838.04549  -9496034.55646  22197394.385    22197404.014
       228.000         177.000
 02  5 27  2 50 59.9980000  0  7G 1G22G14G 2G25G20G11
  21991979.009   -16977564.01249 -13219786.15146  21991978.692    21991989.332
       229.000         183.000
  21413713.107   -19693843.61449 -14825444.40246  21413711.960    21413722.268
       231.000         185.000
  24087812.283    17576634.29349  13726118.47045  24087813.043    24087823.844
       208.000         142.000
  22553032.110   -14287187.84349  -8963376.22446  22553031.504    22553043.298
       220.000         169.000
  21269530.256   -10328294.08049  -8027267.41047  21269530.200    21269538.401
       239.000         201.000
  20325581.577   -25842437.23849 -20119397.73047  20325581.101    20325588.890
       243.000         211.000
  22207787.011   -12164226.73549  -9453480.37946  22207786.540    22207796.265
       228.000         176.000
 02  5 27  2 51 29.9980000  0  7G 1G22G14G 2G25G20G11
  21978514.197   -17048323.68749 -13274923.50746  21978513.378    21978523.379
       231.000         183.000
  21395099.010   -19791657.60049 -14901662.95946  21395098.340    21395108.570
       229.000         185.000
  24098581.780    17633217.40849  13770209.24745  24098580.781    24098592.103
       207.000         143.000
  22534800.029   -14383001.86049  -9038036.31646  22534799.448    22534811.135
       223.000         171.000
  21279375.947   -10276553.73149  -7986950.26147  21279375.859    21279384.480
       238.000         201.000
  20312593.685   -25910689.27049 -20172581.09347  20312593.250    20312601.013
       243.000         211.000
  22218222.019   -12109389.10249  -9410749.82946  22218222.231    22218231.569
       228.000         175.000
 02  5 27  2 51 59.9980000  0  7G 1G22G14G 2G25G20G11
  21965057.030   -17119039.70749 -13330026.82446  21965056.921    21965067.011
       230.000         183.000
  21376544.551   -19889162.52249 -14977640.70346  21376543.798    21376553.760
       229.000         184.000
  24109344.199    17689775.89349  13814280.82645  24109343.583    24109354.630
       208.000         144.000
  22516590.481   -14478691.47449  -9112599.47746  22516589.820    22516601.418
       222.000         170.000
  21289257.812   -10224625.37049  -7946486.60347  21289257.485    21289266.026
       238.000         200.000
  20299672.647   -25978589.08349 -20225489.99547  20299672.070    20299680.189
       242.000         211.000
  22228699.882   -12054330.59649  -9367847.16646  22228699.585    22228709.648
       228.000         177.000
 02  5 27  2 52 29.9980000  0  7G 1G22G14G 2G25G20G11
  21951610.035   -17189704.87549 -13385090.52946  21951609.522    21951620.326
       231.000         183.000
  21358050.798   -19986347.73049 -15053369.32046  21358050.040    21358059.757
       229.000         185.000
  24120104.065    17746316.94549  13858338.83745  24120103.184    24120113.397
       209.000         145.000
  22498406.330   -14574247.01949  -9187058.16246  22498405.568    22498416.716
       222.000         171.000
  21299175.997   -10172504.35049  -7905872.81947  21299175.973    21299183.978
       238.000         199.000
  20286820.554   -26046126.77149 -20278116.71447  20286819.984    20286828.244
       242.000         211.000
  22239219.717   -11999047.07949  -9324769.18846  22239219.968    22239229.412
       227.000         176.000
 02  5 27  2 52 59.9980000  0  7G 1G22G14G 2G25G20G11
  21938173.778   -17260311.96649 -13440108.97946  21938173.536    21938183.419
       231.000         183.000
  21339619.846   -20083202.48149 -15128840.43146  21339619.025    21339628.596
       230.000         185.000
  24130861.055    17802848.14149  13902389.13845  24130860.197    24130871.378
       210.000         144.000
  22480250.165   -14669658.43949  -9261404.54846  22480249.603    22480261.448
       223.000         172.000
  21309132.068   -10120185.09049  -7865104.57047  21309132.011    21309139.852
       237.000         199.000
  20274039.434   -26113292.67549 -20330453.73747  20274038.892    20274046.891
       243.000         212.000
  22249783.516   -11943533.81649  -9281512.17946  22249783.990    22249792.846
       227.000         175.000
 02  5 27  2 53 29.9980000  0  7G 1G22G14G 2G25G20G11
  21924750.633   -17330851.25749 -13495074.59446  21924750.307    21924760.196
       231.000         184.000
  21321254.242   -20179713.99549 -15204044.08946  21321253.189    21321262.782
       230.000         185.000
  24141619.594    17859379.44149  13946439.50345  24141618.320    24141627.304
       208.000         141.000
  22462123.906   -14764913.43549  -9335629.04146  22462122.752    22462134.051
       224.000         172.000
  21319127.114   -10067659.97649  -7824175.91047  21319126.806    21319135.090
       236.000         198.000
  20261331.241   -26180075.12549 -20382491.96347  20261330.626    20261338.328
       243.000         212.000
  22260392.793   -11887784.18449  -9238070.99146  22260392.564    22260402.085
       227.000         175.000
 02  5 27  2 53 59.9980000  0  7G 1G22G14G 2G25G20G11
  21911337.443   -17401337.50449 -13549998.87646  21911336.739    21911346.853
       230.000         184.000
  21302952.176   -20275893.60549 -15278989.12346  21302951.552    21302960.942
       229.000         186.000
  24152373.214    17915896.20149  13990478.57145  24152373.576    24152383.260
       206.000         140.000
  22444024.509   -14860024.25249  -9409741.18446  22444023.166    22444034.967
       224.000         171.000
  21329158.175   -10014945.92449  -7783100.03447  21329157.991    21329166.053
       236.000         197.000
  20248693.189   -26246486.70849 -20434241.20347  20248692.806    20248700.791
       242.000         212.000
  22271042.858   -11831815.45649  -9194459.08946  22271042.579    22271052.165
       226.000         174.000
 02  5 27  2 54 29.9980000  0  7G 1G22G14G 2G25G20G11
  21897933.712   -17471773.29649 -13604883.85046  21897933.199    21897943.025
       230.000         184.000
  21284713.101   -20371740.52249 -15353674.90646  21284712.117    21284722.211
       231.000         186.000
  24163124.914    17972396.08649  14034504.49945  24163122.876    24163132.793
       203.000         142.000
  22425952.291   -14954990.67449  -9483740.82146  22425952.308    22425964.095
       222.000         171.000
  21339224.682    -9962047.13249  -7741880.21047  21339224.562    21339233.094
       236.000         198.000
  20236126.159   -26312527.57349 -20485701.56947  20236125.502    20236133.254
       242.000         211.000
  22281733.998   -11775633.14249  -9150680.73746  22281733.570    22281743.690
       227.000         174.000
 02  5 27  2 54 59.9980000  0  7G 1G22G14G 2G25G20G11
  21884539.471   -17542158.82149 -13659729.63046  21884539.562    21884549.017
       229.000         183.000
  21266537.715   -20467251.64449 -15428099.03446  21266536.507    21266546.280
       231.000         187.000
  24173871.359    18028879.18249  14078517.36545  24173871.795    24173882.828
       202.000         141.000
  22407908.675   -15049810.36449  -9557626.12846  22407908.259    22407919.667
       223.000         173.000
  21349325.832    -9908965.94149  -7700518.24947  21349325.707    21349333.878
       237.000         198.000
  20223629.823   -26378195.42249 -20536871.27047  20223629.485    20223637.019
       242.000         211.000
  22292465.265   -11719240.15849  -9106738.22746  22292465.042    22292475.506
       226.000         174.000
 02  5 27  2 55 29.9980000  0  7G 1G22G14G 2G25G20G11
  21871152.849   -17612506.31049 -13714545.78046  21871152.748    21871162.351
       228.000         183.000
  21248424.027   -20562435.77749 -15502268.37846  21248423.514    21248433.886
       230.000         187.000
  24184615.800    18085333.48249  14122507.76245  24184616.555    24184627.023
       205.000         143.000
  22389891.669   -15144492.93749  -9631404.59546  22389890.647    22389902.257
       223.000         173.000
  21359458.752    -9855716.30949  -7659025.03747  21359458.750    21359466.767
       237.000         199.000
  20211202.491   -26443500.37849 -20587758.19447  20211202.155    20211210.127
       243.000         212.000
  22303233.566   -11662651.59149  -9062643.32646  22303233.684    22303244.505
       225.000         174.000
 02  5 27  2 55 59.9980000  0  8G 1G22G14G 2G25G13G20G11
  21857776.306   -17682802.38649 -13769321.86646  21857775.849    21857785.467
       229.000         182.000
  21230376.272   -20657276.50749 -15576170.13046  21230375.619    21230385.690
       231.000         187.000
  24195356.421    18141772.38549  14166486.15245  24195356.682    24195365.650
       205.000         144.000
  22371902.847   -15239022.48349  -9705063.80746  22371902.412    22371913.952
       224.000         173.000
  21369626.082    -9802287.20649  -7617391.96647  21369625.711    21369633.917
       237.000         198.000
  24111869.175    -3220547.11759  -2279242.40455  24111869.603    24111881.888
       208.000         141.000
  20198847.694   -26508426.97649 -20638350.29947  20198847.153    20198854.913
       243.000         212.000
  22314041.727   -11605856.89849  -9018387.81146  22314041.353    22314050.768
       225.000         173.000
 02  5 27  2 56 29.9980000  0  8G 1G22G14G 2G25G13G20G11
  21844411.651   -17753033.56149 -13824047.37946  21844411.256    21844421.146
       230.000         184.000
  21212397.608   -20751756.92349 -15649791.11447  21212396.808    21212406.515
       231.000         188.000
  24206096.129    18198209.54349  14210463.15645  24206095.713    24206105.850
       204.000         145.000
  22353945.852   -15333382.95649  -9778591.28346  22353946.203    22353957.269
       222.000         174.000
  21379829.521    -9748667.25449  -7575610.18547  21379829.277    21379837.371
       237.000         198.000
  24094655.064    -3311010.28249  -2349733.07345  24094654.445    24094669.252
       203.000         136.000
  20186567.430   -26572959.27849 -20688635.15847  20186567.023    20186574.681
       243.000         212.000
  22324890.485   -11548845.46949  -8973963.41546  22324890.360    22324900.445
       225.000         173.000
 02  5 27  2 56 59.9980000  0  8G 1G22G14G 2G25G13G20G11
  21831057.214   -17823211.37149 -13878731.30546  21831056.337    21831066.425
       229.000         183.000
  21194485.248   -20845885.21649 -15723137.72047  21194484.579    21194494.840
       231.000         188.000
  24216833.878    18254633.77449  14254430.09745  24216833.445    24216842.990
       205.000         145.000
  22336021.062   -15427583.10049  -9851993.82946  22336019.616    22336031.050
       224.000         174.000
  21390066.942    -9694869.64149  -7533689.97147  21390067.028    21390075.045
       237.000         197.000
  24077437.451    -3401487.26449  -2420234.46045  24077436.922    24077449.863
       207.000         134.000
  20174360.321   -26637106.75449 -20738620.15547  20174360.005    20174367.903
       242.000         212.000
  22335778.441   -11491631.55749  -8929381.23946  22335779.087    22335787.990
       226.000         172.000
 02  5 27  2 57 29.9980000  0  8G 1G22G14G 2G25G13G20G11
  21817711.431   -17893342.09649 -13933378.53446  21817711.252    21817720.809
       229.000         184.000
  21176639.973   -20939664.59849 -15796212.43947  21176638.878    21176648.302
       231.000         188.000
  24227566.842    18311039.00649  14298382.26845  24227565.028    24227574.778
       205.000         143.000
  22318125.390   -15521626.86049  -9925274.51546  22318124.753    22318135.051
       224.000         174.000
  21400336.288    -9640902.62449  -7491637.75247  21400336.350    21400344.257
       236.000         196.000
  24060216.615    -3491984.47249  -2490751.73145  24060218.454    24060227.283
       209.000         135.000
  20162226.115   -26700873.58549 -20788308.54847  20162225.490    20162233.376
       242.000         212.000
  22346702.484   -11434224.12849  -8884648.27346  22346701.903    22346712.510
       225.000         172.000
 02  5 27  2 57 59.9980000  0  7G 1G22G 2G25G13G20G11
  21804376.315   -17963417.20049 -13987982.42046  21804376.348    21804385.997
       229.000         184.000
  21158863.103   -21033082.83649 -15869005.76247  21158862.657    21158871.071
       232.000         189.000
  22300260.824   -15615502.85149  -9998424.47646  22300259.838    22300271.138
       223.000         173.000
  21410639.167    -9586759.48349  -7449448.30547  21410639.258    21410647.444
       235.000         195.000
  24042992.715    -3582493.38549  -2561278.11345  24042993.354    24043003.199
       205.000         136.000
  20150165.873   -26764248.74549 -20837691.73947  20150165.597    20150173.489
       242.000         212.000
  22357664.407   -11376617.54049  -8839760.10946  22357664.686    22357674.176
       223.000         170.000
 02  5 27  2 58 29.9980000  0  7G 1G22G 2G25G13G20G11
  21791049.699   -18033450.48349 -14042553.72946  21791049.650    21791059.617
       230.000         185.000
  21141152.347   -21126150.87549 -15941526.19747  21141151.602    21141161.309
       231.000         189.000
  22282425.934   -15709222.56049 -10071452.65246  22282425.673    22282436.962
       224.000         174.000
  21420972.762    -9532456.43649  -7407134.25147  21420972.778    21420980.989
       235.000         195.000
  24025765.946    -3673028.04049  -2631824.43445  24025765.765    24025777.562
       206.000         140.000
  20138178.483   -26827243.84449 -20886778.77648  20138177.992    20138185.683
       242.000         213.000
  22368661.346   -11318828.81049  -8794730.02246  22368662.033    22368672.191
       224.000         171.000
 02  5 27  2 58 59.9980000  0  7G 1G22G 2G25G13G20G11
  21777734.069   -18103422.89949 -14097077.58746  21777733.815    21777743.924
       230.000         185.000
  21123512.941   -21218846.48549 -16013756.43047  21123512.174    21123521.998
       231.000         189.000
  22264625.509   -15802764.40249 -10144342.24646  22264624.751    22264635.762
       225.000         174.000
  21431340.493    -9477976.12949  -7364682.07347  21431340.240    21431348.206
       236.000         195.000
  24008535.181    -3763568.96149  -2702375.61645  24008536.151    24008545.974
       201.000         139.000
  20126267.376   -26889837.80349 -20935553.24448  20126266.873    20126274.570
       243.000         213.000
  22379696.464   -11260841.56349  -8749545.24846  22379696.135    22379706.480
       225.000         172.000
 02  5 27  2 59 29.9980000  0  7G 1G22G 2G25G13G20G11
  21764429.212   -18173341.98549 -14151559.90046  21764428.697    21764438.631
       231.000         186.000
  21105943.428   -21311173.85649 -16085699.72747  21105942.840    21105952.669
       232.000         190.000
  22246857.782   -15896133.20349 -10217096.99546  22246857.173    22246868.984
       225.000         175.000
  21441739.267    -9423328.41149  -7322099.44847  21441739.254    21441747.448
       234.000         194.000
  23991302.673    -3854124.20649  -2772937.99945  23991303.204    23991315.435
       205.000         140.000
  20114431.315   -26952035.92049 -20984019.26348  20114430.887    20114438.656
       242.000         213.000
  22390766.831   -11202666.13449  -8704213.83446  22390766.664    22390776.383
       224.000         171.000
 02  5 27  2 59 59.9980000  0  7G 1G22G 2G25G13G20G11
  21751134.637   -18243203.85949 -14205997.63346  21751134.502    21751144.234
       231.000         186.000
  21088445.232   -21403126.01349 -16157350.64847  21088444.684    21088454.307
       232.000         189.000
  22229124.260   -15989322.85349 -10289712.15246  22229123.892    22229135.499
       225.000         176.000
  21452170.524    -9368511.11749  -7279384.67847  21452170.286    21452178.975
       235.000         195.000
  23974068.890    -3944689.93149  -2843508.53445  23974069.270    23974080.583
       205.000         140.000
  20102671.853   -27013832.26549 -21032172.21247  20102671.246    20102678.886
       243.000         212.000
  22401873.148   -11144301.73649  -8658735.17146  22401872.996    22401883.080
       224.000         171.000
 02  5 27  3  0 29.9980000  0  7G 1G22G 2G25G13G20G11
  21737858.841   -18312968.22349 -14260359.39246  21737858.592    21737868.258
       231.000         187.000
  21071027.185   -21494659.40049 -16228675.26347  21071026.208    21071035.814
       232.000         190.000
  22211433.509   -16082290.16249 -10362154.06446  22211432.590    22211444.228
       224.000         176.000
  21462641.774    -9313485.80449  -7236507.82047  21462641.620    21462650.256
       235.000         195.000
  23956840.680    -4035225.54349  -2914055.61745  23956839.758    23956852.104
       207.000         143.000
  20090996.808   -27075184.37349 -21079979.00248  20090996.464    20091004.325
       242.000         213.000
  22413022.675   -11085710.70149  -8613079.91746  22413022.699    22413033.030
       224.000         170.000
 02  5 27  3  0 59.9980000  0  7G 1G22G 2G25G13G20G11
  21724592.251   -18382684.29549 -14314683.50546  21724591.913    21724602.311
       232.000         186.000
  21053680.112   -21585820.19649 -16299709.54447  21053679.610    21053688.495
       231.000         188.000
  22193775.773   -16175081.91449 -10434459.17646  22193775.378    22193786.100
       227.000         175.000
  21473142.531    -9258303.67849  -7193508.77647  21473142.455    21473151.039
       234.000         195.000
  23939608.159    -4125780.34549  -2984617.64745  23939608.463    23939620.008
       215.000         148.000
  20079397.267   -27136139.25049 -21127476.26748  20079396.869    20079404.619
       242.000         213.000
  22424205.876   -11026945.12249  -8567288.64646  22424205.402    22424216.081
       225.000         170.000
 02  5 27  3  1 29.9980000  0  7G 1G22G 2G25G13G20G11
  21711327.247   -18452393.32649 -14369002.15646  21711326.957    21711336.779
       232.000         187.000
  21036396.372   -21676646.22149 -16370482.96447  21036395.682    21036404.862
       233.000         190.000
  22176144.043   -16267736.71249 -10506657.57246  22176143.375    22176153.839
       227.000         177.000
  21483664.925    -9203007.80849  -7150421.08847  21483665.138    21483673.242
       234.000         195.000
  23922363.980    -4216395.87349  -3055227.00145  23922363.841    23922376.525
       214.000         149.000
  20067866.246   -27196736.10849 -21174694.54948  20067865.596    20067873.669
       242.000         213.000
  22435412.777   -10968049.32449  -8521395.91446  22435412.684    22435423.727
       223.000         169.000
 02  5 27  3  1 59.9980000  0  7G 1G22G 2G25G13G20G11
  21698064.695   -18522086.59849 -14423308.52446  21698064.468    21698074.725
       231.000         187.000
  21019177.856   -21767125.80649 -16440986.42947  21019177.516    21019187.007
       232.000         191.000
  22158539.996   -16360243.46349 -10578740.60046  22158539.276    22158550.972
       227.000         176.000
  21494210.224    -9147591.67249  -7107239.69847  21494210.477    21494218.424
       235.000         195.000
  23905111.453    -4307063.52749  -3125876.97645  23905111.670    23905122.486
       213.000         150.000
  20056405.134   -27256964.17749 -21221625.46948  20056404.675    20056412.316
       242.000         213.000
  22446646.160   -10909017.31349  -8475397.03846  22446646.644    22446656.549
       223.000         168.000
 02  5 27  3  2 29.9980000  0  7G 1G22G 2G25G13G20G11
  21684814.355   -18591719.39349 -14477567.77947  21684814.172    21684824.023
       232.000         188.000
  21002035.381   -21857211.17549 -16511182.72147  21002034.298    21002044.257
       232.000         191.000
  22140973.890   -16452554.91949 -10650671.45046  22140972.710    22140984.055
       227.000         176.000
  21504786.663    -9092012.83749  -7063931.52747  21504786.678    21504794.626
       235.000         194.000
  23887855.516    -4397738.60949  -3196532.72345  23887856.129    23887868.208
       214.000         150.000
  20045023.250   -27316776.64749 -21268232.54848  20045022.524    20045030.290
       242.000         213.000
  22457914.458   -10849807.37149  -8429259.50946  22457913.058    22457924.651
       225.000         168.000
 02  5 27  3  2 59.9980000  0  7G 1G22G 2G25G13G20G11
  21671575.627   -18661288.37449 -14531777.30647  21671575.348    21671584.606
       231.000         188.000
  20984968.952   -21946895.93249 -16581066.84847  20984968.569    20984977.765
       233.000         191.000
  22123445.825   -16544665.40749 -10722445.72246  22123445.039    22123456.113
       228.000         177.000
  21515394.378    -9036269.74949  -7020495.37047  21515394.132    21515402.564
       235.000         194.000
  23870600.838    -4488417.73649  -3267191.58445  23870600.588    23870611.690
       215.000         150.000
  20033721.557   -27376168.04949 -21314511.52548  20033721.014    20033728.402
       242.000         213.000
  22469215.203   -10790419.09749  -8382983.02646  22469215.214    22469225.242
       224.000         169.000
 02  5 27  3  3 29.9980000  0  7G 1G22G 2G25G13G20G11
  21658348.416   -18730797.22149 -14585939.97246  21658347.865    21658357.983
       231.000         186.000
  20967978.731   -22036180.51349 -16650639.15247  20967978.124    20967987.619
       232.000         192.000
  22105955.605   -16636576.19349 -10794064.37146  22105955.348    22105965.470
       227.000         178.000
  21526032.012    -8980367.85549  -6976935.46447  21526031.836    21526040.557
       234.000         194.000
  23853342.323    -4579104.73149  -3337856.60245  23853342.595    23853354.719
       209.000         149.000
  20022499.289   -27435140.10349 -21360463.73748  20022498.958    20022506.686
       242.000         213.000
  22480549.583   -10730859.21649  -8336572.82546  22480550.003    22480559.004
       224.000         168.000
 02  5 27  3  3 59.9980000  0  7G 1G22G 2G25G13G20G11
  21645130.022   -18800259.04849 -14640066.00047  21645129.816    21645139.578
       231.000         188.000
  20951062.528   -22125075.13349 -16719907.59147  20951061.856    20951071.157
       233.000         191.000
  22088501.439   -16728297.83149 -10865535.64846  22088500.241    22088511.848
       227.000         177.000
  21536696.819    -8924322.66149  -6933263.90747  21536697.083    21536705.549
       233.000         194.000
  23836081.472    -4669812.99149  -3408538.17345  23836080.806    23836093.709
       206.000         145.000
  20011354.860   -27493703.84449 -21406097.78348  20011354.256    20011362.236
       242.000         213.000
  22491913.494   -10671143.74949  -8290041.39846  22491913.528    22491922.624
       223.000         168.000
 02  5 27  3  4 29.9980000  0  7G 1G22G 2G25G13G20G11
  21631923.494   -18869658.97849 -14694143.79547  21631923.613    21631933.763
       231.000         188.000
  20934224.052   -22213561.86649 -16788858.19847  20934223.583    20934232.589
       233.000         191.000
  22071086.651   -16819812.97449 -10936846.00146  22071086.105    22071096.566
       228.000         178.000
  21547391.794    -8868121.10449  -6889470.50847  21547391.961    21547400.159
       234.000         194.000
  23818819.059    -4760527.39649  -3479224.54845  23818819.141    23818830.866
       207.000         143.000
  20000291.651   -27551842.27949 -21451400.42348  20000291.149    20000298.843
       243.000         214.000
  22503308.810   -10611260.61149  -8243379.29746  22503308.024    22503317.991
       223.000         167.000
 02  5 27  3  4 59.9980000  0  7G 1G22G 2G25G13G20G11
  21618728.856   -18938999.56549 -14748175.35347  21618728.691    21618737.546
       232.000         188.000
  20917463.196   -22301640.07649 -16857490.47247  20917462.769    20917472.037
       233.000         192.000
  22053711.283   -16911121.52449 -11007995.38446  22053710.102    22053721.360
       228.000         179.000
  21558115.719    -8811767.57049  -6845558.67747  21558115.457    21558123.940
       234.000         193.000
  23801554.649    -4851250.74649  -3549917.90945  23801555.374    23801565.684
       203.000         142.000
  19989309.082   -27609555.98949 -21496372.11348  19989308.506    19989316.082
       242.000         214.000
  22514733.990   -10551215.30149  -8196590.84746  22514734.183    22514745.482
       222.000         167.000
 02  5 27  3  5 29.9980000  0  7G 1G22G 2G25G13G20G11
  21605542.273   -19008293.73749 -14802170.76147  21605542.045    21605551.255
       232.000         188.000
  20900778.114   -22389319.57049 -16925812.06047  20900777.687    20900787.201
       233.000         192.000
  22036372.730   -17002234.06449 -11078992.03446  22036372.296    22036382.712
       227.000         179.000
  21568865.707    -8755276.98749  -6801540.05547  21568865.360    21568873.706
       234.000         194.000
  23784286.175    -4941995.80749  -3620628.13445  23784285.396    23784298.664
       201.000         140.000
  19978405.342   -27666855.79949 -21541021.28248  19978404.828    19978412.364
       243.000         214.000
  22526188.172   -10491023.60149  -8149688.32646  22526188.118    22526198.350
       220.000         167.000
 02  5 27  3  5 59.9980000  0  7G 1G22G 2G25G13G20G11
  21592371.950   -19077503.92449 -14856100.71747  21592371.249    21592381.080
       232.000         188.000
  20884176.775   -22476560.04749 -16993791.56047  20884176.047    20884185.199
       233.000         192.000
  22019079.013   -17093110.96349 -11149805.06746  22019077.961    22019088.924
       227.000         179.000
  21579647.939    -8698613.87449  -6757386.99447  21579647.953    21579656.789
       234.000         193.000
  23767020.980    -5032725.43949  -3691326.33945  23767019.514    23767031.943
       202.000         139.000
  19967587.707   -27723702.54349 -21585317.41748  19967587.192    19967594.728
       242.000         214.000
  22537678.214   -10430650.98549  -8102644.82146  22537677.851    22537687.577
       224.000         168.000
 02  5 27  3  6 29.9980000  0  7G 1G22G 2G25G13G20G11
  21579207.638   -19146682.08049 -14910005.71547  21579207.641    21579216.694
       232.000         188.000
  20867650.011   -22563410.44349 -17061467.09547  20867649.376    20867657.782
       234.000         193.000
  22001821.224   -17183801.71549 -11220473.05246  22001820.826    22001831.451
       228.000         178.000
  21590453.117    -8641831.97049  -6713141.38247  21590453.431    21590461.579
       234.000         193.000
  23749749.026    -5123491.51949  -3762052.99745  23749748.369    23749759.328
       201.000         139.000
  19956846.693   -27780146.05849 -21629299.34648  19956846.237    19956854.134
       242.000         214.000
  22549189.817   -10370152.49449  -8055503.22846  22549189.449    22549200.116
       222.000         167.000
 02  5 27  3  6 59.9980000  0  7G 1G22G 2G25G13G20G11
  21566055.430   -19215796.87949 -14963861.34247  21566055.742    21566065.053
       233.000         189.000
  20851203.342   -22649836.61749 -17128812.06847  20851202.918    20851211.792
       234.000         193.000
  21984605.075   -17274272.58649 -11290969.70546  21984604.780    21984614.989
       228.000         179.000
  21601286.773    -8584902.03749  -6668780.41647  21601286.791    21601295.014
       233.000         193.000
  23732474.926    -5214262.99349  -3832783.82345  23732475.695    23732486.519
       205.000         139.000
  19946189.111   -27836153.09749 -21672941.16548  19946188.425    19946196.121
       242.000         214.000
  22560732.448   -10309499.95049  -8008241.60646  22560732.448    22560741.382
       223.000         167.000
 02  5 27  3  7 29.9970000  0  7G 1G22G 2G25G13G20G11
  21552913.699   -19284858.60649 -15017675.61747  21552913.524    21552923.054
       233.000         189.000
  20834835.952   -22735845.31449 -17195831.73947  20834835.950    20834845.346
       234.000         193.000
  21967429.510   -17364530.75249 -11361300.59946  21967428.786    21967439.890
       228.000         179.000
  21612145.200    -8527840.65649  -6624317.02447  21612145.108    21612153.641
       232.000         192.000
  23715198.318    -5305049.55249  -3903526.43045  23715198.134    23715212.124
       203.000         140.000
  19935612.553   -27891732.58749 -21716249.82848  19935612.106    19935619.609
       242.000         214.000
  22572300.066   -10248710.76849  -7960873.51446  22572299.232    22572309.765
       222.000         167.000
 02  5 27  3  7 59.9970000  0  7G 1G22G 2G25G13G20G11
  21539782.334   -19353862.91449 -15071445.14447  21539781.994    21539792.157
       233.000         189.000
  20818550.012   -22821430.29649 -17262521.24447  20818549.721    20818558.795
       235.000         193.000
  21950295.341   -17454570.79849 -11431461.54746  21950294.978    21950305.509
       229.000         180.000
  21623030.604    -8470637.45249  -6579743.11547  21623030.447    21623038.678
       233.000         190.000
  23697920.924    -5395848.27949  -3974278.52945  23697920.573    23697930.746
       205.000         141.000
  19925118.676   -27946877.33649 -21759219.73748  19925118.124    19925125.825
       242.000         214.000
  22583895.245   -10187774.94249  -7913391.13046  22583895.320    22583905.438
       220.000         164.000
 02  5 27  3  8 29.9970000  0  7G 1G22G 2G25G13G20G11
  21526659.062   -19422826.46949 -15125182.93247  21526658.852    21526667.924
       233.000         188.000
  20802341.916   -22906604.78249 -17328890.88447  20802341.157    20802350.002
       234.000         194.000
  21933200.461   -17544406.34049 -11501463.13346  21933199.458    21933210.294
       229.000         180.000
  21633938.772    -8413314.86749  -6535076.17847  21633938.484    21633946.460
       233.000         190.000
  23680637.162    -5486675.16449  -4045052.57645  23680636.322    23680647.808
       206.000         139.000
  19914704.990   -28001602.45449 -21801862.66048  19914704.295    19914712.193
       242.000         215.000
  22595514.078   -10126716.37749  -7865813.12646  22595514.204    22595523.856
       221.000         165.000
 02  5 27  3  8 59.9970000  0  7G 1G22G 2G25G13G20G11
  21513544.096   -19491745.69349 -15178886.15747  21513543.839    21513553.081
       232.000         189.000
  20786212.710   -22991362.23649 -17394935.56147  20786212.046    20786220.786
       233.000         194.000
  21916144.797   -17634031.51849 -11571300.81346  21916143.966    21916154.083
       228.000         181.000
  21644870.101    -8355871.11449  -6490314.82247  21644869.899    21644878.229
       233.000         191.000
  23663348.112    -5577526.69249  -4115845.83645  23663347.452    23663360.608
       205.000         138.000
  19904371.870   -28055902.56649 -21844174.40648  19904371.486    19904379.070
       242.000         215.000
  22607157.006   -10065534.51149  -7818139.05046  22607157.069    22607168.283
       221.000         164.000
 02  5 27  3  9 29.9970000  0  7G 1G22G 2G25G13G20G11
  21500439.377   -19560610.33549 -15232546.85247  21500439.215    21500448.870
       232.000         190.000
  20770165.734   -23075689.75549 -17460645.22247  20770164.846    20770174.129
       234.000         194.000
  21899131.600   -17723433.84849 -11640964.83346  21899131.471    21899142.367
       228.000         180.000
  21655825.805    -8298298.00949  -6445452.67047  21655825.886    21655834.227
       233.000         191.000
  23646055.482    -5668392.63349  -4186650.31545  23646055.874    23646067.644
       202.000         137.000
  19894122.062   -28109765.73549 -21886145.67648  19894121.504    19894129.224
       242.000         215.000
  22618824.512   -10004222.11249  -7770363.23546  22618823.064    22618834.085
       220.000         165.000
 02  5 27  3  9 59.9970000  0  7G 1G22G 2G25G13G20G11
  21487343.157   -19629432.53549 -15286174.47947  21487342.826    21487352.361
       233.000         191.000
  20754198.584   -23159596.58049 -17526027.07247  20754197.957    20754207.144
       234.000         194.000
  21882160.093   -17812623.02449 -11710462.77046  21882159.545    21882169.869
       229.000         182.000
  21666803.485    -8240610.00749  -6400500.98947  21666803.237    21666811.609
       233.000         190.000
  23628759.817    -5759285.41649  -4257475.75245  23628758.699    23628772.228
       204.000         137.000
  19883953.479   -28163202.13149 -21927784.39948  19883952.988    19883960.613
       242.000         215.000
  22630514.514    -9942794.51149  -7722497.70346  22630514.222    22630524.823
       221.000         165.000
 02  5 27  3 10 29.9970000  0  7G 1G22G 2G25G13G20G11
  21474253.098   -19698219.69749 -15339774.79547  21474252.807    21474262.524
       234.000         191.000
  20738310.674   -23243087.17949 -17591084.58947  20738310.097    20738319.202
       234.000         194.000
  21865227.626   -17901604.23749 -11779798.65646  21865226.527    21865237.340
       229.000         182.000
  21677801.012    -8182816.43749  -6355467.04747  21677800.999    21677809.132
       232.000         190.000
  23611456.747    -5850212.49349  -4328327.93445  23611458.412    23611468.548
       202.000         139.000
  19873864.940   -28216217.43049 -21969094.99148  19873864.365    19873871.946
       242.000         215.000
  22642222.853    -9881262.07149  -7674550.43846  22642222.960    22642233.481
       219.000         165.000
 02  5 27  3 10 59.9970000  0  7G 1G22G 2G25G13G20G11
  21461178.555   -19766928.23449 -15393313.85647  21461178.204    21461187.462
       232.000         191.000
  20722511.139   -23326115.24649 -17655781.69647  20722510.359    20722519.146
       234.000         194.000
  21848342.860   -17990331.29549 -11848936.49546  21848341.887    21848353.382
       228.000         182.000
  21688826.586    -8124875.60849  -6310318.35547  21688827.078    21688835.150
       233.000         191.000
  23594155.316    -5941130.56049  -4399173.03445  23594156.014    23594167.135
       206.000         139.000
  19863865.367   -28268765.96849 -22010041.88048  19863864.708    19863872.272
       242.000         215.000
  22653959.981    -9819584.09949  -7626489.78346  22653960.875    22653970.436
       220.000         165.000
 02  5 27  3 11 29.9970000  0  7G 1G22G 2G25G13G20G11
  21448110.847   -19835597.19849 -15446822.07947  21448110.693    21448120.107
       233.000         190.000
  20706792.721   -23408716.98149 -17720146.59147  20706791.874    20706801.196
       235.000         195.000
  21831500.083   -18078841.13049 -11917905.08446  21831499.405    21831509.539
       229.000         183.000
  21699873.007    -8066828.58049  -6265086.92447  21699872.740    21699881.877
       232.000         191.000
  23576849.200    -6032078.32149  -4470041.35445  23576849.920    23576859.802
       204.000         139.000
  19853947.364   -28320885.10949 -22050654.17348  19853946.905    19853954.425
       242.000         215.000
  22665716.428    -9757802.75049  -7578348.55646  22665715.541    22665727.027
       218.000         163.000
 02  5 27  3 11 59.9970000  0  7G 1G22G 2G25G13G20G11
  21435056.639   -19904197.94349 -15500277.15147  21435056.255    21435065.984
       233.000         190.000
  20691161.206   -23490860.90149 -17784154.75147  20691160.348    20691169.518
       235.000         195.000
  21814704.154   -18167102.96849 -11986680.41146  21814704.034    21814713.774
       229.000         183.000
  21710944.029    -8008648.51249  -6219751.81747  21710943.987    21710952.508
       232.000         190.000
  23559543.152    -6123027.66549  -4540910.87445  23559543.818    23559554.636
       210.000         141.000
  19844116.658   -28372544.37149 -22090908.11548  19844116.137    19844123.758
       241.000         215.000
  22677497.673    -9695891.91149  -7530106.45746  22677497.964    22677508.579
       222.000         164.000
 02  5 27  3 12 29.9970000  0  7G 1G22G 2G25G13G20G11
  21422015.476   -19972731.29249 -15553679.69847  21422014.880    21422024.571
       233.000         191.000
  20675616.783   -23572545.17749 -17847804.75047  20675616.239    20675625.167
       236.000         195.000
  21797956.031   -18255115.15549 -12055261.21146  21797954.907    21797965.326
       229.000         183.000
  21722040.172    -7950338.26049  -6174315.27447  21722040.005    21722048.242
       232.000         190.000
  23542234.725    -6213979.06449  -4611782.01245  23542234.752    23542245.931
       206.000         138.000
  19834373.917   -28423743.15349 -22130803.24548  19834373.365    19834381.013
       242.000         215.000
  22689303.920    -9633855.87849  -7481766.78746  22689303.957    22689312.517
       219.000         165.000
 02  5 27  3 12 59.9970000  0  7G 1G22G 2G25G13G20G11
  21408982.261   -20041220.96649 -15607048.20747  21408981.883    21408990.866
       234.000         192.000
  20660155.932   -23653790.89049 -17911113.00547  20660155.433    20660164.455
       235.000         195.000
  21781250.988   -18342899.28149 -12123664.30646  21781250.526    21781260.466
       229.000         184.000
  21733156.538    -7891923.80049  -6128797.52347  21733156.396    21733164.307
       232.000         190.000
  23524921.896    -6304957.01749  -4682673.85145  23524922.327    23524933.636
       207.000         138.000
  19824714.666   -28474503.47349 -22170356.71648  19824714.237    19824721.539
       242.000         215.000
  22701126.906    -9571721.56549  -7433350.55645  22701128.212    22701137.804
       221.000         162.000
 02  5 27  3 13 29.9970000  0  7G 1G22G 2G25G13G20G11
  21395957.011   -20109666.92149 -15660382.64747  21395956.589    21395966.034
       233.000         191.000
  20644779.823   -23734595.15949 -17974077.28347  20644779.019    20644788.174
       236.000         196.000
  21764589.968   -18430453.06249 -12191887.91746  21764589.190    21764599.758
       229.000         184.000
  21744291.812    -7833407.05949  -6083200.06847  21744291.739    21744300.269
       232.000         190.000
  23507604.094    -6395961.20549  -4753586.15845  23507604.790    23507615.063
       205.000         138.000
  19815139.151   -28524823.35949 -22209566.99448  19815138.687    19815146.170
       242.000         216.000
  22712969.843    -9509491.81649  -7384859.94346  22712969.603    22712980.384
       222.000         164.000
 02  5 27  3 13 59.9970000  0  7G 1G22G 2G25G13G20G11
  21382940.370   -20178070.36849 -15713683.96547  21382940.455    21382949.637
       234.000         192.000
  20629487.178   -23814956.85449 -18036696.70547  20629486.473    20629495.622
       236.000         196.000
  21747973.186   -18517775.51749 -12259931.25846  21747972.768    21747982.118
       230.000         184.000
  21755445.855    -7774791.00949  -6037525.23547  21755445.912    21755454.365
       232.000         189.000
  23490283.125    -6486992.74949  -4824519.73645  23490282.922    23490292.243
       211.000         142.000
  19805647.594   -28574702.40949 -22248433.76248  19805646.920    19805654.297
       242.000         216.000
  22724828.876    -9447170.79549  -7336298.20946  22724827.970    22724839.002
       220.000         164.000
 02  5 27  3 14 29.9970000  0  7G 1G22G 2G25G13G20G11
  21369932.856   -20246425.33849 -15766947.51447  21369932.760    21369941.813
       234.000         191.000
  20614281.061   -23894866.84349 -18098964.14147  20614280.153    20614289.005
       236.000         196.000
  21731401.756   -18604858.37849 -12327787.91846  21731401.159    21731411.551
       230.000         185.000
  21766619.615    -7716071.83449  -5991770.04147  21766619.866    21766627.616
       231.000         188.000
  23472955.186    -6578046.14749  -4895470.33145  23472956.065    23472965.316
       210.000         142.000
  19796240.998   -28624133.07249 -22286951.13548  19796240.525    19796248.071
       242.000         215.000
  22736705.427    -9384755.76349  -7287663.19845  22736704.996    22736716.348
       221.000         162.000
 02  5 27  3 14 59.9970000  0  7G 1G22G 2G25G13G20G11
  21356938.884   -20314707.35049 -15820154.21947  21356938.711    21356947.927
       233.000         192.000
  20599165.541   -23974298.46449 -18160858.82647  20599164.876    20599173.331
       236.000         197.000
  21714881.048   -18691674.99749 -12395437.11046  21714880.109    21714890.878
       230.000         185.000
  21777817.314    -7657226.63949  -5945916.65546  21777817.357    21777826.487
       230.000         187.000
  23455628.468    -6669097.00949  -4966418.97645  23455628.686    23455640.694
       208.000         144.000
  19786924.786   -28673089.13549 -22325098.68848  19786924.384    19786931.963
       241.000         215.000
  22748605.489    -9322225.07449  -7238938.09446  22748605.402    22748616.106
       220.000         164.000
 02  5 27  3 15 29.9970000  0  7G 1G22G 2G25G13G20G11
  21343954.036   -20382943.61749 -15873325.27047  21343953.620    21343962.921
       233.000         192.000
  20584136.179   -24053276.17549 -18222399.81647  20584135.693    20584144.910
       236.000         196.000
  21698406.237   -18778250.47349 -12462898.39946  21698405.613    21698415.610
       230.000         186.000
  21789033.395    -7598285.11449  -5899988.19946  21789033.857    21789042.742
       230.000         186.000
  23438296.689    -6760172.71949  -5037386.97645  23438297.821    23438307.409
       211.000         142.000
  19777694.467   -28721596.10449 -22362896.30148  19777693.919    19777701.457
       242.000         216.000
  22760521.003    -9259609.30449  -7190146.68546  22760519.766    22760530.533
       220.000         163.000
 02  5 27  3 15 59.9970000  0  7G 1G22G 2G25G13G20G11
  21330980.617   -20451119.34549 -15926449.14347  21330980.197    21330989.685
       233.000         192.000
  20569196.799   -24131782.66649 -18283573.62747  20569196.089    20569205.672
       236.000         196.000
  21681980.328   -18864567.84849 -12530158.57946  21681979.739    21681989.576
       230.000         185.000
  21800270.793    -7539234.21749  -5853974.52346  21800270.736    21800279.170
       230.000         187.000
  23420964.475    -6851258.34649  -5108362.73645  23420965.395    23420974.264
       212.000         142.000
  19768552.347   -28769637.71549 -22400331.29448  19768551.775    19768559.429
       242.000         216.000
  22772455.024    -9196896.63549  -7141279.75946  22772453.943    22772463.710
       221.000         163.000
 02  5 27  3 16 29.9970000  0  7G 1G22G 2G25G13G20G11
  21318016.823   -20519243.98449 -15979533.21347  21318016.198    21318026.067
       232.000         191.000
  20554346.348   -24209824.86149 -18344385.64747  20554345.602    20554354.439
       237.000         197.000
  21665602.201   -18950634.42149 -12597223.33046  21665601.628    21665611.633
       230.000         185.000
  21811526.817    -7480085.62049  -5807884.72546  21811526.564    21811534.947
       231.000         187.000
  23403627.756    -6942363.65649  -5179353.79145  23403628.284    23403636.606
       211.000         142.000
  19759497.327   -28817222.08049 -22437409.99848  19759496.805    19759504.194
       241.000         216.000
  22784404.514    -9134099.59349  -7092347.11745  22784404.342    22784413.646
       220.000         161.000
